<?xml version="1.0" encoding="UTF-8" standalone="no" ?>
<gpx xmlns="http://www.topografix.com/GPX/1/1" xmlns:xsi="http://www.w3.org/2001/XMLSchema-instance" xsi:schemaLocation="http://www.topografix.com/GPX/1/1 http://www.topografix.com/GPX/1/1/gpx.xsd" version="1.1" creator="VisuGPX - https://www.visugpx.com">
  <metadata>
    <name>ST ROMAIN virvee 06 FEV 21</name>
  </metadata>
  <trk>
    <name><![CDATA[ST ROMAIN virvee 06 FEV 21]]></name>
    <trkseg>
      <trkpt lat="44.96527" lon="-0.4029">
        <ele>38.59</ele>
        <time>2021-02-06T07:52:33Z</time>
      </trkpt>
      <trkpt lat="44.96527" lon="-0.4029">
        <ele>38.59</ele>
        <time>2021-02-06T07:52:34Z</time>
      </trkpt>
      <trkpt lat="44.96528" lon="-0.40287">
        <ele>38.59</ele>
        <time>2021-02-06T07:52:49Z</time>
      </trkpt>
      <trkpt lat="44.96527" lon="-0.40286">
        <ele>39.07</ele>
        <time>2021-02-06T07:53:11Z</time>
      </trkpt>
      <trkpt lat="44.96523" lon="-0.40286">
        <ele>38.59</ele>
        <time>2021-02-06T07:53:37Z</time>
      </trkpt>
      <trkpt lat="44.96524" lon="-0.40287">
        <ele>38.59</ele>
        <time>2021-02-06T07:54:01Z</time>
      </trkpt>
      <trkpt lat="44.96525" lon="-0.40284">
        <ele>38.59</ele>
        <time>2021-02-06T07:54:28Z</time>
      </trkpt>
      <trkpt lat="44.96525" lon="-0.40284">
        <ele>38.59</ele>
        <time>2021-02-06T07:54:49Z</time>
      </trkpt>
      <trkpt lat="44.96526" lon="-0.40284">
        <ele>38.59</ele>
        <time>2021-02-06T07:55:16Z</time>
      </trkpt>
      <trkpt lat="44.96526" lon="-0.40284">
        <ele>38.59</ele>
        <time>2021-02-06T07:55:45Z</time>
      </trkpt>
      <trkpt lat="44.96525" lon="-0.40283">
        <ele>37.15</ele>
        <time>2021-02-06T07:56:14Z</time>
      </trkpt>
      <trkpt lat="44.96526" lon="-0.40284">
        <ele>37.15</ele>
        <time>2021-02-06T07:56:44Z</time>
      </trkpt>
      <trkpt lat="44.96527" lon="-0.40287">
        <ele>37.15</ele>
        <time>2021-02-06T07:57:17Z</time>
      </trkpt>
      <trkpt lat="44.96526" lon="-0.40285">
        <ele>37.15</ele>
        <time>2021-02-06T07:57:49Z</time>
      </trkpt>
      <trkpt lat="44.96527" lon="-0.40289">
        <ele>37.15</ele>
        <time>2021-02-06T07:58:20Z</time>
      </trkpt>
      <trkpt lat="44.96524" lon="-0.40287">
        <ele>37.15</ele>
        <time>2021-02-06T07:58:48Z</time>
      </trkpt>
      <trkpt lat="44.96524" lon="-0.40285">
        <ele>36.67</ele>
        <time>2021-02-06T07:59:10Z</time>
      </trkpt>
      <trkpt lat="44.96525" lon="-0.40285">
        <ele>36.67</ele>
        <time>2021-02-06T07:59:41Z</time>
      </trkpt>
      <trkpt lat="44.96527" lon="-0.40286">
        <ele>36.19</ele>
        <time>2021-02-06T08:00:19Z</time>
      </trkpt>
      <trkpt lat="44.96524" lon="-0.40286">
        <ele>36.19</ele>
        <time>2021-02-06T08:00:47Z</time>
      </trkpt>
      <trkpt lat="44.96526" lon="-0.40287">
        <ele>35.71</ele>
        <time>2021-02-06T08:01:15Z</time>
      </trkpt>
      <trkpt lat="44.96525" lon="-0.40292">
        <ele>35.71</ele>
        <time>2021-02-06T08:01:27Z</time>
      </trkpt>
      <trkpt lat="44.96532" lon="-0.40303">
        <ele>35.71</ele>
        <time>2021-02-06T08:01:41Z</time>
      </trkpt>
      <trkpt lat="44.9654" lon="-0.40312">
        <ele>35.71</ele>
        <time>2021-02-06T08:01:55Z</time>
      </trkpt>
      <trkpt lat="44.96542" lon="-0.40316">
        <ele>35.71</ele>
        <time>2021-02-06T08:01:58Z</time>
      </trkpt>
      <trkpt lat="44.96548" lon="-0.40328">
        <ele>35.71</ele>
        <time>2021-02-06T08:02:09Z</time>
      </trkpt>
      <trkpt lat="44.9655" lon="-0.40331">
        <ele>35.23</ele>
        <time>2021-02-06T08:02:12Z</time>
      </trkpt>
      <trkpt lat="44.96557" lon="-0.40344">
        <ele>34.74</ele>
        <time>2021-02-06T08:02:23Z</time>
      </trkpt>
      <trkpt lat="44.96573" lon="-0.40375">
        <ele>33.3</ele>
        <time>2021-02-06T08:02:43Z</time>
      </trkpt>
      <trkpt lat="44.96586" lon="-0.40399">
        <ele>31.86</ele>
        <time>2021-02-06T08:03:01Z</time>
      </trkpt>
      <trkpt lat="44.9659" lon="-0.4041">
        <ele>31.86</ele>
        <time>2021-02-06T08:03:10Z</time>
      </trkpt>
      <trkpt lat="44.96603" lon="-0.40434">
        <ele>32.34</ele>
        <time>2021-02-06T08:03:30Z</time>
      </trkpt>
      <trkpt lat="44.96607" lon="-0.40441">
        <ele>30.42</ele>
        <time>2021-02-06T08:03:33Z</time>
      </trkpt>
      <trkpt lat="44.96609" lon="-0.40444">
        <ele>31.86</ele>
        <time>2021-02-06T08:03:35Z</time>
      </trkpt>
      <trkpt lat="44.96609" lon="-0.40451">
        <ele>30.9</ele>
        <time>2021-02-06T08:03:39Z</time>
      </trkpt>
      <trkpt lat="44.96611" lon="-0.40463">
        <ele>32.34</ele>
        <time>2021-02-06T08:03:45Z</time>
      </trkpt>
      <trkpt lat="44.96611" lon="-0.40478">
        <ele>30.42</ele>
        <time>2021-02-06T08:03:54Z</time>
      </trkpt>
      <trkpt lat="44.96613" lon="-0.4048">
        <ele>30.42</ele>
        <time>2021-02-06T08:04:09Z</time>
      </trkpt>
      <trkpt lat="44.96617" lon="-0.4049">
        <ele>31.86</ele>
        <time>2021-02-06T08:04:17Z</time>
      </trkpt>
      <trkpt lat="44.96624" lon="-0.40518">
        <ele>29.94</ele>
        <time>2021-02-06T08:04:33Z</time>
      </trkpt>
      <trkpt lat="44.96621" lon="-0.40524">
        <ele>29.94</ele>
        <time>2021-02-06T08:04:37Z</time>
      </trkpt>
      <trkpt lat="44.96594" lon="-0.40532">
        <ele>28.02</ele>
        <time>2021-02-06T08:04:57Z</time>
      </trkpt>
      <trkpt lat="44.96577" lon="-0.40542">
        <ele>28.5</ele>
        <time>2021-02-06T08:05:11Z</time>
      </trkpt>
      <trkpt lat="44.96573" lon="-0.40544">
        <ele>27.53</ele>
        <time>2021-02-06T08:05:14Z</time>
      </trkpt>
      <trkpt lat="44.96557" lon="-0.40555">
        <ele>27.05</ele>
        <time>2021-02-06T08:05:29Z</time>
      </trkpt>
      <trkpt lat="44.96537" lon="-0.4057">
        <ele>26.09</ele>
        <time>2021-02-06T08:05:46Z</time>
      </trkpt>
      <trkpt lat="44.96513" lon="-0.40586">
        <ele>24.17</ele>
        <time>2021-02-06T08:06:09Z</time>
      </trkpt>
      <trkpt lat="44.96487" lon="-0.40593">
        <ele>21.77</ele>
        <time>2021-02-06T08:06:30Z</time>
      </trkpt>
      <trkpt lat="44.96462" lon="-0.40609">
        <ele>19.84</ele>
        <time>2021-02-06T08:06:49Z</time>
      </trkpt>
      <trkpt lat="44.96439" lon="-0.40621">
        <ele>17.44</ele>
        <time>2021-02-06T08:07:11Z</time>
      </trkpt>
      <trkpt lat="44.9641" lon="-0.40642">
        <ele>16</ele>
        <time>2021-02-06T08:07:34Z</time>
      </trkpt>
      <trkpt lat="44.96406" lon="-0.40644">
        <ele>14.56</ele>
        <time>2021-02-06T08:07:37Z</time>
      </trkpt>
      <trkpt lat="44.96386" lon="-0.40663">
        <ele>12.63</ele>
        <time>2021-02-06T08:07:57Z</time>
      </trkpt>
      <trkpt lat="44.96378" lon="-0.40669">
        <ele>12.63</ele>
        <time>2021-02-06T08:08:05Z</time>
      </trkpt>
      <trkpt lat="44.96357" lon="-0.40685">
        <ele>11.19</ele>
        <time>2021-02-06T08:08:23Z</time>
      </trkpt>
      <trkpt lat="44.96357" lon="-0.40693">
        <ele>10.71</ele>
        <time>2021-02-06T08:08:27Z</time>
      </trkpt>
      <trkpt lat="44.96365" lon="-0.40721">
        <ele>10.71</ele>
        <time>2021-02-06T08:08:44Z</time>
      </trkpt>
      <trkpt lat="44.96366" lon="-0.40725">
        <ele>12.15</ele>
        <time>2021-02-06T08:08:46Z</time>
      </trkpt>
      <trkpt lat="44.96368" lon="-0.4073">
        <ele>10.71</ele>
        <time>2021-02-06T08:08:49Z</time>
      </trkpt>
      <trkpt lat="44.96376" lon="-0.40763">
        <ele>10.71</ele>
        <time>2021-02-06T08:09:10Z</time>
      </trkpt>
      <trkpt lat="44.96373" lon="-0.40781">
        <ele>9.75</ele>
        <time>2021-02-06T08:09:24Z</time>
      </trkpt>
      <trkpt lat="44.96367" lon="-0.40786">
        <ele>8.31</ele>
        <time>2021-02-06T08:09:28Z</time>
      </trkpt>
      <trkpt lat="44.96348" lon="-0.40798">
        <ele>7.83</ele>
        <time>2021-02-06T08:09:42Z</time>
      </trkpt>
      <trkpt lat="44.9634" lon="-0.40809">
        <ele>6.87</ele>
        <time>2021-02-06T08:09:51Z</time>
      </trkpt>
      <trkpt lat="44.96333" lon="-0.40823">
        <ele>6.87</ele>
        <time>2021-02-06T08:10:00Z</time>
      </trkpt>
      <trkpt lat="44.96334" lon="-0.40857">
        <ele>7.35</ele>
        <time>2021-02-06T08:10:20Z</time>
      </trkpt>
      <trkpt lat="44.9634" lon="-0.40875">
        <ele>4.94</ele>
        <time>2021-02-06T08:10:33Z</time>
      </trkpt>
      <trkpt lat="44.9634" lon="-0.40884">
        <ele>5.42</ele>
        <time>2021-02-06T08:10:39Z</time>
      </trkpt>
      <trkpt lat="44.96352" lon="-0.40903">
        <ele>4.94</ele>
        <time>2021-02-06T08:10:55Z</time>
      </trkpt>
      <trkpt lat="44.96354" lon="-0.40906">
        <ele>5.91</ele>
        <time>2021-02-06T08:10:57Z</time>
      </trkpt>
      <trkpt lat="44.96356" lon="-0.40908">
        <ele>4.94</ele>
        <time>2021-02-06T08:10:59Z</time>
      </trkpt>
      <trkpt lat="44.9637" lon="-0.40926">
        <ele>5.91</ele>
        <time>2021-02-06T08:11:16Z</time>
      </trkpt>
      <trkpt lat="44.96371" lon="-0.40928">
        <ele>4.46</ele>
        <time>2021-02-06T08:11:18Z</time>
      </trkpt>
      <trkpt lat="44.96384" lon="-0.40946">
        <ele>3.02</ele>
        <time>2021-02-06T08:11:33Z</time>
      </trkpt>
      <trkpt lat="44.96394" lon="-0.40962">
        <ele>4.46</ele>
        <time>2021-02-06T08:11:46Z</time>
      </trkpt>
      <trkpt lat="44.96407" lon="-0.40984">
        <ele>3.98</ele>
        <time>2021-02-06T08:12:03Z</time>
      </trkpt>
      <trkpt lat="44.96419" lon="-0.41003">
        <ele>3.98</ele>
        <time>2021-02-06T08:12:23Z</time>
      </trkpt>
      <trkpt lat="44.96421" lon="-0.41025">
        <ele>3.02</ele>
        <time>2021-02-06T08:12:41Z</time>
      </trkpt>
      <trkpt lat="44.96407" lon="-0.4103">
        <ele>3.98</ele>
        <time>2021-02-06T08:12:54Z</time>
      </trkpt>
      <trkpt lat="44.96405" lon="-0.41032">
        <ele>4.94</ele>
        <time>2021-02-06T08:12:56Z</time>
      </trkpt>
      <trkpt lat="44.96405" lon="-0.4104">
        <ele>2.54</ele>
        <time>2021-02-06T08:13:10Z</time>
      </trkpt>
      <trkpt lat="44.96402" lon="-0.41042">
        <ele>3.5</ele>
        <time>2021-02-06T08:13:12Z</time>
      </trkpt>
      <trkpt lat="44.96383" lon="-0.41049">
        <ele>3.02</ele>
        <time>2021-02-06T08:13:25Z</time>
      </trkpt>
      <trkpt lat="44.96358" lon="-0.41058">
        <ele>5.91</ele>
        <time>2021-02-06T08:13:46Z</time>
      </trkpt>
      <trkpt lat="44.96353" lon="-0.4106">
        <ele>6.87</ele>
        <time>2021-02-06T08:13:50Z</time>
      </trkpt>
      <trkpt lat="44.96339" lon="-0.41062">
        <ele>4.94</ele>
        <time>2021-02-06T08:14:01Z</time>
      </trkpt>
      <trkpt lat="44.96325" lon="-0.41061">
        <ele>6.87</ele>
        <time>2021-02-06T08:14:11Z</time>
      </trkpt>
      <trkpt lat="44.96321" lon="-0.41061">
        <ele>4.94</ele>
        <time>2021-02-06T08:14:14Z</time>
      </trkpt>
      <trkpt lat="44.96318" lon="-0.41061">
        <ele>6.39</ele>
        <time>2021-02-06T08:14:16Z</time>
      </trkpt>
      <trkpt lat="44.96314" lon="-0.4106">
        <ele>4.46</ele>
        <time>2021-02-06T08:14:19Z</time>
      </trkpt>
      <trkpt lat="44.96312" lon="-0.41059">
        <ele>5.91</ele>
        <time>2021-02-06T08:14:21Z</time>
      </trkpt>
      <trkpt lat="44.96308" lon="-0.4106">
        <ele>4.46</ele>
        <time>2021-02-06T08:14:24Z</time>
      </trkpt>
      <trkpt lat="44.96298" lon="-0.41061">
        <ele>3.98</ele>
        <time>2021-02-06T08:14:33Z</time>
      </trkpt>
      <trkpt lat="44.96296" lon="-0.41062">
        <ele>3.98</ele>
        <time>2021-02-06T08:14:36Z</time>
      </trkpt>
      <trkpt lat="44.9626" lon="-0.41055">
        <ele>2.06</ele>
        <time>2021-02-06T08:14:59Z</time>
      </trkpt>
      <trkpt lat="44.96249" lon="-0.41054">
        <ele>0.62</ele>
        <time>2021-02-06T08:15:09Z</time>
      </trkpt>
      <trkpt lat="44.96237" lon="-0.41053">
        <ele>0.14</ele>
        <time>2021-02-06T08:15:17Z</time>
      </trkpt>
      <trkpt lat="44.96212" lon="-0.41056">
        <ele>0.14</ele>
        <time>2021-02-06T08:15:36Z</time>
      </trkpt>
      <trkpt lat="44.96192" lon="-0.41058">
        <ele>1.1</ele>
        <time>2021-02-06T08:15:52Z</time>
      </trkpt>
      <trkpt lat="44.96189" lon="-0.41058">
        <ele>-0.34</ele>
        <time>2021-02-06T08:15:55Z</time>
      </trkpt>
      <trkpt lat="44.96178" lon="-0.41058">
        <ele>0.62</ele>
        <time>2021-02-06T08:16:03Z</time>
      </trkpt>
      <trkpt lat="44.96174" lon="-0.4106">
        <ele>-0.82</ele>
        <time>2021-02-06T08:16:06Z</time>
      </trkpt>
      <trkpt lat="44.96172" lon="-0.4106">
        <ele>1.1</ele>
        <time>2021-02-06T08:16:08Z</time>
      </trkpt>
      <trkpt lat="44.96153" lon="-0.4106">
        <ele>1.1</ele>
        <time>2021-02-06T08:16:24Z</time>
      </trkpt>
      <trkpt lat="44.96141" lon="-0.41062">
        <ele>-0.34</ele>
        <time>2021-02-06T08:16:33Z</time>
      </trkpt>
      <trkpt lat="44.96126" lon="-0.41065">
        <ele>1.1</ele>
        <time>2021-02-06T08:16:44Z</time>
      </trkpt>
      <trkpt lat="44.96122" lon="-0.41066">
        <ele>0.14</ele>
        <time>2021-02-06T08:16:47Z</time>
      </trkpt>
      <trkpt lat="44.96119" lon="-0.41067">
        <ele>1.58</ele>
        <time>2021-02-06T08:16:49Z</time>
      </trkpt>
      <trkpt lat="44.96115" lon="-0.41067">
        <ele>-0.34</ele>
        <time>2021-02-06T08:16:52Z</time>
      </trkpt>
      <trkpt lat="44.96113" lon="-0.41067">
        <ele>1.1</ele>
        <time>2021-02-06T08:16:54Z</time>
      </trkpt>
      <trkpt lat="44.96095" lon="-0.41077">
        <ele>0.14</ele>
        <time>2021-02-06T08:17:10Z</time>
      </trkpt>
      <trkpt lat="44.96086" lon="-0.41082">
        <ele>0.62</ele>
        <time>2021-02-06T08:17:20Z</time>
      </trkpt>
      <trkpt lat="44.96084" lon="-0.41083">
        <ele>1.58</ele>
        <time>2021-02-06T08:17:22Z</time>
      </trkpt>
      <trkpt lat="44.96066" lon="-0.41094">
        <ele>1.1</ele>
        <time>2021-02-06T08:17:38Z</time>
      </trkpt>
      <trkpt lat="44.96063" lon="-0.41096">
        <ele>3.02</ele>
        <time>2021-02-06T08:17:40Z</time>
      </trkpt>
      <trkpt lat="44.96047" lon="-0.41104">
        <ele>3.02</ele>
        <time>2021-02-06T08:17:51Z</time>
      </trkpt>
      <trkpt lat="44.96022" lon="-0.41118">
        <ele>2.54</ele>
        <time>2021-02-06T08:18:11Z</time>
      </trkpt>
      <trkpt lat="44.9602" lon="-0.41119">
        <ele>2.54</ele>
        <time>2021-02-06T08:18:12Z</time>
      </trkpt>
      <trkpt lat="44.96019" lon="-0.41121">
        <ele>3.5</ele>
        <time>2021-02-06T08:18:14Z</time>
      </trkpt>
      <trkpt lat="44.96003" lon="-0.41141">
        <ele>3.02</ele>
        <time>2021-02-06T08:18:34Z</time>
      </trkpt>
      <trkpt lat="44.96004" lon="-0.41144">
        <ele>4.46</ele>
        <time>2021-02-06T08:18:36Z</time>
      </trkpt>
      <trkpt lat="44.96005" lon="-0.41147">
        <ele>3.02</ele>
        <time>2021-02-06T08:18:38Z</time>
      </trkpt>
      <trkpt lat="44.96006" lon="-0.4115">
        <ele>4.46</ele>
        <time>2021-02-06T08:18:40Z</time>
      </trkpt>
      <trkpt lat="44.96011" lon="-0.41162">
        <ele>2.54</ele>
        <time>2021-02-06T08:18:48Z</time>
      </trkpt>
      <trkpt lat="44.96012" lon="-0.41165">
        <ele>3.98</ele>
        <time>2021-02-06T08:18:50Z</time>
      </trkpt>
      <trkpt lat="44.96012" lon="-0.41169">
        <ele>2.54</ele>
        <time>2021-02-06T08:18:52Z</time>
      </trkpt>
      <trkpt lat="44.96013" lon="-0.41172">
        <ele>3.5</ele>
        <time>2021-02-06T08:18:54Z</time>
      </trkpt>
      <trkpt lat="44.96014" lon="-0.41175">
        <ele>2.54</ele>
        <time>2021-02-06T08:18:56Z</time>
      </trkpt>
      <trkpt lat="44.96014" lon="-0.41177">
        <ele>3.98</ele>
        <time>2021-02-06T08:18:58Z</time>
      </trkpt>
      <trkpt lat="44.96025" lon="-0.41214">
        <ele>1.58</ele>
        <time>2021-02-06T08:19:20Z</time>
      </trkpt>
      <trkpt lat="44.96035" lon="-0.41244">
        <ele>1.1</ele>
        <time>2021-02-06T08:19:39Z</time>
      </trkpt>
      <trkpt lat="44.96036" lon="-0.41246">
        <ele>1.1</ele>
        <time>2021-02-06T08:19:40Z</time>
      </trkpt>
      <trkpt lat="44.96041" lon="-0.41247">
        <ele>0.62</ele>
        <time>2021-02-06T08:19:44Z</time>
      </trkpt>
      <trkpt lat="44.96051" lon="-0.41252">
        <ele>1.58</ele>
        <time>2021-02-06T08:19:58Z</time>
      </trkpt>
      <trkpt lat="44.96052" lon="-0.41255">
        <ele>-0.34</ele>
        <time>2021-02-06T08:20:01Z</time>
      </trkpt>
      <trkpt lat="44.96055" lon="-0.41261">
        <ele>-0.34</ele>
        <time>2021-02-06T08:20:05Z</time>
      </trkpt>
      <trkpt lat="44.96059" lon="-0.41271">
        <ele>0.62</ele>
        <time>2021-02-06T08:20:11Z</time>
      </trkpt>
      <trkpt lat="44.96067" lon="-0.41296">
        <ele>-2.27</ele>
        <time>2021-02-06T08:20:28Z</time>
      </trkpt>
      <trkpt lat="44.96074" lon="-0.41314">
        <ele>-0.34</ele>
        <time>2021-02-06T08:20:39Z</time>
      </trkpt>
      <trkpt lat="44.96075" lon="-0.41317">
        <ele>-1.79</ele>
        <time>2021-02-06T08:20:41Z</time>
      </trkpt>
      <trkpt lat="44.9608" lon="-0.41336">
        <ele>-2.75</ele>
        <time>2021-02-06T08:20:54Z</time>
      </trkpt>
      <trkpt lat="44.9608" lon="-0.41345">
        <ele>-2.75</ele>
        <time>2021-02-06T08:20:59Z</time>
      </trkpt>
      <trkpt lat="44.96069" lon="-0.4136">
        <ele>-0.82</ele>
        <time>2021-02-06T08:21:14Z</time>
      </trkpt>
      <trkpt lat="44.96067" lon="-0.41363">
        <ele>-2.27</ele>
        <time>2021-02-06T08:21:16Z</time>
      </trkpt>
      <trkpt lat="44.96057" lon="-0.41377">
        <ele>-2.75</ele>
        <time>2021-02-06T08:21:30Z</time>
      </trkpt>
      <trkpt lat="44.96054" lon="-0.41381">
        <ele>-2.27</ele>
        <time>2021-02-06T08:21:51Z</time>
      </trkpt>
      <trkpt lat="44.96054" lon="-0.41388">
        <ele>-2.27</ele>
        <time>2021-02-06T08:22:15Z</time>
      </trkpt>
      <trkpt lat="44.96051" lon="-0.41392">
        <ele>-2.27</ele>
        <time>2021-02-06T08:22:34Z</time>
      </trkpt>
      <trkpt lat="44.96049" lon="-0.41382">
        <ele>-0.34</ele>
        <time>2021-02-06T08:22:52Z</time>
      </trkpt>
      <trkpt lat="44.96049" lon="-0.4138">
        <ele>-1.79</ele>
        <time>2021-02-06T08:22:57Z</time>
      </trkpt>
      <trkpt lat="44.96048" lon="-0.4138">
        <ele>-1.3</ele>
        <time>2021-02-06T08:23:03Z</time>
      </trkpt>
      <trkpt lat="44.96047" lon="-0.41383">
        <ele>-2.75</ele>
        <time>2021-02-06T08:23:05Z</time>
      </trkpt>
      <trkpt lat="44.96041" lon="-0.41392">
        <ele>-0.34</ele>
        <time>2021-02-06T08:23:12Z</time>
      </trkpt>
      <trkpt lat="44.9604" lon="-0.41395">
        <ele>-1.79</ele>
        <time>2021-02-06T08:23:14Z</time>
      </trkpt>
      <trkpt lat="44.96028" lon="-0.41412">
        <ele>-0.82</ele>
        <time>2021-02-06T08:23:30Z</time>
      </trkpt>
      <trkpt lat="44.96025" lon="-0.41416">
        <ele>-2.27</ele>
        <time>2021-02-06T08:23:33Z</time>
      </trkpt>
      <trkpt lat="44.96022" lon="-0.41423">
        <ele>-1.79</ele>
        <time>2021-02-06T08:23:47Z</time>
      </trkpt>
      <trkpt lat="44.96025" lon="-0.41434">
        <ele>-2.75</ele>
        <time>2021-02-06T08:24:02Z</time>
      </trkpt>
      <trkpt lat="44.9602" lon="-0.41444">
        <ele>-2.27</ele>
        <time>2021-02-06T08:24:12Z</time>
      </trkpt>
      <trkpt lat="44.96019" lon="-0.41446">
        <ele>-3.23</ele>
        <time>2021-02-06T08:24:14Z</time>
      </trkpt>
      <trkpt lat="44.96018" lon="-0.41449">
        <ele>-1.79</ele>
        <time>2021-02-06T08:24:16Z</time>
      </trkpt>
      <trkpt lat="44.96005" lon="-0.41469">
        <ele>-1.79</ele>
        <time>2021-02-06T08:24:34Z</time>
      </trkpt>
      <trkpt lat="44.95999" lon="-0.41486">
        <ele>-3.23</ele>
        <time>2021-02-06T08:24:53Z</time>
      </trkpt>
      <trkpt lat="44.95997" lon="-0.41489">
        <ele>-1.79</ele>
        <time>2021-02-06T08:24:55Z</time>
      </trkpt>
      <trkpt lat="44.95992" lon="-0.41501">
        <ele>-1.79</ele>
        <time>2021-02-06T08:25:07Z</time>
      </trkpt>
      <trkpt lat="44.95986" lon="-0.41519">
        <ele>-3.23</ele>
        <time>2021-02-06T08:25:17Z</time>
      </trkpt>
      <trkpt lat="44.95976" lon="-0.41544">
        <ele>-2.75</ele>
        <time>2021-02-06T08:25:37Z</time>
      </trkpt>
      <trkpt lat="44.95967" lon="-0.41563">
        <ele>-1.79</ele>
        <time>2021-02-06T08:25:57Z</time>
      </trkpt>
      <trkpt lat="44.9596" lon="-0.4158">
        <ele>-1.79</ele>
        <time>2021-02-06T08:26:09Z</time>
      </trkpt>
      <trkpt lat="44.95959" lon="-0.41582">
        <ele>-3.23</ele>
        <time>2021-02-06T08:26:11Z</time>
      </trkpt>
      <trkpt lat="44.95956" lon="-0.41604">
        <ele>-1.79</ele>
        <time>2021-02-06T08:26:27Z</time>
      </trkpt>
      <trkpt lat="44.95951" lon="-0.4161">
        <ele>-1.79</ele>
        <time>2021-02-06T08:26:34Z</time>
      </trkpt>
      <trkpt lat="44.9595" lon="-0.41611">
        <ele>-3.23</ele>
        <time>2021-02-06T08:26:36Z</time>
      </trkpt>
      <trkpt lat="44.95942" lon="-0.41641">
        <ele>-3.23</ele>
        <time>2021-02-06T08:26:57Z</time>
      </trkpt>
      <trkpt lat="44.95941" lon="-0.41644">
        <ele>-1.79</ele>
        <time>2021-02-06T08:26:59Z</time>
      </trkpt>
      <trkpt lat="44.95938" lon="-0.41655">
        <ele>-1.3</ele>
        <time>2021-02-06T08:27:06Z</time>
      </trkpt>
      <trkpt lat="44.95938" lon="-0.41658">
        <ele>-2.75</ele>
        <time>2021-02-06T08:27:08Z</time>
      </trkpt>
      <trkpt lat="44.95933" lon="-0.41679">
        <ele>-1.3</ele>
        <time>2021-02-06T08:27:26Z</time>
      </trkpt>
      <trkpt lat="44.95926" lon="-0.41688">
        <ele>-1.3</ele>
        <time>2021-02-06T08:27:33Z</time>
      </trkpt>
      <trkpt lat="44.95924" lon="-0.41695">
        <ele>-3.23</ele>
        <time>2021-02-06T08:27:38Z</time>
      </trkpt>
      <trkpt lat="44.95917" lon="-0.41719">
        <ele>-1.79</ele>
        <time>2021-02-06T08:27:58Z</time>
      </trkpt>
      <trkpt lat="44.95908" lon="-0.41736">
        <ele>-1.3</ele>
        <time>2021-02-06T08:28:16Z</time>
      </trkpt>
      <trkpt lat="44.95908" lon="-0.41736">
        <ele>-7.07</ele>
        <time>2021-02-06T08:28:17Z</time>
      </trkpt>
      <trkpt lat="44.95908" lon="-0.41736">
        <ele>2.06</ele>
        <time>2021-02-06T08:28:18Z</time>
      </trkpt>
      <trkpt lat="44.95908" lon="-0.41738">
        <ele>-1.79</ele>
        <time>2021-02-06T08:28:20Z</time>
      </trkpt>
      <trkpt lat="44.95908" lon="-0.4174">
        <ele>-1.79</ele>
        <time>2021-02-06T08:28:21Z</time>
      </trkpt>
      <trkpt lat="44.95905" lon="-0.41755">
        <ele>-2.75</ele>
        <time>2021-02-06T08:28:32Z</time>
      </trkpt>
      <trkpt lat="44.95898" lon="-0.41764">
        <ele>-3.23</ele>
        <time>2021-02-06T08:28:40Z</time>
      </trkpt>
      <trkpt lat="44.95897" lon="-0.41767">
        <ele>-1.3</ele>
        <time>2021-02-06T08:28:42Z</time>
      </trkpt>
      <trkpt lat="44.95897" lon="-0.41778">
        <ele>-1.79</ele>
        <time>2021-02-06T08:29:01Z</time>
      </trkpt>
      <trkpt lat="44.95898" lon="-0.4178">
        <ele>-3.23</ele>
        <time>2021-02-06T08:29:03Z</time>
      </trkpt>
      <trkpt lat="44.95895" lon="-0.41793">
        <ele>-1.3</ele>
        <time>2021-02-06T08:29:13Z</time>
      </trkpt>
      <trkpt lat="44.9589" lon="-0.418">
        <ele>-3.23</ele>
        <time>2021-02-06T08:29:18Z</time>
      </trkpt>
      <trkpt lat="44.95888" lon="-0.41802">
        <ele>-1.79</ele>
        <time>2021-02-06T08:29:20Z</time>
      </trkpt>
      <trkpt lat="44.95886" lon="-0.41803">
        <ele>-3.23</ele>
        <time>2021-02-06T08:29:22Z</time>
      </trkpt>
      <trkpt lat="44.95884" lon="-0.41805">
        <ele>-1.3</ele>
        <time>2021-02-06T08:29:24Z</time>
      </trkpt>
      <trkpt lat="44.9588" lon="-0.41813">
        <ele>-2.75</ele>
        <time>2021-02-06T08:29:30Z</time>
      </trkpt>
      <trkpt lat="44.9588" lon="-0.41815">
        <ele>-1.79</ele>
        <time>2021-02-06T08:29:32Z</time>
      </trkpt>
      <trkpt lat="44.95873" lon="-0.41826">
        <ele>-1.3</ele>
        <time>2021-02-06T08:29:43Z</time>
      </trkpt>
      <trkpt lat="44.95872" lon="-0.41847">
        <ele>-2.75</ele>
        <time>2021-02-06T08:30:00Z</time>
      </trkpt>
      <trkpt lat="44.95861" lon="-0.41867">
        <ele>-1.3</ele>
        <time>2021-02-06T08:30:18Z</time>
      </trkpt>
      <trkpt lat="44.95858" lon="-0.41877">
        <ele>-0.82</ele>
        <time>2021-02-06T08:30:27Z</time>
      </trkpt>
      <trkpt lat="44.95857" lon="-0.41883">
        <ele>-2.75</ele>
        <time>2021-02-06T08:30:32Z</time>
      </trkpt>
      <trkpt lat="44.95856" lon="-0.41886">
        <ele>-2.27</ele>
        <time>2021-02-06T08:30:35Z</time>
      </trkpt>
      <trkpt lat="44.95854" lon="-0.4189">
        <ele>-0.82</ele>
        <time>2021-02-06T08:30:37Z</time>
      </trkpt>
      <trkpt lat="44.95849" lon="-0.41896">
        <ele>-1.79</ele>
        <time>2021-02-06T08:30:42Z</time>
      </trkpt>
      <trkpt lat="44.95843" lon="-0.41909">
        <ele>-2.27</ele>
        <time>2021-02-06T08:30:54Z</time>
      </trkpt>
      <trkpt lat="44.9584" lon="-0.41915">
        <ele>-0.82</ele>
        <time>2021-02-06T08:31:00Z</time>
      </trkpt>
      <trkpt lat="44.9584" lon="-0.41917">
        <ele>-2.27</ele>
        <time>2021-02-06T08:31:02Z</time>
      </trkpt>
      <trkpt lat="44.95832" lon="-0.41941">
        <ele>-0.82</ele>
        <time>2021-02-06T08:31:22Z</time>
      </trkpt>
      <trkpt lat="44.95831" lon="-0.41944">
        <ele>-2.27</ele>
        <time>2021-02-06T08:31:25Z</time>
      </trkpt>
      <trkpt lat="44.9583" lon="-0.41947">
        <ele>-0.82</ele>
        <time>2021-02-06T08:31:27Z</time>
      </trkpt>
      <trkpt lat="44.95824" lon="-0.4196">
        <ele>-0.82</ele>
        <time>2021-02-06T08:31:48Z</time>
      </trkpt>
      <trkpt lat="44.95823" lon="-0.41962">
        <ele>-0.82</ele>
        <time>2021-02-06T08:31:54Z</time>
      </trkpt>
      <trkpt lat="44.95822" lon="-0.41964">
        <ele>-2.27</ele>
        <time>2021-02-06T08:31:56Z</time>
      </trkpt>
      <trkpt lat="44.95805" lon="-0.41973">
        <ele>-2.27</ele>
        <time>2021-02-06T08:32:14Z</time>
      </trkpt>
      <trkpt lat="44.95795" lon="-0.41982">
        <ele>-1.79</ele>
        <time>2021-02-06T08:32:36Z</time>
      </trkpt>
      <trkpt lat="44.95774" lon="-0.41993">
        <ele>-1.3</ele>
        <time>2021-02-06T08:32:57Z</time>
      </trkpt>
      <trkpt lat="44.95761" lon="-0.41999">
        <ele>-0.34</ele>
        <time>2021-02-06T08:33:14Z</time>
      </trkpt>
      <trkpt lat="44.95755" lon="-0.42004">
        <ele>-4.19</ele>
        <time>2021-02-06T08:33:33Z</time>
      </trkpt>
      <trkpt lat="44.95755" lon="-0.42004">
        <ele>0.62</ele>
        <time>2021-02-06T08:33:34Z</time>
      </trkpt>
      <trkpt lat="44.95742" lon="-0.42011">
        <ele>-1.79</ele>
        <time>2021-02-06T08:33:58Z</time>
      </trkpt>
      <trkpt lat="44.95734" lon="-0.42015">
        <ele>-0.34</ele>
        <time>2021-02-06T08:34:04Z</time>
      </trkpt>
      <trkpt lat="44.95728" lon="-0.42018">
        <ele>-0.34</ele>
        <time>2021-02-06T08:34:10Z</time>
      </trkpt>
      <trkpt lat="44.95718" lon="-0.42029">
        <ele>-1.79</ele>
        <time>2021-02-06T08:34:22Z</time>
      </trkpt>
      <trkpt lat="44.95701" lon="-0.42038">
        <ele>-0.34</ele>
        <time>2021-02-06T08:34:47Z</time>
      </trkpt>
      <trkpt lat="44.95698" lon="-0.42041">
        <ele>-1.79</ele>
        <time>2021-02-06T08:34:55Z</time>
      </trkpt>
      <trkpt lat="44.95696" lon="-0.42043">
        <ele>-0.34</ele>
        <time>2021-02-06T08:34:57Z</time>
      </trkpt>
      <trkpt lat="44.95691" lon="-0.42043">
        <ele>-0.34</ele>
        <time>2021-02-06T08:35:01Z</time>
      </trkpt>
      <trkpt lat="44.95687" lon="-0.42044">
        <ele>-1.79</ele>
        <time>2021-02-06T08:35:05Z</time>
      </trkpt>
      <trkpt lat="44.95666" lon="-0.4206">
        <ele>-0.34</ele>
        <time>2021-02-06T08:35:28Z</time>
      </trkpt>
      <trkpt lat="44.95659" lon="-0.42061">
        <ele>-0.34</ele>
        <time>2021-02-06T08:35:33Z</time>
      </trkpt>
      <trkpt lat="44.95646" lon="-0.42068">
        <ele>0.14</ele>
        <time>2021-02-06T08:35:50Z</time>
      </trkpt>
      <trkpt lat="44.95635" lon="-0.42072">
        <ele>-1.3</ele>
        <time>2021-02-06T08:36:03Z</time>
      </trkpt>
      <trkpt lat="44.95632" lon="-0.42071">
        <ele>0.14</ele>
        <time>2021-02-06T08:36:05Z</time>
      </trkpt>
      <trkpt lat="44.95629" lon="-0.42068">
        <ele>-2.27</ele>
        <time>2021-02-06T08:36:08Z</time>
      </trkpt>
      <trkpt lat="44.95628" lon="-0.42069">
        <ele>-0.34</ele>
        <time>2021-02-06T08:36:09Z</time>
      </trkpt>
      <trkpt lat="44.95626" lon="-0.4206">
        <ele>-0.34</ele>
        <time>2021-02-06T08:36:26Z</time>
      </trkpt>
      <trkpt lat="44.95621" lon="-0.42056">
        <ele>-1.79</ele>
        <time>2021-02-06T08:36:44Z</time>
      </trkpt>
      <trkpt lat="44.95623" lon="-0.42058">
        <ele>-0.82</ele>
        <time>2021-02-06T08:37:15Z</time>
      </trkpt>
      <trkpt lat="44.95625" lon="-0.42053">
        <ele>-0.82</ele>
        <time>2021-02-06T08:37:42Z</time>
      </trkpt>
      <trkpt lat="44.95626" lon="-0.42048">
        <ele>-0.82</ele>
        <time>2021-02-06T08:38:14Z</time>
      </trkpt>
      <trkpt lat="44.9563" lon="-0.42045">
        <ele>-0.34</ele>
        <time>2021-02-06T08:38:42Z</time>
      </trkpt>
      <trkpt lat="44.9563" lon="-0.42044">
        <ele>-1.3</ele>
        <time>2021-02-06T08:38:46Z</time>
      </trkpt>
      <trkpt lat="44.95627" lon="-0.42048">
        <ele>-1.3</ele>
        <time>2021-02-06T08:39:00Z</time>
      </trkpt>
      <trkpt lat="44.95631" lon="-0.42042">
        <ele>-1.79</ele>
        <time>2021-02-06T08:39:28Z</time>
      </trkpt>
      <trkpt lat="44.95624" lon="-0.42045">
        <ele>-1.79</ele>
        <time>2021-02-06T08:39:56Z</time>
      </trkpt>
      <trkpt lat="44.95623" lon="-0.42048">
        <ele>-1.79</ele>
        <time>2021-02-06T08:40:22Z</time>
      </trkpt>
      <trkpt lat="44.95625" lon="-0.42051">
        <ele>-0.34</ele>
        <time>2021-02-06T08:40:48Z</time>
      </trkpt>
      <trkpt lat="44.95627" lon="-0.42038">
        <ele>-1.3</ele>
        <time>2021-02-06T08:41:24Z</time>
      </trkpt>
      <trkpt lat="44.95626" lon="-0.4204">
        <ele>0.14</ele>
        <time>2021-02-06T08:41:30Z</time>
      </trkpt>
      <trkpt lat="44.95629" lon="-0.42041">
        <ele>-1.79</ele>
        <time>2021-02-06T08:42:05Z</time>
      </trkpt>
      <trkpt lat="44.95626" lon="-0.42043">
        <ele>0.14</ele>
        <time>2021-02-06T08:42:28Z</time>
      </trkpt>
      <trkpt lat="44.95626" lon="-0.42031">
        <ele>-1.3</ele>
        <time>2021-02-06T08:42:40Z</time>
      </trkpt>
      <trkpt lat="44.9562" lon="-0.42011">
        <ele>-0.34</ele>
        <time>2021-02-06T08:42:57Z</time>
      </trkpt>
      <trkpt lat="44.95613" lon="-0.41992">
        <ele>-1.3</ele>
        <time>2021-02-06T08:43:12Z</time>
      </trkpt>
      <trkpt lat="44.95609" lon="-0.41987">
        <ele>0.14</ele>
        <time>2021-02-06T08:43:17Z</time>
      </trkpt>
      <trkpt lat="44.95601" lon="-0.41976">
        <ele>0.14</ele>
        <time>2021-02-06T08:43:30Z</time>
      </trkpt>
      <trkpt lat="44.95593" lon="-0.41968">
        <ele>-0.82</ele>
        <time>2021-02-06T08:43:39Z</time>
      </trkpt>
      <trkpt lat="44.95587" lon="-0.41959">
        <ele>0.14</ele>
        <time>2021-02-06T08:43:46Z</time>
      </trkpt>
      <trkpt lat="44.95585" lon="-0.41957">
        <ele>-0.82</ele>
        <time>2021-02-06T08:43:48Z</time>
      </trkpt>
      <trkpt lat="44.9557" lon="-0.41935">
        <ele>0.62</ele>
        <time>2021-02-06T08:44:07Z</time>
      </trkpt>
      <trkpt lat="44.95567" lon="-0.4193">
        <ele>0.62</ele>
        <time>2021-02-06T08:44:11Z</time>
      </trkpt>
      <trkpt lat="44.95558" lon="-0.4192">
        <ele>-0.82</ele>
        <time>2021-02-06T08:44:20Z</time>
      </trkpt>
      <trkpt lat="44.95556" lon="-0.41917">
        <ele>0.62</ele>
        <time>2021-02-06T08:44:22Z</time>
      </trkpt>
      <trkpt lat="44.95555" lon="-0.41915">
        <ele>-0.82</ele>
        <time>2021-02-06T08:44:24Z</time>
      </trkpt>
      <trkpt lat="44.95551" lon="-0.4191">
        <ele>0.62</ele>
        <time>2021-02-06T08:44:29Z</time>
      </trkpt>
      <trkpt lat="44.95547" lon="-0.41905">
        <ele>0.62</ele>
        <time>2021-02-06T08:44:33Z</time>
      </trkpt>
      <trkpt lat="44.95529" lon="-0.41885">
        <ele>1.1</ele>
        <time>2021-02-06T08:44:51Z</time>
      </trkpt>
      <trkpt lat="44.95515" lon="-0.41866">
        <ele>0.14</ele>
        <time>2021-02-06T08:45:07Z</time>
      </trkpt>
      <trkpt lat="44.95514" lon="-0.41864">
        <ele>1.1</ele>
        <time>2021-02-06T08:45:09Z</time>
      </trkpt>
      <trkpt lat="44.955" lon="-0.41846">
        <ele>1.1</ele>
        <time>2021-02-06T08:45:26Z</time>
      </trkpt>
      <trkpt lat="44.95486" lon="-0.4183">
        <ele>1.58</ele>
        <time>2021-02-06T08:45:42Z</time>
      </trkpt>
      <trkpt lat="44.95472" lon="-0.41816">
        <ele>0.14</ele>
        <time>2021-02-06T08:45:56Z</time>
      </trkpt>
      <trkpt lat="44.9547" lon="-0.41813">
        <ele>1.58</ele>
        <time>2021-02-06T08:45:58Z</time>
      </trkpt>
      <trkpt lat="44.95469" lon="-0.41812">
        <ele>0.14</ele>
        <time>2021-02-06T08:46:00Z</time>
      </trkpt>
      <trkpt lat="44.95461" lon="-0.41805">
        <ele>1.58</ele>
        <time>2021-02-06T08:46:08Z</time>
      </trkpt>
      <trkpt lat="44.95443" lon="-0.41784">
        <ele>1.58</ele>
        <time>2021-02-06T08:46:26Z</time>
      </trkpt>
      <trkpt lat="44.95431" lon="-0.41768">
        <ele>2.06</ele>
        <time>2021-02-06T08:46:42Z</time>
      </trkpt>
      <trkpt lat="44.95417" lon="-0.41753">
        <ele>2.06</ele>
        <time>2021-02-06T08:46:57Z</time>
      </trkpt>
      <trkpt lat="44.95407" lon="-0.41738">
        <ele>0.62</ele>
        <time>2021-02-06T08:47:09Z</time>
      </trkpt>
      <trkpt lat="44.95406" lon="-0.41736">
        <ele>2.06</ele>
        <time>2021-02-06T08:47:11Z</time>
      </trkpt>
      <trkpt lat="44.95403" lon="-0.41732">
        <ele>1.58</ele>
        <time>2021-02-06T08:47:16Z</time>
      </trkpt>
      <trkpt lat="44.9539" lon="-0.41716">
        <ele>3.02</ele>
        <time>2021-02-06T08:47:31Z</time>
      </trkpt>
      <trkpt lat="44.95384" lon="-0.41709">
        <ele>3.02</ele>
        <time>2021-02-06T08:47:38Z</time>
      </trkpt>
      <trkpt lat="44.95376" lon="-0.41702">
        <ele>3.5</ele>
        <time>2021-02-06T08:47:52Z</time>
      </trkpt>
      <trkpt lat="44.95369" lon="-0.41713">
        <ele>3.98</ele>
        <time>2021-02-06T08:48:03Z</time>
      </trkpt>
      <trkpt lat="44.95361" lon="-0.41727">
        <ele>2.54</ele>
        <time>2021-02-06T08:48:12Z</time>
      </trkpt>
      <trkpt lat="44.9535" lon="-0.4175">
        <ele>2.54</ele>
        <time>2021-02-06T08:48:30Z</time>
      </trkpt>
      <trkpt lat="44.9534" lon="-0.41769">
        <ele>2.06</ele>
        <time>2021-02-06T08:48:41Z</time>
      </trkpt>
      <trkpt lat="44.95328" lon="-0.41798">
        <ele>2.06</ele>
        <time>2021-02-06T08:48:59Z</time>
      </trkpt>
      <trkpt lat="44.95316" lon="-0.41825">
        <ele>1.58</ele>
        <time>2021-02-06T08:49:17Z</time>
      </trkpt>
      <trkpt lat="44.95297" lon="-0.41849">
        <ele>1.58</ele>
        <time>2021-02-06T08:49:37Z</time>
      </trkpt>
      <trkpt lat="44.95273" lon="-0.41852">
        <ele>1.1</ele>
        <time>2021-02-06T08:49:55Z</time>
      </trkpt>
      <trkpt lat="44.95248" lon="-0.41852">
        <ele>0.62</ele>
        <time>2021-02-06T08:50:13Z</time>
      </trkpt>
      <trkpt lat="44.95246" lon="-0.41851">
        <ele>2.06</ele>
        <time>2021-02-06T08:50:15Z</time>
      </trkpt>
      <trkpt lat="44.95224" lon="-0.41855">
        <ele>2.06</ele>
        <time>2021-02-06T08:50:33Z</time>
      </trkpt>
      <trkpt lat="44.95198" lon="-0.41872">
        <ele>2.06</ele>
        <time>2021-02-06T08:50:55Z</time>
      </trkpt>
      <trkpt lat="44.95181" lon="-0.41881">
        <ele>2.06</ele>
        <time>2021-02-06T08:51:09Z</time>
      </trkpt>
      <trkpt lat="44.95178" lon="-0.41882">
        <ele>1.1</ele>
        <time>2021-02-06T08:51:11Z</time>
      </trkpt>
      <trkpt lat="44.9517" lon="-0.41888">
        <ele>2.54</ele>
        <time>2021-02-06T08:51:18Z</time>
      </trkpt>
      <trkpt lat="44.95161" lon="-0.41893">
        <ele>1.1</ele>
        <time>2021-02-06T08:51:26Z</time>
      </trkpt>
      <trkpt lat="44.95147" lon="-0.419">
        <ele>2.54</ele>
        <time>2021-02-06T08:51:37Z</time>
      </trkpt>
      <trkpt lat="44.95137" lon="-0.41905">
        <ele>1.1</ele>
        <time>2021-02-06T08:51:45Z</time>
      </trkpt>
      <trkpt lat="44.95135" lon="-0.41906">
        <ele>2.54</ele>
        <time>2021-02-06T08:51:47Z</time>
      </trkpt>
      <trkpt lat="44.95112" lon="-0.41917">
        <ele>2.54</ele>
        <time>2021-02-06T08:52:05Z</time>
      </trkpt>
      <trkpt lat="44.9509" lon="-0.41931">
        <ele>2.54</ele>
        <time>2021-02-06T08:52:25Z</time>
      </trkpt>
      <trkpt lat="44.95089" lon="-0.41933">
        <ele>2.54</ele>
        <time>2021-02-06T08:52:26Z</time>
      </trkpt>
      <trkpt lat="44.95074" lon="-0.41951">
        <ele>2.54</ele>
        <time>2021-02-06T08:52:42Z</time>
      </trkpt>
      <trkpt lat="44.95072" lon="-0.41954">
        <ele>1.1</ele>
        <time>2021-02-06T08:52:44Z</time>
      </trkpt>
      <trkpt lat="44.9507" lon="-0.41957">
        <ele>2.06</ele>
        <time>2021-02-06T08:52:46Z</time>
      </trkpt>
      <trkpt lat="44.95058" lon="-0.41986">
        <ele>2.54</ele>
        <time>2021-02-06T08:53:04Z</time>
      </trkpt>
      <trkpt lat="44.95056" lon="-0.41993">
        <ele>1.1</ele>
        <time>2021-02-06T08:53:08Z</time>
      </trkpt>
      <trkpt lat="44.9505" lon="-0.42008">
        <ele>2.54</ele>
        <time>2021-02-06T08:53:18Z</time>
      </trkpt>
      <trkpt lat="44.9504" lon="-0.4204">
        <ele>2.54</ele>
        <time>2021-02-06T08:53:37Z</time>
      </trkpt>
      <trkpt lat="44.95029" lon="-0.42071">
        <ele>1.58</ele>
        <time>2021-02-06T08:53:56Z</time>
      </trkpt>
      <trkpt lat="44.9502" lon="-0.4209">
        <ele>2.54</ele>
        <time>2021-02-06T08:54:08Z</time>
      </trkpt>
      <trkpt lat="44.95015" lon="-0.42104">
        <ele>1.1</ele>
        <time>2021-02-06T08:54:17Z</time>
      </trkpt>
      <trkpt lat="44.95006" lon="-0.42134">
        <ele>2.54</ele>
        <time>2021-02-06T08:54:34Z</time>
      </trkpt>
      <trkpt lat="44.95003" lon="-0.42139">
        <ele>1.1</ele>
        <time>2021-02-06T08:54:38Z</time>
      </trkpt>
      <trkpt lat="44.94991" lon="-0.42165">
        <ele>1.1</ele>
        <time>2021-02-06T08:54:54Z</time>
      </trkpt>
      <trkpt lat="44.94981" lon="-0.4218">
        <ele>1.58</ele>
        <time>2021-02-06T08:55:06Z</time>
      </trkpt>
      <trkpt lat="44.94962" lon="-0.42165">
        <ele>2.06</ele>
        <time>2021-02-06T08:55:21Z</time>
      </trkpt>
      <trkpt lat="44.94959" lon="-0.42163">
        <ele>1.1</ele>
        <time>2021-02-06T08:55:24Z</time>
      </trkpt>
      <trkpt lat="44.9494" lon="-0.42154">
        <ele>0.62</ele>
        <time>2021-02-06T08:55:40Z</time>
      </trkpt>
      <trkpt lat="44.94933" lon="-0.42149">
        <ele>2.54</ele>
        <time>2021-02-06T08:55:47Z</time>
      </trkpt>
      <trkpt lat="44.9493" lon="-0.42148">
        <ele>1.1</ele>
        <time>2021-02-06T08:55:49Z</time>
      </trkpt>
      <trkpt lat="44.94928" lon="-0.42146">
        <ele>2.54</ele>
        <time>2021-02-06T08:55:51Z</time>
      </trkpt>
      <trkpt lat="44.94926" lon="-0.42145">
        <ele>0.62</ele>
        <time>2021-02-06T08:55:53Z</time>
      </trkpt>
      <trkpt lat="44.94924" lon="-0.42144">
        <ele>2.06</ele>
        <time>2021-02-06T08:55:55Z</time>
      </trkpt>
      <trkpt lat="44.94916" lon="-0.4214">
        <ele>1.1</ele>
        <time>2021-02-06T08:56:02Z</time>
      </trkpt>
      <trkpt lat="44.94913" lon="-0.42139">
        <ele>2.06</ele>
        <time>2021-02-06T08:56:04Z</time>
      </trkpt>
      <trkpt lat="44.9491" lon="-0.42138">
        <ele>0.62</ele>
        <time>2021-02-06T08:56:06Z</time>
      </trkpt>
      <trkpt lat="44.94907" lon="-0.42136">
        <ele>2.06</ele>
        <time>2021-02-06T08:56:08Z</time>
      </trkpt>
      <trkpt lat="44.94904" lon="-0.42135">
        <ele>0.62</ele>
        <time>2021-02-06T08:56:10Z</time>
      </trkpt>
      <trkpt lat="44.94897" lon="-0.42131">
        <ele>2.54</ele>
        <time>2021-02-06T08:56:16Z</time>
      </trkpt>
      <trkpt lat="44.94895" lon="-0.4213">
        <ele>1.1</ele>
        <time>2021-02-06T08:56:18Z</time>
      </trkpt>
      <trkpt lat="44.94878" lon="-0.4212">
        <ele>1.1</ele>
        <time>2021-02-06T08:56:34Z</time>
      </trkpt>
      <trkpt lat="44.94859" lon="-0.42109">
        <ele>1.1</ele>
        <time>2021-02-06T08:56:49Z</time>
      </trkpt>
      <trkpt lat="44.9485" lon="-0.42099">
        <ele>2.54</ele>
        <time>2021-02-06T08:56:59Z</time>
      </trkpt>
      <trkpt lat="44.94847" lon="-0.42096">
        <ele>1.1</ele>
        <time>2021-02-06T08:57:02Z</time>
      </trkpt>
      <trkpt lat="44.94839" lon="-0.42083">
        <ele>0.62</ele>
        <time>2021-02-06T08:57:11Z</time>
      </trkpt>
      <trkpt lat="44.94838" lon="-0.4208">
        <ele>2.06</ele>
        <time>2021-02-06T08:57:13Z</time>
      </trkpt>
      <trkpt lat="44.94835" lon="-0.42076">
        <ele>0.62</ele>
        <time>2021-02-06T08:57:16Z</time>
      </trkpt>
      <trkpt lat="44.94832" lon="-0.42069">
        <ele>0.62</ele>
        <time>2021-02-06T08:57:21Z</time>
      </trkpt>
      <trkpt lat="44.94831" lon="-0.42066">
        <ele>2.06</ele>
        <time>2021-02-06T08:57:23Z</time>
      </trkpt>
      <trkpt lat="44.94825" lon="-0.42044">
        <ele>2.06</ele>
        <time>2021-02-06T08:57:37Z</time>
      </trkpt>
      <trkpt lat="44.94823" lon="-0.42013">
        <ele>1.1</ele>
        <time>2021-02-06T08:57:53Z</time>
      </trkpt>
      <trkpt lat="44.94821" lon="-0.41996">
        <ele>1.1</ele>
        <time>2021-02-06T08:58:03Z</time>
      </trkpt>
      <trkpt lat="44.94822" lon="-0.41992">
        <ele>2.54</ele>
        <time>2021-02-06T08:58:05Z</time>
      </trkpt>
      <trkpt lat="44.94823" lon="-0.41971">
        <ele>1.1</ele>
        <time>2021-02-06T08:58:17Z</time>
      </trkpt>
      <trkpt lat="44.94824" lon="-0.4196">
        <ele>1.1</ele>
        <time>2021-02-06T08:58:22Z</time>
      </trkpt>
      <trkpt lat="44.94824" lon="-0.41957">
        <ele>2.54</ele>
        <time>2021-02-06T08:58:24Z</time>
      </trkpt>
      <trkpt lat="44.9483" lon="-0.41934">
        <ele>2.54</ele>
        <time>2021-02-06T08:58:38Z</time>
      </trkpt>
      <trkpt lat="44.94836" lon="-0.41907">
        <ele>2.54</ele>
        <time>2021-02-06T08:58:53Z</time>
      </trkpt>
      <trkpt lat="44.94844" lon="-0.4188">
        <ele>2.54</ele>
        <time>2021-02-06T08:59:09Z</time>
      </trkpt>
      <trkpt lat="44.94848" lon="-0.41853">
        <ele>2.54</ele>
        <time>2021-02-06T08:59:24Z</time>
      </trkpt>
      <trkpt lat="44.94851" lon="-0.41825">
        <ele>2.54</ele>
        <time>2021-02-06T08:59:40Z</time>
      </trkpt>
      <trkpt lat="44.94854" lon="-0.41797">
        <ele>3.02</ele>
        <time>2021-02-06T08:59:55Z</time>
      </trkpt>
      <trkpt lat="44.94857" lon="-0.4177">
        <ele>1.58</ele>
        <time>2021-02-06T09:00:10Z</time>
      </trkpt>
      <trkpt lat="44.94862" lon="-0.41746">
        <ele>3.02</ele>
        <time>2021-02-06T09:00:24Z</time>
      </trkpt>
      <trkpt lat="44.94863" lon="-0.4174">
        <ele>1.58</ele>
        <time>2021-02-06T09:00:28Z</time>
      </trkpt>
      <trkpt lat="44.94871" lon="-0.41714">
        <ele>2.06</ele>
        <time>2021-02-06T09:00:43Z</time>
      </trkpt>
      <trkpt lat="44.9488" lon="-0.41691">
        <ele>3.02</ele>
        <time>2021-02-06T09:00:58Z</time>
      </trkpt>
      <trkpt lat="44.94891" lon="-0.41669">
        <ele>3.02</ele>
        <time>2021-02-06T09:01:12Z</time>
      </trkpt>
      <trkpt lat="44.94901" lon="-0.41643">
        <ele>3.02</ele>
        <time>2021-02-06T09:01:29Z</time>
      </trkpt>
      <trkpt lat="44.9491" lon="-0.41618">
        <ele>3.02</ele>
        <time>2021-02-06T09:01:44Z</time>
      </trkpt>
      <trkpt lat="44.94919" lon="-0.41596">
        <ele>2.54</ele>
        <time>2021-02-06T09:01:58Z</time>
      </trkpt>
      <trkpt lat="44.94928" lon="-0.41572">
        <ele>2.54</ele>
        <time>2021-02-06T09:02:14Z</time>
      </trkpt>
      <trkpt lat="44.94939" lon="-0.41553">
        <ele>3.5</ele>
        <time>2021-02-06T09:02:27Z</time>
      </trkpt>
      <trkpt lat="44.94951" lon="-0.41526">
        <ele>3.5</ele>
        <time>2021-02-06T09:02:44Z</time>
      </trkpt>
      <trkpt lat="44.94957" lon="-0.41502">
        <ele>3.98</ele>
        <time>2021-02-06T09:03:00Z</time>
      </trkpt>
      <trkpt lat="44.94958" lon="-0.41496">
        <ele>3.02</ele>
        <time>2021-02-06T09:03:05Z</time>
      </trkpt>
      <trkpt lat="44.94959" lon="-0.41491">
        <ele>4.46</ele>
        <time>2021-02-06T09:03:08Z</time>
      </trkpt>
      <trkpt lat="44.94967" lon="-0.41469">
        <ele>3.5</ele>
        <time>2021-02-06T09:03:20Z</time>
      </trkpt>
      <trkpt lat="44.94968" lon="-0.41465">
        <ele>5.42</ele>
        <time>2021-02-06T09:03:22Z</time>
      </trkpt>
      <trkpt lat="44.94971" lon="-0.41455">
        <ele>3.98</ele>
        <time>2021-02-06T09:03:29Z</time>
      </trkpt>
      <trkpt lat="44.94971" lon="-0.41445">
        <ele>5.91</ele>
        <time>2021-02-06T09:03:35Z</time>
      </trkpt>
      <trkpt lat="44.94956" lon="-0.4143">
        <ele>3.5</ele>
        <time>2021-02-06T09:03:49Z</time>
      </trkpt>
      <trkpt lat="44.94943" lon="-0.41422">
        <ele>4.46</ele>
        <time>2021-02-06T09:03:59Z</time>
      </trkpt>
      <trkpt lat="44.94927" lon="-0.41411">
        <ele>4.46</ele>
        <time>2021-02-06T09:04:13Z</time>
      </trkpt>
      <trkpt lat="44.9491" lon="-0.41402">
        <ele>3.98</ele>
        <time>2021-02-06T09:04:26Z</time>
      </trkpt>
      <trkpt lat="44.94901" lon="-0.41393">
        <ele>3.02</ele>
        <time>2021-02-06T09:04:36Z</time>
      </trkpt>
      <trkpt lat="44.94893" lon="-0.41389">
        <ele>4.46</ele>
        <time>2021-02-06T09:04:42Z</time>
      </trkpt>
      <trkpt lat="44.94887" lon="-0.41385">
        <ele>4.46</ele>
        <time>2021-02-06T09:04:47Z</time>
      </trkpt>
      <trkpt lat="44.94885" lon="-0.41383">
        <ele>3.02</ele>
        <time>2021-02-06T09:04:49Z</time>
      </trkpt>
      <trkpt lat="44.94878" lon="-0.41379">
        <ele>4.46</ele>
        <time>2021-02-06T09:04:55Z</time>
      </trkpt>
      <trkpt lat="44.94875" lon="-0.41378">
        <ele>3.02</ele>
        <time>2021-02-06T09:04:58Z</time>
      </trkpt>
      <trkpt lat="44.94867" lon="-0.41371">
        <ele>3.98</ele>
        <time>2021-02-06T09:05:04Z</time>
      </trkpt>
      <trkpt lat="44.94876" lon="-0.41354">
        <ele>3.02</ele>
        <time>2021-02-06T09:05:12Z</time>
      </trkpt>
      <trkpt lat="44.94879" lon="-0.4135">
        <ele>4.46</ele>
        <time>2021-02-06T09:05:14Z</time>
      </trkpt>
      <trkpt lat="44.9489" lon="-0.41327">
        <ele>4.46</ele>
        <time>2021-02-06T09:05:28Z</time>
      </trkpt>
      <trkpt lat="44.94898" lon="-0.41314">
        <ele>4.46</ele>
        <time>2021-02-06T09:05:37Z</time>
      </trkpt>
      <trkpt lat="44.949" lon="-0.41291">
        <ele>4.46</ele>
        <time>2021-02-06T09:05:52Z</time>
      </trkpt>
      <trkpt lat="44.94893" lon="-0.41279">
        <ele>4.94</ele>
        <time>2021-02-06T09:06:07Z</time>
      </trkpt>
      <trkpt lat="44.94892" lon="-0.41277">
        <ele>4.46</ele>
        <time>2021-02-06T09:06:27Z</time>
      </trkpt>
      <trkpt lat="44.94893" lon="-0.41278">
        <ele>3.5</ele>
        <time>2021-02-06T09:06:43Z</time>
      </trkpt>
      <trkpt lat="44.94898" lon="-0.41268">
        <ele>3.5</ele>
        <time>2021-02-06T09:07:00Z</time>
      </trkpt>
      <trkpt lat="44.949" lon="-0.41246">
        <ele>5.91</ele>
        <time>2021-02-06T09:07:15Z</time>
      </trkpt>
      <trkpt lat="44.94901" lon="-0.41245">
        <ele>4.46</ele>
        <time>2021-02-06T09:07:17Z</time>
      </trkpt>
      <trkpt lat="44.949" lon="-0.41244">
        <ele>5.91</ele>
        <time>2021-02-06T09:07:21Z</time>
      </trkpt>
      <trkpt lat="44.94904" lon="-0.41234">
        <ele>5.42</ele>
        <time>2021-02-06T09:07:37Z</time>
      </trkpt>
      <trkpt lat="44.94908" lon="-0.41234">
        <ele>7.35</ele>
        <time>2021-02-06T09:07:39Z</time>
      </trkpt>
      <trkpt lat="44.94919" lon="-0.41237">
        <ele>8.31</ele>
        <time>2021-02-06T09:07:50Z</time>
      </trkpt>
      <trkpt lat="44.94929" lon="-0.41235">
        <ele>11.19</ele>
        <time>2021-02-06T09:08:04Z</time>
      </trkpt>
      <trkpt lat="44.94942" lon="-0.41236">
        <ele>14.56</ele>
        <time>2021-02-06T09:08:21Z</time>
      </trkpt>
      <trkpt lat="44.94949" lon="-0.41236">
        <ele>16</ele>
        <time>2021-02-06T09:08:32Z</time>
      </trkpt>
      <trkpt lat="44.94951" lon="-0.41237">
        <ele>17.44</ele>
        <time>2021-02-06T09:08:35Z</time>
      </trkpt>
      <trkpt lat="44.94952" lon="-0.41237">
        <ele>18.88</ele>
        <time>2021-02-06T09:08:38Z</time>
      </trkpt>
      <trkpt lat="44.94953" lon="-0.41236">
        <ele>17.44</ele>
        <time>2021-02-06T09:08:39Z</time>
      </trkpt>
      <trkpt lat="44.94952" lon="-0.4123">
        <ele>19.36</ele>
        <time>2021-02-06T09:08:44Z</time>
      </trkpt>
      <trkpt lat="44.94951" lon="-0.41226">
        <ele>20.81</ele>
        <time>2021-02-06T09:08:51Z</time>
      </trkpt>
      <trkpt lat="44.94955" lon="-0.41225">
        <ele>24.65</ele>
        <time>2021-02-06T09:09:02Z</time>
      </trkpt>
      <trkpt lat="44.94958" lon="-0.41226">
        <ele>24.65</ele>
        <time>2021-02-06T09:09:06Z</time>
      </trkpt>
      <trkpt lat="44.94961" lon="-0.41226">
        <ele>23.21</ele>
        <time>2021-02-06T09:09:10Z</time>
      </trkpt>
      <trkpt lat="44.94962" lon="-0.41225">
        <ele>24.65</ele>
        <time>2021-02-06T09:09:13Z</time>
      </trkpt>
      <trkpt lat="44.94964" lon="-0.41222">
        <ele>24.17</ele>
        <time>2021-02-06T09:09:16Z</time>
      </trkpt>
      <trkpt lat="44.94967" lon="-0.41208">
        <ele>26.09</ele>
        <time>2021-02-06T09:09:28Z</time>
      </trkpt>
      <trkpt lat="44.94967" lon="-0.41207">
        <ele>24.65</ele>
        <time>2021-02-06T09:09:29Z</time>
      </trkpt>
      <trkpt lat="44.94957" lon="-0.41201">
        <ele>26.09</ele>
        <time>2021-02-06T09:09:43Z</time>
      </trkpt>
      <trkpt lat="44.94951" lon="-0.41193">
        <ele>26.09</ele>
        <time>2021-02-06T09:09:56Z</time>
      </trkpt>
      <trkpt lat="44.94953" lon="-0.41194">
        <ele>26.09</ele>
        <time>2021-02-06T09:10:30Z</time>
      </trkpt>
      <trkpt lat="44.94953" lon="-0.41194">
        <ele>26.09</ele>
        <time>2021-02-06T09:10:55Z</time>
      </trkpt>
      <trkpt lat="44.94954" lon="-0.41196">
        <ele>26.09</ele>
        <time>2021-02-06T09:11:17Z</time>
      </trkpt>
      <trkpt lat="44.94957" lon="-0.41197">
        <ele>26.09</ele>
        <time>2021-02-06T09:11:50Z</time>
      </trkpt>
      <trkpt lat="44.94955" lon="-0.41197">
        <ele>26.09</ele>
        <time>2021-02-06T09:12:16Z</time>
      </trkpt>
      <trkpt lat="44.94957" lon="-0.41197">
        <ele>26.09</ele>
        <time>2021-02-06T09:12:38Z</time>
      </trkpt>
      <trkpt lat="44.94964" lon="-0.41194">
        <ele>26.57</ele>
        <time>2021-02-06T09:12:56Z</time>
      </trkpt>
      <trkpt lat="44.94974" lon="-0.41202">
        <ele>26.57</ele>
        <time>2021-02-06T09:13:12Z</time>
      </trkpt>
      <trkpt lat="44.9498" lon="-0.41205">
        <ele>26.57</ele>
        <time>2021-02-06T09:13:18Z</time>
      </trkpt>
      <trkpt lat="44.95004" lon="-0.41201">
        <ele>28.02</ele>
        <time>2021-02-06T09:13:39Z</time>
      </trkpt>
      <trkpt lat="44.95018" lon="-0.41204">
        <ele>28.02</ele>
        <time>2021-02-06T09:13:52Z</time>
      </trkpt>
      <trkpt lat="44.95021" lon="-0.41206">
        <ele>28.5</ele>
        <time>2021-02-06T09:13:55Z</time>
      </trkpt>
      <trkpt lat="44.9503" lon="-0.41205">
        <ele>28.5</ele>
        <time>2021-02-06T09:14:08Z</time>
      </trkpt>
      <trkpt lat="44.95038" lon="-0.41186">
        <ele>28.02</ele>
        <time>2021-02-06T09:14:21Z</time>
      </trkpt>
      <trkpt lat="44.95039" lon="-0.41185">
        <ele>29.46</ele>
        <time>2021-02-06T09:14:22Z</time>
      </trkpt>
      <trkpt lat="44.95041" lon="-0.41173">
        <ele>28.02</ele>
        <time>2021-02-06T09:14:28Z</time>
      </trkpt>
      <trkpt lat="44.95044" lon="-0.41163">
        <ele>29.46</ele>
        <time>2021-02-06T09:14:34Z</time>
      </trkpt>
      <trkpt lat="44.95046" lon="-0.41152">
        <ele>27.53</ele>
        <time>2021-02-06T09:14:41Z</time>
      </trkpt>
      <trkpt lat="44.95047" lon="-0.41148">
        <ele>28.5</ele>
        <time>2021-02-06T09:14:43Z</time>
      </trkpt>
      <trkpt lat="44.95049" lon="-0.41145">
        <ele>27.53</ele>
        <time>2021-02-06T09:14:45Z</time>
      </trkpt>
      <trkpt lat="44.95051" lon="-0.41142">
        <ele>28.98</ele>
        <time>2021-02-06T09:14:47Z</time>
      </trkpt>
      <trkpt lat="44.95057" lon="-0.41119">
        <ele>27.53</ele>
        <time>2021-02-06T09:15:01Z</time>
      </trkpt>
      <trkpt lat="44.95067" lon="-0.41093">
        <ele>28.5</ele>
        <time>2021-02-06T09:15:18Z</time>
      </trkpt>
      <trkpt lat="44.9507" lon="-0.41084">
        <ele>27.05</ele>
        <time>2021-02-06T09:15:24Z</time>
      </trkpt>
      <trkpt lat="44.95073" lon="-0.41074">
        <ele>28.5</ele>
        <time>2021-02-06T09:15:30Z</time>
      </trkpt>
      <trkpt lat="44.95079" lon="-0.41049">
        <ele>27.53</ele>
        <time>2021-02-06T09:15:46Z</time>
      </trkpt>
      <trkpt lat="44.95082" lon="-0.41038">
        <ele>28.5</ele>
        <time>2021-02-06T09:15:54Z</time>
      </trkpt>
      <trkpt lat="44.9509" lon="-0.41038">
        <ele>28.5</ele>
        <time>2021-02-06T09:16:00Z</time>
      </trkpt>
      <trkpt lat="44.95099" lon="-0.41043">
        <ele>27.53</ele>
        <time>2021-02-06T09:16:08Z</time>
      </trkpt>
      <trkpt lat="44.95114" lon="-0.41045">
        <ele>27.53</ele>
        <time>2021-02-06T09:16:21Z</time>
      </trkpt>
      <trkpt lat="44.95118" lon="-0.41047">
        <ele>28.98</ele>
        <time>2021-02-06T09:16:25Z</time>
      </trkpt>
      <trkpt lat="44.95121" lon="-0.41048">
        <ele>27.53</ele>
        <time>2021-02-06T09:16:27Z</time>
      </trkpt>
      <trkpt lat="44.95127" lon="-0.41049">
        <ele>28.98</ele>
        <time>2021-02-06T09:16:32Z</time>
      </trkpt>
      <trkpt lat="44.95129" lon="-0.41049">
        <ele>27.05</ele>
        <time>2021-02-06T09:16:34Z</time>
      </trkpt>
      <trkpt lat="44.95131" lon="-0.4105">
        <ele>28.5</ele>
        <time>2021-02-06T09:16:36Z</time>
      </trkpt>
      <trkpt lat="44.95146" lon="-0.41052">
        <ele>27.53</ele>
        <time>2021-02-06T09:16:49Z</time>
      </trkpt>
      <trkpt lat="44.95149" lon="-0.41053">
        <ele>28.98</ele>
        <time>2021-02-06T09:16:51Z</time>
      </trkpt>
      <trkpt lat="44.95151" lon="-0.41053">
        <ele>27.53</ele>
        <time>2021-02-06T09:16:53Z</time>
      </trkpt>
      <trkpt lat="44.9517" lon="-0.41057">
        <ele>28.5</ele>
        <time>2021-02-06T09:17:09Z</time>
      </trkpt>
      <trkpt lat="44.95186" lon="-0.4106">
        <ele>28.5</ele>
        <time>2021-02-06T09:17:24Z</time>
      </trkpt>
      <trkpt lat="44.95189" lon="-0.4106">
        <ele>28.5</ele>
        <time>2021-02-06T09:17:27Z</time>
      </trkpt>
      <trkpt lat="44.95194" lon="-0.41061">
        <ele>27.05</ele>
        <time>2021-02-06T09:17:31Z</time>
      </trkpt>
      <trkpt lat="44.95218" lon="-0.41059">
        <ele>28.02</ele>
        <time>2021-02-06T09:17:51Z</time>
      </trkpt>
      <trkpt lat="44.95222" lon="-0.41056">
        <ele>28.02</ele>
        <time>2021-02-06T09:17:55Z</time>
      </trkpt>
      <trkpt lat="44.95234" lon="-0.4104">
        <ele>25.61</ele>
        <time>2021-02-06T09:18:08Z</time>
      </trkpt>
      <trkpt lat="44.9523" lon="-0.41012">
        <ele>25.13</ele>
        <time>2021-02-06T09:18:23Z</time>
      </trkpt>
      <trkpt lat="44.9523" lon="-0.40996">
        <ele>25.61</ele>
        <time>2021-02-06T09:18:32Z</time>
      </trkpt>
      <trkpt lat="44.95229" lon="-0.40982">
        <ele>24.65</ele>
        <time>2021-02-06T09:18:40Z</time>
      </trkpt>
      <trkpt lat="44.9523" lon="-0.40974">
        <ele>24.17</ele>
        <time>2021-02-06T09:18:44Z</time>
      </trkpt>
      <trkpt lat="44.95247" lon="-0.40954">
        <ele>23.21</ele>
        <time>2021-02-06T09:19:00Z</time>
      </trkpt>
      <trkpt lat="44.95261" lon="-0.40951">
        <ele>24.17</ele>
        <time>2021-02-06T09:19:10Z</time>
      </trkpt>
      <trkpt lat="44.95264" lon="-0.4095">
        <ele>22.73</ele>
        <time>2021-02-06T09:19:13Z</time>
      </trkpt>
      <trkpt lat="44.95267" lon="-0.40949">
        <ele>24.17</ele>
        <time>2021-02-06T09:19:15Z</time>
      </trkpt>
      <trkpt lat="44.95271" lon="-0.40947">
        <ele>22.73</ele>
        <time>2021-02-06T09:19:18Z</time>
      </trkpt>
      <trkpt lat="44.95279" lon="-0.40945">
        <ele>22.73</ele>
        <time>2021-02-06T09:19:23Z</time>
      </trkpt>
      <trkpt lat="44.95291" lon="-0.40941">
        <ele>21.77</ele>
        <time>2021-02-06T09:19:33Z</time>
      </trkpt>
      <trkpt lat="44.95304" lon="-0.40936">
        <ele>21.77</ele>
        <time>2021-02-06T09:19:44Z</time>
      </trkpt>
      <trkpt lat="44.95309" lon="-0.40936">
        <ele>23.21</ele>
        <time>2021-02-06T09:19:48Z</time>
      </trkpt>
      <trkpt lat="44.95312" lon="-0.40936">
        <ele>21.77</ele>
        <time>2021-02-06T09:19:51Z</time>
      </trkpt>
      <trkpt lat="44.95326" lon="-0.40931">
        <ele>20.81</ele>
        <time>2021-02-06T09:20:02Z</time>
      </trkpt>
      <trkpt lat="44.95345" lon="-0.40925">
        <ele>20.32</ele>
        <time>2021-02-06T09:20:16Z</time>
      </trkpt>
      <trkpt lat="44.95348" lon="-0.40925">
        <ele>21.77</ele>
        <time>2021-02-06T09:20:18Z</time>
      </trkpt>
      <trkpt lat="44.95355" lon="-0.40926">
        <ele>20.81</ele>
        <time>2021-02-06T09:20:23Z</time>
      </trkpt>
      <trkpt lat="44.95359" lon="-0.40925">
        <ele>18.88</ele>
        <time>2021-02-06T09:20:26Z</time>
      </trkpt>
      <trkpt lat="44.95362" lon="-0.40924">
        <ele>20.32</ele>
        <time>2021-02-06T09:20:28Z</time>
      </trkpt>
      <trkpt lat="44.95366" lon="-0.40923">
        <ele>19.36</ele>
        <time>2021-02-06T09:20:31Z</time>
      </trkpt>
      <trkpt lat="44.95376" lon="-0.40923">
        <ele>18.4</ele>
        <time>2021-02-06T09:20:40Z</time>
      </trkpt>
      <trkpt lat="44.95378" lon="-0.40924">
        <ele>18.4</ele>
        <time>2021-02-06T09:20:41Z</time>
      </trkpt>
      <trkpt lat="44.95391" lon="-0.40917">
        <ele>19.36</ele>
        <time>2021-02-06T09:20:52Z</time>
      </trkpt>
      <trkpt lat="44.95419" lon="-0.40909">
        <ele>18.88</ele>
        <time>2021-02-06T09:21:13Z</time>
      </trkpt>
      <trkpt lat="44.95443" lon="-0.40905">
        <ele>19.84</ele>
        <time>2021-02-06T09:21:32Z</time>
      </trkpt>
      <trkpt lat="44.95446" lon="-0.40904">
        <ele>21.29</ele>
        <time>2021-02-06T09:21:34Z</time>
      </trkpt>
      <trkpt lat="44.95471" lon="-0.40897">
        <ele>22.73</ele>
        <time>2021-02-06T09:21:55Z</time>
      </trkpt>
      <trkpt lat="44.95483" lon="-0.40896">
        <ele>21.77</ele>
        <time>2021-02-06T09:22:04Z</time>
      </trkpt>
      <trkpt lat="44.95492" lon="-0.40895">
        <ele>23.21</ele>
        <time>2021-02-06T09:22:10Z</time>
      </trkpt>
      <trkpt lat="44.955" lon="-0.40895">
        <ele>22.25</ele>
        <time>2021-02-06T09:22:17Z</time>
      </trkpt>
      <trkpt lat="44.95503" lon="-0.40895">
        <ele>23.69</ele>
        <time>2021-02-06T09:22:19Z</time>
      </trkpt>
      <trkpt lat="44.95525" lon="-0.40891">
        <ele>23.21</ele>
        <time>2021-02-06T09:22:36Z</time>
      </trkpt>
      <trkpt lat="44.9554" lon="-0.40891">
        <ele>23.69</ele>
        <time>2021-02-06T09:22:54Z</time>
      </trkpt>
      <trkpt lat="44.95545" lon="-0.40881">
        <ele>23.69</ele>
        <time>2021-02-06T09:23:03Z</time>
      </trkpt>
      <trkpt lat="44.95547" lon="-0.40879">
        <ele>22.25</ele>
        <time>2021-02-06T09:23:05Z</time>
      </trkpt>
      <trkpt lat="44.95557" lon="-0.40864">
        <ele>21.77</ele>
        <time>2021-02-06T09:23:21Z</time>
      </trkpt>
      <trkpt lat="44.95557" lon="-0.40863">
        <ele>21.77</ele>
        <time>2021-02-06T09:23:22Z</time>
      </trkpt>
      <trkpt lat="44.95569" lon="-0.40844">
        <ele>19.36</ele>
        <time>2021-02-06T09:23:37Z</time>
      </trkpt>
      <trkpt lat="44.9557" lon="-0.40841">
        <ele>20.81</ele>
        <time>2021-02-06T09:23:39Z</time>
      </trkpt>
      <trkpt lat="44.95575" lon="-0.4083">
        <ele>18.4</ele>
        <time>2021-02-06T09:23:46Z</time>
      </trkpt>
      <trkpt lat="44.95579" lon="-0.40819">
        <ele>17.92</ele>
        <time>2021-02-06T09:23:55Z</time>
      </trkpt>
      <trkpt lat="44.9558" lon="-0.40816">
        <ele>16.48</ele>
        <time>2021-02-06T09:23:57Z</time>
      </trkpt>
      <trkpt lat="44.95581" lon="-0.40814">
        <ele>17.92</ele>
        <time>2021-02-06T09:23:59Z</time>
      </trkpt>
      <trkpt lat="44.95581" lon="-0.40811">
        <ele>16.48</ele>
        <time>2021-02-06T09:24:01Z</time>
      </trkpt>
      <trkpt lat="44.95583" lon="-0.40809">
        <ele>16.48</ele>
        <time>2021-02-06T09:24:03Z</time>
      </trkpt>
      <trkpt lat="44.95586" lon="-0.40803">
        <ele>15.52</ele>
        <time>2021-02-06T09:24:08Z</time>
      </trkpt>
      <trkpt lat="44.95594" lon="-0.40778">
        <ele>13.12</ele>
        <time>2021-02-06T09:24:28Z</time>
      </trkpt>
      <trkpt lat="44.95602" lon="-0.40764">
        <ele>12.15</ele>
        <time>2021-02-06T09:24:41Z</time>
      </trkpt>
      <trkpt lat="44.95616" lon="-0.40786">
        <ele>13.6</ele>
        <time>2021-02-06T09:24:57Z</time>
      </trkpt>
      <trkpt lat="44.9562" lon="-0.40793">
        <ele>13.12</ele>
        <time>2021-02-06T09:25:03Z</time>
      </trkpt>
      <trkpt lat="44.95626" lon="-0.40799">
        <ele>11.67</ele>
        <time>2021-02-06T09:25:09Z</time>
      </trkpt>
      <trkpt lat="44.95632" lon="-0.40802">
        <ele>12.15</ele>
        <time>2021-02-06T09:25:15Z</time>
      </trkpt>
      <trkpt lat="44.95637" lon="-0.408">
        <ele>11.67</ele>
        <time>2021-02-06T09:25:19Z</time>
      </trkpt>
      <trkpt lat="44.9565" lon="-0.40794">
        <ele>10.23</ele>
        <time>2021-02-06T09:25:30Z</time>
      </trkpt>
      <trkpt lat="44.95654" lon="-0.40797">
        <ele>11.67</ele>
        <time>2021-02-06T09:25:33Z</time>
      </trkpt>
      <trkpt lat="44.9566" lon="-0.40809">
        <ele>12.15</ele>
        <time>2021-02-06T09:25:41Z</time>
      </trkpt>
      <trkpt lat="44.95662" lon="-0.40812">
        <ele>10.71</ele>
        <time>2021-02-06T09:25:44Z</time>
      </trkpt>
      <trkpt lat="44.95667" lon="-0.40818">
        <ele>11.67</ele>
        <time>2021-02-06T09:25:49Z</time>
      </trkpt>
      <trkpt lat="44.9567" lon="-0.40821">
        <ele>10.23</ele>
        <time>2021-02-06T09:25:52Z</time>
      </trkpt>
      <trkpt lat="44.95686" lon="-0.40839">
        <ele>11.19</ele>
        <time>2021-02-06T09:26:08Z</time>
      </trkpt>
      <trkpt lat="44.95689" lon="-0.40843">
        <ele>9.75</ele>
        <time>2021-02-06T09:26:11Z</time>
      </trkpt>
      <trkpt lat="44.95692" lon="-0.40845">
        <ele>11.19</ele>
        <time>2021-02-06T09:26:13Z</time>
      </trkpt>
      <trkpt lat="44.95704" lon="-0.4086">
        <ele>11.67</ele>
        <time>2021-02-06T09:26:27Z</time>
      </trkpt>
      <trkpt lat="44.9571" lon="-0.40869">
        <ele>10.23</ele>
        <time>2021-02-06T09:26:34Z</time>
      </trkpt>
      <trkpt lat="44.95724" lon="-0.40887">
        <ele>10.23</ele>
        <time>2021-02-06T09:26:51Z</time>
      </trkpt>
      <trkpt lat="44.95726" lon="-0.40889">
        <ele>11.67</ele>
        <time>2021-02-06T09:26:53Z</time>
      </trkpt>
      <trkpt lat="44.95728" lon="-0.4089">
        <ele>10.23</ele>
        <time>2021-02-06T09:26:55Z</time>
      </trkpt>
      <trkpt lat="44.95732" lon="-0.4089">
        <ele>10.23</ele>
        <time>2021-02-06T09:27:10Z</time>
      </trkpt>
      <trkpt lat="44.95735" lon="-0.4089">
        <ele>10.71</ele>
        <time>2021-02-06T09:27:13Z</time>
      </trkpt>
      <trkpt lat="44.95744" lon="-0.40891">
        <ele>9.75</ele>
        <time>2021-02-06T09:27:24Z</time>
      </trkpt>
      <trkpt lat="44.95747" lon="-0.40891">
        <ele>11.19</ele>
        <time>2021-02-06T09:27:27Z</time>
      </trkpt>
      <trkpt lat="44.95761" lon="-0.40895">
        <ele>11.19</ele>
        <time>2021-02-06T09:27:41Z</time>
      </trkpt>
      <trkpt lat="44.95784" lon="-0.40887">
        <ele>9.75</ele>
        <time>2021-02-06T09:27:59Z</time>
      </trkpt>
      <trkpt lat="44.95785" lon="-0.40886">
        <ele>9.75</ele>
        <time>2021-02-06T09:28:00Z</time>
      </trkpt>
      <trkpt lat="44.95805" lon="-0.40874">
        <ele>9.75</ele>
        <time>2021-02-06T09:28:18Z</time>
      </trkpt>
      <trkpt lat="44.95825" lon="-0.40863">
        <ele>7.83</ele>
        <time>2021-02-06T09:28:36Z</time>
      </trkpt>
      <trkpt lat="44.95826" lon="-0.40862">
        <ele>7.83</ele>
        <time>2021-02-06T09:28:37Z</time>
      </trkpt>
      <trkpt lat="44.95829" lon="-0.40861">
        <ele>3.98</ele>
        <time>2021-02-06T09:28:39Z</time>
      </trkpt>
      <trkpt lat="44.9583" lon="-0.4086">
        <ele>12.15</ele>
        <time>2021-02-06T09:28:40Z</time>
      </trkpt>
      <trkpt lat="44.95831" lon="-0.40859">
        <ele>8.79</ele>
        <time>2021-02-06T09:28:41Z</time>
      </trkpt>
      <trkpt lat="44.95833" lon="-0.40858">
        <ele>7.83</ele>
        <time>2021-02-06T09:28:43Z</time>
      </trkpt>
      <trkpt lat="44.95853" lon="-0.40845">
        <ele>8.31</ele>
        <time>2021-02-06T09:29:01Z</time>
      </trkpt>
      <trkpt lat="44.95867" lon="-0.40838">
        <ele>7.35</ele>
        <time>2021-02-06T09:29:12Z</time>
      </trkpt>
      <trkpt lat="44.9587" lon="-0.40837">
        <ele>8.31</ele>
        <time>2021-02-06T09:29:14Z</time>
      </trkpt>
      <trkpt lat="44.95872" lon="-0.40836">
        <ele>6.87</ele>
        <time>2021-02-06T09:29:16Z</time>
      </trkpt>
      <trkpt lat="44.95873" lon="-0.40835">
        <ele>8.31</ele>
        <time>2021-02-06T09:29:18Z</time>
      </trkpt>
      <trkpt lat="44.95875" lon="-0.40834">
        <ele>7.35</ele>
        <time>2021-02-06T09:29:20Z</time>
      </trkpt>
      <trkpt lat="44.9588" lon="-0.4083">
        <ele>7.35</ele>
        <time>2021-02-06T09:29:25Z</time>
      </trkpt>
      <trkpt lat="44.95896" lon="-0.40812">
        <ele>5.42</ele>
        <time>2021-02-06T09:29:42Z</time>
      </trkpt>
      <trkpt lat="44.95899" lon="-0.40808">
        <ele>7.35</ele>
        <time>2021-02-06T09:29:46Z</time>
      </trkpt>
      <trkpt lat="44.95901" lon="-0.40806">
        <ele>5.91</ele>
        <time>2021-02-06T09:29:48Z</time>
      </trkpt>
      <trkpt lat="44.95903" lon="-0.40805">
        <ele>6.39</ele>
        <time>2021-02-06T09:29:50Z</time>
      </trkpt>
      <trkpt lat="44.95917" lon="-0.40786">
        <ele>4.94</ele>
        <time>2021-02-06T09:30:06Z</time>
      </trkpt>
      <trkpt lat="44.95918" lon="-0.40784">
        <ele>5.91</ele>
        <time>2021-02-06T09:30:08Z</time>
      </trkpt>
      <trkpt lat="44.95928" lon="-0.40765">
        <ele>5.42</ele>
        <time>2021-02-06T09:30:23Z</time>
      </trkpt>
      <trkpt lat="44.95931" lon="-0.4076">
        <ele>6.39</ele>
        <time>2021-02-06T09:30:29Z</time>
      </trkpt>
      <trkpt lat="44.9593" lon="-0.40758">
        <ele>6.39</ele>
        <time>2021-02-06T09:30:31Z</time>
      </trkpt>
      <trkpt lat="44.95929" lon="-0.40751">
        <ele>6.39</ele>
        <time>2021-02-06T09:30:35Z</time>
      </trkpt>
      <trkpt lat="44.95942" lon="-0.40732">
        <ele>5.91</ele>
        <time>2021-02-06T09:30:49Z</time>
      </trkpt>
      <trkpt lat="44.95943" lon="-0.40727">
        <ele>4.46</ele>
        <time>2021-02-06T09:30:52Z</time>
      </trkpt>
      <trkpt lat="44.95946" lon="-0.40725">
        <ele>5.91</ele>
        <time>2021-02-06T09:30:54Z</time>
      </trkpt>
      <trkpt lat="44.9595" lon="-0.40719">
        <ele>4.46</ele>
        <time>2021-02-06T09:30:58Z</time>
      </trkpt>
      <trkpt lat="44.95951" lon="-0.40717">
        <ele>5.91</ele>
        <time>2021-02-06T09:31:00Z</time>
      </trkpt>
      <trkpt lat="44.95956" lon="-0.40706">
        <ele>4.46</ele>
        <time>2021-02-06T09:31:07Z</time>
      </trkpt>
      <trkpt lat="44.95958" lon="-0.40703">
        <ele>5.91</ele>
        <time>2021-02-06T09:31:09Z</time>
      </trkpt>
      <trkpt lat="44.95966" lon="-0.40682">
        <ele>5.91</ele>
        <time>2021-02-06T09:31:21Z</time>
      </trkpt>
      <trkpt lat="44.95979" lon="-0.40657">
        <ele>5.42</ele>
        <time>2021-02-06T09:31:38Z</time>
      </trkpt>
      <trkpt lat="44.95987" lon="-0.40634">
        <ele>4.46</ele>
        <time>2021-02-06T09:31:52Z</time>
      </trkpt>
      <trkpt lat="44.95988" lon="-0.40633">
        <ele>4.46</ele>
        <time>2021-02-06T09:31:53Z</time>
      </trkpt>
      <trkpt lat="44.95999" lon="-0.40606">
        <ele>4.46</ele>
        <time>2021-02-06T09:32:09Z</time>
      </trkpt>
      <trkpt lat="44.96007" lon="-0.40589">
        <ele>4.94</ele>
        <time>2021-02-06T09:32:20Z</time>
      </trkpt>
      <trkpt lat="44.9601" lon="-0.40581">
        <ele>4.46</ele>
        <time>2021-02-06T09:32:32Z</time>
      </trkpt>
      <trkpt lat="44.96013" lon="-0.40572">
        <ele>6.39</ele>
        <time>2021-02-06T09:32:38Z</time>
      </trkpt>
      <trkpt lat="44.96016" lon="-0.40548">
        <ele>5.42</ele>
        <time>2021-02-06T09:32:54Z</time>
      </trkpt>
      <trkpt lat="44.96021" lon="-0.40537">
        <ele>4.94</ele>
        <time>2021-02-06T09:33:03Z</time>
      </trkpt>
      <trkpt lat="44.96027" lon="-0.40523">
        <ele>4.46</ele>
        <time>2021-02-06T09:33:12Z</time>
      </trkpt>
      <trkpt lat="44.9603" lon="-0.40517">
        <ele>5.91</ele>
        <time>2021-02-06T09:33:17Z</time>
      </trkpt>
      <trkpt lat="44.96031" lon="-0.40514">
        <ele>4.46</ele>
        <time>2021-02-06T09:33:19Z</time>
      </trkpt>
      <trkpt lat="44.96039" lon="-0.40494">
        <ele>5.91</ele>
        <time>2021-02-06T09:33:34Z</time>
      </trkpt>
      <trkpt lat="44.96046" lon="-0.40474">
        <ele>5.91</ele>
        <time>2021-02-06T09:33:49Z</time>
      </trkpt>
      <trkpt lat="44.96047" lon="-0.40471">
        <ele>4.46</ele>
        <time>2021-02-06T09:33:51Z</time>
      </trkpt>
      <trkpt lat="44.96052" lon="-0.40459">
        <ele>4.94</ele>
        <time>2021-02-06T09:34:00Z</time>
      </trkpt>
      <trkpt lat="44.96054" lon="-0.40451">
        <ele>4.46</ele>
        <time>2021-02-06T09:34:06Z</time>
      </trkpt>
      <trkpt lat="44.96055" lon="-0.40444">
        <ele>4.94</ele>
        <time>2021-02-06T09:34:10Z</time>
      </trkpt>
      <trkpt lat="44.9606" lon="-0.40423">
        <ele>6.87</ele>
        <time>2021-02-06T09:34:23Z</time>
      </trkpt>
      <trkpt lat="44.96064" lon="-0.40399">
        <ele>4.94</ele>
        <time>2021-02-06T09:34:40Z</time>
      </trkpt>
      <trkpt lat="44.96065" lon="-0.40397">
        <ele>6.87</ele>
        <time>2021-02-06T09:34:42Z</time>
      </trkpt>
      <trkpt lat="44.96069" lon="-0.40389">
        <ele>5.42</ele>
        <time>2021-02-06T09:34:48Z</time>
      </trkpt>
      <trkpt lat="44.96071" lon="-0.40384">
        <ele>6.87</ele>
        <time>2021-02-06T09:34:52Z</time>
      </trkpt>
      <trkpt lat="44.96078" lon="-0.40364">
        <ele>6.87</ele>
        <time>2021-02-06T09:35:06Z</time>
      </trkpt>
      <trkpt lat="44.96084" lon="-0.40347">
        <ele>7.83</ele>
        <time>2021-02-06T09:35:17Z</time>
      </trkpt>
      <trkpt lat="44.96088" lon="-0.40337">
        <ele>5.91</ele>
        <time>2021-02-06T09:35:23Z</time>
      </trkpt>
      <trkpt lat="44.96095" lon="-0.40323">
        <ele>5.91</ele>
        <time>2021-02-06T09:35:34Z</time>
      </trkpt>
      <trkpt lat="44.96098" lon="-0.40313">
        <ele>8.79</ele>
        <time>2021-02-06T09:35:41Z</time>
      </trkpt>
      <trkpt lat="44.96102" lon="-0.40301">
        <ele>7.83</ele>
        <time>2021-02-06T09:35:49Z</time>
      </trkpt>
      <trkpt lat="44.96112" lon="-0.40282">
        <ele>8.31</ele>
        <time>2021-02-06T09:36:03Z</time>
      </trkpt>
      <trkpt lat="44.96118" lon="-0.4027">
        <ele>6.87</ele>
        <time>2021-02-06T09:36:12Z</time>
      </trkpt>
      <trkpt lat="44.96123" lon="-0.40263">
        <ele>8.31</ele>
        <time>2021-02-06T09:36:17Z</time>
      </trkpt>
      <trkpt lat="44.96125" lon="-0.40258">
        <ele>9.27</ele>
        <time>2021-02-06T09:36:21Z</time>
      </trkpt>
      <trkpt lat="44.96126" lon="-0.40256">
        <ele>7.83</ele>
        <time>2021-02-06T09:36:23Z</time>
      </trkpt>
      <trkpt lat="44.96129" lon="-0.4025">
        <ele>9.27</ele>
        <time>2021-02-06T09:36:27Z</time>
      </trkpt>
      <trkpt lat="44.96137" lon="-0.40238">
        <ele>7.83</ele>
        <time>2021-02-06T09:36:37Z</time>
      </trkpt>
      <trkpt lat="44.96142" lon="-0.40231">
        <ele>9.27</ele>
        <time>2021-02-06T09:36:43Z</time>
      </trkpt>
      <trkpt lat="44.96146" lon="-0.40219">
        <ele>10.71</ele>
        <time>2021-02-06T09:36:52Z</time>
      </trkpt>
      <trkpt lat="44.96148" lon="-0.40208">
        <ele>11.67</ele>
        <time>2021-02-06T09:37:00Z</time>
      </trkpt>
      <trkpt lat="44.96145" lon="-0.40203">
        <ele>9.75</ele>
        <time>2021-02-06T09:37:04Z</time>
      </trkpt>
      <trkpt lat="44.96139" lon="-0.40195">
        <ele>9.75</ele>
        <time>2021-02-06T09:37:11Z</time>
      </trkpt>
      <trkpt lat="44.96137" lon="-0.40193">
        <ele>9.75</ele>
        <time>2021-02-06T09:37:13Z</time>
      </trkpt>
      <trkpt lat="44.96136" lon="-0.40191">
        <ele>10.23</ele>
        <time>2021-02-06T09:37:15Z</time>
      </trkpt>
      <trkpt lat="44.96122" lon="-0.40167">
        <ele>9.27</ele>
        <time>2021-02-06T09:37:34Z</time>
      </trkpt>
      <trkpt lat="44.96106" lon="-0.40144">
        <ele>9.27</ele>
        <time>2021-02-06T09:37:52Z</time>
      </trkpt>
      <trkpt lat="44.96093" lon="-0.40127">
        <ele>8.79</ele>
        <time>2021-02-06T09:38:05Z</time>
      </trkpt>
      <trkpt lat="44.9608" lon="-0.40106">
        <ele>8.79</ele>
        <time>2021-02-06T09:38:21Z</time>
      </trkpt>
      <trkpt lat="44.96065" lon="-0.40084">
        <ele>8.79</ele>
        <time>2021-02-06T09:38:38Z</time>
      </trkpt>
      <trkpt lat="44.96056" lon="-0.40068">
        <ele>8.31</ele>
        <time>2021-02-06T09:38:50Z</time>
      </trkpt>
      <trkpt lat="44.96052" lon="-0.40059">
        <ele>9.75</ele>
        <time>2021-02-06T09:38:56Z</time>
      </trkpt>
      <trkpt lat="44.9604" lon="-0.40034">
        <ele>9.27</ele>
        <time>2021-02-06T09:39:12Z</time>
      </trkpt>
      <trkpt lat="44.96035" lon="-0.40025">
        <ele>7.35</ele>
        <time>2021-02-06T09:39:19Z</time>
      </trkpt>
      <trkpt lat="44.96033" lon="-0.40022">
        <ele>9.27</ele>
        <time>2021-02-06T09:39:21Z</time>
      </trkpt>
      <trkpt lat="44.96028" lon="-0.40011">
        <ele>7.83</ele>
        <time>2021-02-06T09:39:28Z</time>
      </trkpt>
      <trkpt lat="44.96022" lon="-0.40001">
        <ele>9.27</ele>
        <time>2021-02-06T09:39:35Z</time>
      </trkpt>
      <trkpt lat="44.96019" lon="-0.39996">
        <ele>7.83</ele>
        <time>2021-02-06T09:39:38Z</time>
      </trkpt>
      <trkpt lat="44.9601" lon="-0.39982">
        <ele>7.35</ele>
        <time>2021-02-06T09:39:48Z</time>
      </trkpt>
      <trkpt lat="44.96008" lon="-0.39979">
        <ele>8.79</ele>
        <time>2021-02-06T09:39:50Z</time>
      </trkpt>
      <trkpt lat="44.96" lon="-0.39967">
        <ele>7.83</ele>
        <time>2021-02-06T09:39:58Z</time>
      </trkpt>
      <trkpt lat="44.95987" lon="-0.39946">
        <ele>7.83</ele>
        <time>2021-02-06T09:40:13Z</time>
      </trkpt>
      <trkpt lat="44.95976" lon="-0.39922">
        <ele>7.83</ele>
        <time>2021-02-06T09:40:29Z</time>
      </trkpt>
      <trkpt lat="44.95965" lon="-0.39903">
        <ele>8.31</ele>
        <time>2021-02-06T09:40:43Z</time>
      </trkpt>
      <trkpt lat="44.95948" lon="-0.39877">
        <ele>8.79</ele>
        <time>2021-02-06T09:41:01Z</time>
      </trkpt>
      <trkpt lat="44.95936" lon="-0.39852">
        <ele>7.83</ele>
        <time>2021-02-06T09:41:18Z</time>
      </trkpt>
      <trkpt lat="44.95935" lon="-0.39849">
        <ele>9.27</ele>
        <time>2021-02-06T09:41:20Z</time>
      </trkpt>
      <trkpt lat="44.95932" lon="-0.39844">
        <ele>7.83</ele>
        <time>2021-02-06T09:41:23Z</time>
      </trkpt>
      <trkpt lat="44.95931" lon="-0.39842">
        <ele>8.79</ele>
        <time>2021-02-06T09:41:25Z</time>
      </trkpt>
      <trkpt lat="44.95918" lon="-0.39819">
        <ele>8.79</ele>
        <time>2021-02-06T09:41:42Z</time>
      </trkpt>
      <trkpt lat="44.95902" lon="-0.39794">
        <ele>7.35</ele>
        <time>2021-02-06T09:42:00Z</time>
      </trkpt>
      <trkpt lat="44.95892" lon="-0.39778">
        <ele>8.31</ele>
        <time>2021-02-06T09:42:13Z</time>
      </trkpt>
      <trkpt lat="44.9589" lon="-0.39775">
        <ele>7.35</ele>
        <time>2021-02-06T09:42:15Z</time>
      </trkpt>
      <trkpt lat="44.95887" lon="-0.39767">
        <ele>8.31</ele>
        <time>2021-02-06T09:42:20Z</time>
      </trkpt>
      <trkpt lat="44.95882" lon="-0.39758">
        <ele>7.83</ele>
        <time>2021-02-06T09:42:27Z</time>
      </trkpt>
      <trkpt lat="44.95881" lon="-0.39754">
        <ele>7.83</ele>
        <time>2021-02-06T09:42:29Z</time>
      </trkpt>
      <trkpt lat="44.95878" lon="-0.39747">
        <ele>8.79</ele>
        <time>2021-02-06T09:42:34Z</time>
      </trkpt>
      <trkpt lat="44.95869" lon="-0.39728">
        <ele>8.79</ele>
        <time>2021-02-06T09:42:47Z</time>
      </trkpt>
      <trkpt lat="44.95858" lon="-0.39702">
        <ele>7.35</ele>
        <time>2021-02-06T09:43:03Z</time>
      </trkpt>
      <trkpt lat="44.95855" lon="-0.39695">
        <ele>8.79</ele>
        <time>2021-02-06T09:43:08Z</time>
      </trkpt>
      <trkpt lat="44.95847" lon="-0.39679">
        <ele>7.35</ele>
        <time>2021-02-06T09:43:24Z</time>
      </trkpt>
      <trkpt lat="44.95843" lon="-0.39677">
        <ele>8.31</ele>
        <time>2021-02-06T09:43:38Z</time>
      </trkpt>
      <trkpt lat="44.95846" lon="-0.3968">
        <ele>8.31</ele>
        <time>2021-02-06T09:44:05Z</time>
      </trkpt>
      <trkpt lat="44.95847" lon="-0.3968">
        <ele>8.31</ele>
        <time>2021-02-06T09:44:16Z</time>
      </trkpt>
      <trkpt lat="44.95848" lon="-0.3968">
        <ele>6.39</ele>
        <time>2021-02-06T09:44:23Z</time>
      </trkpt>
      <trkpt lat="44.95848" lon="-0.3968">
        <ele>8.31</ele>
        <time>2021-02-06T09:44:25Z</time>
      </trkpt>
      <trkpt lat="44.95847" lon="-0.3968">
        <ele>6.87</ele>
        <time>2021-02-06T09:44:29Z</time>
      </trkpt>
      <trkpt lat="44.95846" lon="-0.3968">
        <ele>8.31</ele>
        <time>2021-02-06T09:44:36Z</time>
      </trkpt>
      <trkpt lat="44.95845" lon="-0.39678">
        <ele>7.83</ele>
        <time>2021-02-06T09:44:59Z</time>
      </trkpt>
      <trkpt lat="44.95848" lon="-0.39679">
        <ele>7.83</ele>
        <time>2021-02-06T09:45:30Z</time>
      </trkpt>
      <trkpt lat="44.95846" lon="-0.3968">
        <ele>7.83</ele>
        <time>2021-02-06T09:45:56Z</time>
      </trkpt>
      <trkpt lat="44.95846" lon="-0.39681">
        <ele>6.39</ele>
        <time>2021-02-06T09:46:05Z</time>
      </trkpt>
      <trkpt lat="44.95846" lon="-0.39679">
        <ele>7.83</ele>
        <time>2021-02-06T09:46:25Z</time>
      </trkpt>
      <trkpt lat="44.95846" lon="-0.39682">
        <ele>6.39</ele>
        <time>2021-02-06T09:47:01Z</time>
      </trkpt>
      <trkpt lat="44.95847" lon="-0.39677">
        <ele>6.39</ele>
        <time>2021-02-06T09:47:33Z</time>
      </trkpt>
      <trkpt lat="44.95843" lon="-0.39679">
        <ele>6.39</ele>
        <time>2021-02-06T09:48:07Z</time>
      </trkpt>
      <trkpt lat="44.95843" lon="-0.39679">
        <ele>6.87</ele>
        <time>2021-02-06T09:48:15Z</time>
      </trkpt>
      <trkpt lat="44.95844" lon="-0.39682">
        <ele>6.87</ele>
        <time>2021-02-06T09:48:42Z</time>
      </trkpt>
      <trkpt lat="44.95842" lon="-0.3968">
        <ele>3.02</ele>
        <time>2021-02-06T09:48:54Z</time>
      </trkpt>
      <trkpt lat="44.95843" lon="-0.3968">
        <ele>9.75</ele>
        <time>2021-02-06T09:48:55Z</time>
      </trkpt>
      <trkpt lat="44.95844" lon="-0.39681">
        <ele>6.39</ele>
        <time>2021-02-06T09:48:57Z</time>
      </trkpt>
      <trkpt lat="44.95846" lon="-0.3968">
        <ele>6.87</ele>
        <time>2021-02-06T09:49:21Z</time>
      </trkpt>
      <trkpt lat="44.95843" lon="-0.39678">
        <ele>6.87</ele>
        <time>2021-02-06T09:49:45Z</time>
      </trkpt>
      <trkpt lat="44.95846" lon="-0.3968">
        <ele>6.87</ele>
        <time>2021-02-06T09:50:24Z</time>
      </trkpt>
      <trkpt lat="44.95846" lon="-0.39682">
        <ele>6.87</ele>
        <time>2021-02-06T09:50:51Z</time>
      </trkpt>
      <trkpt lat="44.95845" lon="-0.39682">
        <ele>5.42</ele>
        <time>2021-02-06T09:51:16Z</time>
      </trkpt>
      <trkpt lat="44.95843" lon="-0.3968">
        <ele>5.42</ele>
        <time>2021-02-06T09:51:53Z</time>
      </trkpt>
      <trkpt lat="44.95848" lon="-0.39682">
        <ele>5.42</ele>
        <time>2021-02-06T09:52:34Z</time>
      </trkpt>
      <trkpt lat="44.95845" lon="-0.39679">
        <ele>5.42</ele>
        <time>2021-02-06T09:53:03Z</time>
      </trkpt>
      <trkpt lat="44.95848" lon="-0.39681">
        <ele>5.42</ele>
        <time>2021-02-06T09:53:36Z</time>
      </trkpt>
      <trkpt lat="44.95844" lon="-0.3968">
        <ele>6.87</ele>
        <time>2021-02-06T09:53:52Z</time>
      </trkpt>
      <trkpt lat="44.95844" lon="-0.39674">
        <ele>6.39</ele>
        <time>2021-02-06T09:54:15Z</time>
      </trkpt>
      <trkpt lat="44.95835" lon="-0.39651">
        <ele>6.39</ele>
        <time>2021-02-06T09:54:31Z</time>
      </trkpt>
      <trkpt lat="44.95827" lon="-0.39634">
        <ele>6.39</ele>
        <time>2021-02-06T09:54:43Z</time>
      </trkpt>
      <trkpt lat="44.95825" lon="-0.39629">
        <ele>5.42</ele>
        <time>2021-02-06T09:54:46Z</time>
      </trkpt>
      <trkpt lat="44.95814" lon="-0.39601">
        <ele>4.94</ele>
        <time>2021-02-06T09:55:03Z</time>
      </trkpt>
      <trkpt lat="44.95804" lon="-0.39573">
        <ele>4.46</ele>
        <time>2021-02-06T09:55:20Z</time>
      </trkpt>
      <trkpt lat="44.95794" lon="-0.39549">
        <ele>4.46</ele>
        <time>2021-02-06T09:55:35Z</time>
      </trkpt>
      <trkpt lat="44.95792" lon="-0.39544">
        <ele>3.02</ele>
        <time>2021-02-06T09:55:38Z</time>
      </trkpt>
      <trkpt lat="44.95791" lon="-0.39541">
        <ele>4.94</ele>
        <time>2021-02-06T09:55:40Z</time>
      </trkpt>
      <trkpt lat="44.95788" lon="-0.39535">
        <ele>3.98</ele>
        <time>2021-02-06T09:55:44Z</time>
      </trkpt>
      <trkpt lat="44.95778" lon="-0.3951">
        <ele>3.02</ele>
        <time>2021-02-06T09:56:00Z</time>
      </trkpt>
      <trkpt lat="44.9577" lon="-0.39484">
        <ele>2.54</ele>
        <time>2021-02-06T09:56:16Z</time>
      </trkpt>
      <trkpt lat="44.9577" lon="-0.39479">
        <ele>3.5</ele>
        <time>2021-02-06T09:56:19Z</time>
      </trkpt>
      <trkpt lat="44.95771" lon="-0.39477">
        <ele>3.5</ele>
        <time>2021-02-06T09:56:20Z</time>
      </trkpt>
      <trkpt lat="44.95777" lon="-0.39472">
        <ele>4.46</ele>
        <time>2021-02-06T09:56:26Z</time>
      </trkpt>
      <trkpt lat="44.9579" lon="-0.39465">
        <ele>3.5</ele>
        <time>2021-02-06T09:56:37Z</time>
      </trkpt>
      <trkpt lat="44.95806" lon="-0.39452">
        <ele>5.42</ele>
        <time>2021-02-06T09:56:53Z</time>
      </trkpt>
      <trkpt lat="44.95824" lon="-0.3944">
        <ele>5.91</ele>
        <time>2021-02-06T09:57:08Z</time>
      </trkpt>
      <trkpt lat="44.95845" lon="-0.3943">
        <ele>7.35</ele>
        <time>2021-02-06T09:57:25Z</time>
      </trkpt>
      <trkpt lat="44.95861" lon="-0.39422">
        <ele>7.83</ele>
        <time>2021-02-06T09:57:39Z</time>
      </trkpt>
      <trkpt lat="44.9588" lon="-0.39413">
        <ele>8.31</ele>
        <time>2021-02-06T09:57:55Z</time>
      </trkpt>
      <trkpt lat="44.95895" lon="-0.39402">
        <ele>9.75</ele>
        <time>2021-02-06T09:58:10Z</time>
      </trkpt>
      <trkpt lat="44.95914" lon="-0.39393">
        <ele>10.23</ele>
        <time>2021-02-06T09:58:26Z</time>
      </trkpt>
      <trkpt lat="44.95933" lon="-0.39381">
        <ele>12.63</ele>
        <time>2021-02-06T09:58:44Z</time>
      </trkpt>
      <trkpt lat="44.95943" lon="-0.39373">
        <ele>12.63</ele>
        <time>2021-02-06T09:58:54Z</time>
      </trkpt>
      <trkpt lat="44.95944" lon="-0.39366">
        <ele>12.63</ele>
        <time>2021-02-06T09:58:59Z</time>
      </trkpt>
      <trkpt lat="44.95943" lon="-0.39361">
        <ele>11.67</ele>
        <time>2021-02-06T09:59:03Z</time>
      </trkpt>
      <trkpt lat="44.9594" lon="-0.39354">
        <ele>13.12</ele>
        <time>2021-02-06T09:59:09Z</time>
      </trkpt>
      <trkpt lat="44.95939" lon="-0.39349">
        <ele>11.67</ele>
        <time>2021-02-06T09:59:12Z</time>
      </trkpt>
      <trkpt lat="44.95939" lon="-0.39348">
        <ele>11.67</ele>
        <time>2021-02-06T09:59:13Z</time>
      </trkpt>
      <trkpt lat="44.9593" lon="-0.39332">
        <ele>12.15</ele>
        <time>2021-02-06T09:59:25Z</time>
      </trkpt>
      <trkpt lat="44.95926" lon="-0.39321">
        <ele>10.71</ele>
        <time>2021-02-06T09:59:32Z</time>
      </trkpt>
      <trkpt lat="44.95922" lon="-0.39313">
        <ele>11.67</ele>
        <time>2021-02-06T09:59:38Z</time>
      </trkpt>
      <trkpt lat="44.95922" lon="-0.3931">
        <ele>9.75</ele>
        <time>2021-02-06T09:59:40Z</time>
      </trkpt>
      <trkpt lat="44.95916" lon="-0.39294">
        <ele>11.67</ele>
        <time>2021-02-06T09:59:50Z</time>
      </trkpt>
      <trkpt lat="44.95912" lon="-0.39286">
        <ele>9.75</ele>
        <time>2021-02-06T09:59:56Z</time>
      </trkpt>
      <trkpt lat="44.95911" lon="-0.39278">
        <ele>9.75</ele>
        <time>2021-02-06T10:00:00Z</time>
      </trkpt>
      <trkpt lat="44.95902" lon="-0.39259">
        <ele>10.71</ele>
        <time>2021-02-06T10:00:14Z</time>
      </trkpt>
      <trkpt lat="44.95899" lon="-0.39246">
        <ele>9.75</ele>
        <time>2021-02-06T10:00:23Z</time>
      </trkpt>
      <trkpt lat="44.95897" lon="-0.39243">
        <ele>11.19</ele>
        <time>2021-02-06T10:00:26Z</time>
      </trkpt>
      <trkpt lat="44.95896" lon="-0.39241">
        <ele>9.75</ele>
        <time>2021-02-06T10:00:28Z</time>
      </trkpt>
      <trkpt lat="44.95893" lon="-0.39235">
        <ele>10.71</ele>
        <time>2021-02-06T10:00:33Z</time>
      </trkpt>
      <trkpt lat="44.9589" lon="-0.39234">
        <ele>9.75</ele>
        <time>2021-02-06T10:00:36Z</time>
      </trkpt>
      <trkpt lat="44.95873" lon="-0.39231">
        <ele>8.31</ele>
        <time>2021-02-06T10:00:51Z</time>
      </trkpt>
      <trkpt lat="44.95855" lon="-0.39236">
        <ele>7.83</ele>
        <time>2021-02-06T10:01:06Z</time>
      </trkpt>
      <trkpt lat="44.95841" lon="-0.39243">
        <ele>7.83</ele>
        <time>2021-02-06T10:01:19Z</time>
      </trkpt>
      <trkpt lat="44.95839" lon="-0.39245">
        <ele>6.39</ele>
        <time>2021-02-06T10:01:21Z</time>
      </trkpt>
      <trkpt lat="44.95822" lon="-0.39254">
        <ele>5.91</ele>
        <time>2021-02-06T10:01:36Z</time>
      </trkpt>
      <trkpt lat="44.95812" lon="-0.39262">
        <ele>4.94</ele>
        <time>2021-02-06T10:01:45Z</time>
      </trkpt>
      <trkpt lat="44.9581" lon="-0.39264">
        <ele>6.39</ele>
        <time>2021-02-06T10:01:47Z</time>
      </trkpt>
      <trkpt lat="44.95804" lon="-0.39267">
        <ele>4.94</ele>
        <time>2021-02-06T10:01:52Z</time>
      </trkpt>
      <trkpt lat="44.95801" lon="-0.39268">
        <ele>6.39</ele>
        <time>2021-02-06T10:01:54Z</time>
      </trkpt>
      <trkpt lat="44.95791" lon="-0.39273">
        <ele>4.94</ele>
        <time>2021-02-06T10:02:04Z</time>
      </trkpt>
      <trkpt lat="44.95788" lon="-0.39274">
        <ele>6.39</ele>
        <time>2021-02-06T10:02:06Z</time>
      </trkpt>
      <trkpt lat="44.95786" lon="-0.39275">
        <ele>4.94</ele>
        <time>2021-02-06T10:02:08Z</time>
      </trkpt>
      <trkpt lat="44.95775" lon="-0.39277">
        <ele>6.39</ele>
        <time>2021-02-06T10:02:17Z</time>
      </trkpt>
      <trkpt lat="44.95773" lon="-0.39274">
        <ele>4.94</ele>
        <time>2021-02-06T10:02:20Z</time>
      </trkpt>
      <trkpt lat="44.95768" lon="-0.39264">
        <ele>3.98</ele>
        <time>2021-02-06T10:02:27Z</time>
      </trkpt>
      <trkpt lat="44.95759" lon="-0.39241">
        <ele>4.46</ele>
        <time>2021-02-06T10:02:43Z</time>
      </trkpt>
      <trkpt lat="44.95752" lon="-0.39225">
        <ele>3.5</ele>
        <time>2021-02-06T10:02:55Z</time>
      </trkpt>
      <trkpt lat="44.95746" lon="-0.3921">
        <ele>3.5</ele>
        <time>2021-02-06T10:03:05Z</time>
      </trkpt>
      <trkpt lat="44.9574" lon="-0.39186">
        <ele>4.46</ele>
        <time>2021-02-06T10:03:20Z</time>
      </trkpt>
      <trkpt lat="44.95735" lon="-0.39166">
        <ele>3.02</ele>
        <time>2021-02-06T10:03:34Z</time>
      </trkpt>
      <trkpt lat="44.95733" lon="-0.3916">
        <ele>3.02</ele>
        <time>2021-02-06T10:03:38Z</time>
      </trkpt>
      <trkpt lat="44.95732" lon="-0.39156">
        <ele>1.58</ele>
        <time>2021-02-06T10:03:41Z</time>
      </trkpt>
      <trkpt lat="44.95732" lon="-0.39151">
        <ele>3.5</ele>
        <time>2021-02-06T10:03:44Z</time>
      </trkpt>
      <trkpt lat="44.95733" lon="-0.39148">
        <ele>2.54</ele>
        <time>2021-02-06T10:03:46Z</time>
      </trkpt>
      <trkpt lat="44.95734" lon="-0.39139">
        <ele>3.5</ele>
        <time>2021-02-06T10:03:51Z</time>
      </trkpt>
      <trkpt lat="44.95734" lon="-0.39134">
        <ele>3.02</ele>
        <time>2021-02-06T10:03:54Z</time>
      </trkpt>
      <trkpt lat="44.95728" lon="-0.39112">
        <ele>3.02</ele>
        <time>2021-02-06T10:04:09Z</time>
      </trkpt>
      <trkpt lat="44.95728" lon="-0.3911">
        <ele>1.58</ele>
        <time>2021-02-06T10:04:11Z</time>
      </trkpt>
      <trkpt lat="44.95727" lon="-0.39106">
        <ele>3.02</ele>
        <time>2021-02-06T10:04:13Z</time>
      </trkpt>
      <trkpt lat="44.95726" lon="-0.39103">
        <ele>1.1</ele>
        <time>2021-02-06T10:04:15Z</time>
      </trkpt>
      <trkpt lat="44.95726" lon="-0.39102">
        <ele>1.1</ele>
        <time>2021-02-06T10:04:16Z</time>
      </trkpt>
      <trkpt lat="44.95719" lon="-0.39076">
        <ele>1.1</ele>
        <time>2021-02-06T10:04:34Z</time>
      </trkpt>
      <trkpt lat="44.95721" lon="-0.3907">
        <ele>-3.23</ele>
        <time>2021-02-06T10:04:50Z</time>
      </trkpt>
      <trkpt lat="44.95721" lon="-0.3907">
        <ele>4.94</ele>
        <time>2021-02-06T10:04:51Z</time>
      </trkpt>
      <trkpt lat="44.95721" lon="-0.39069">
        <ele>3.02</ele>
        <time>2021-02-06T10:04:52Z</time>
      </trkpt>
      <trkpt lat="44.9572" lon="-0.39067">
        <ele>2.06</ele>
        <time>2021-02-06T10:05:16Z</time>
      </trkpt>
      <trkpt lat="44.9572" lon="-0.39069">
        <ele>2.06</ele>
        <time>2021-02-06T10:05:34Z</time>
      </trkpt>
      <trkpt lat="44.9572" lon="-0.39069">
        <ele>3.98</ele>
        <time>2021-02-06T10:05:37Z</time>
      </trkpt>
      <trkpt lat="44.9572" lon="-0.3907">
        <ele>2.06</ele>
        <time>2021-02-06T10:05:40Z</time>
      </trkpt>
      <trkpt lat="44.95719" lon="-0.39069">
        <ele>3.02</ele>
        <time>2021-02-06T10:06:01Z</time>
      </trkpt>
      <trkpt lat="44.95717" lon="-0.39068">
        <ele>3.02</ele>
        <time>2021-02-06T10:06:24Z</time>
      </trkpt>
      <trkpt lat="44.95716" lon="-0.39058">
        <ele>3.02</ele>
        <time>2021-02-06T10:06:41Z</time>
      </trkpt>
      <trkpt lat="44.95713" lon="-0.39049">
        <ele>3.5</ele>
        <time>2021-02-06T10:06:48Z</time>
      </trkpt>
      <trkpt lat="44.9571" lon="-0.39043">
        <ele>3.5</ele>
        <time>2021-02-06T10:06:53Z</time>
      </trkpt>
      <trkpt lat="44.95708" lon="-0.39042">
        <ele>1.58</ele>
        <time>2021-02-06T10:06:55Z</time>
      </trkpt>
      <trkpt lat="44.95707" lon="-0.3904">
        <ele>3.02</ele>
        <time>2021-02-06T10:06:57Z</time>
      </trkpt>
      <trkpt lat="44.957" lon="-0.39023">
        <ele>3.5</ele>
        <time>2021-02-06T10:07:11Z</time>
      </trkpt>
      <trkpt lat="44.95697" lon="-0.39017">
        <ele>3.5</ele>
        <time>2021-02-06T10:07:16Z</time>
      </trkpt>
      <trkpt lat="44.95687" lon="-0.38998">
        <ele>3.5</ele>
        <time>2021-02-06T10:07:32Z</time>
      </trkpt>
      <trkpt lat="44.95686" lon="-0.38996">
        <ele>3.5</ele>
        <time>2021-02-06T10:07:34Z</time>
      </trkpt>
      <trkpt lat="44.95684" lon="-0.38991">
        <ele>4.94</ele>
        <time>2021-02-06T10:07:38Z</time>
      </trkpt>
      <trkpt lat="44.95682" lon="-0.38987">
        <ele>4.94</ele>
        <time>2021-02-06T10:07:41Z</time>
      </trkpt>
      <trkpt lat="44.9568" lon="-0.3898">
        <ele>5.42</ele>
        <time>2021-02-06T10:07:47Z</time>
      </trkpt>
      <trkpt lat="44.95668" lon="-0.3897">
        <ele>5.42</ele>
        <time>2021-02-06T10:08:03Z</time>
      </trkpt>
      <trkpt lat="44.95667" lon="-0.38969">
        <ele>5.91</ele>
        <time>2021-02-06T10:08:04Z</time>
      </trkpt>
      <trkpt lat="44.95661" lon="-0.38965">
        <ele>4.46</ele>
        <time>2021-02-06T10:08:10Z</time>
      </trkpt>
      <trkpt lat="44.95648" lon="-0.38956">
        <ele>3.98</ele>
        <time>2021-02-06T10:08:22Z</time>
      </trkpt>
      <trkpt lat="44.95637" lon="-0.38951">
        <ele>3.5</ele>
        <time>2021-02-06T10:08:31Z</time>
      </trkpt>
      <trkpt lat="44.95621" lon="-0.38943">
        <ele>2.54</ele>
        <time>2021-02-06T10:08:45Z</time>
      </trkpt>
      <trkpt lat="44.95603" lon="-0.38941">
        <ele>1.58</ele>
        <time>2021-02-06T10:09:00Z</time>
      </trkpt>
      <trkpt lat="44.95601" lon="-0.38941">
        <ele>1.58</ele>
        <time>2021-02-06T10:09:01Z</time>
      </trkpt>
      <trkpt lat="44.9559" lon="-0.3894">
        <ele>1.1</ele>
        <time>2021-02-06T10:09:10Z</time>
      </trkpt>
      <trkpt lat="44.95583" lon="-0.38939">
        <ele>2.06</ele>
        <time>2021-02-06T10:09:16Z</time>
      </trkpt>
      <trkpt lat="44.95571" lon="-0.38942">
        <ele>1.1</ele>
        <time>2021-02-06T10:09:26Z</time>
      </trkpt>
      <trkpt lat="44.95555" lon="-0.38944">
        <ele>1.1</ele>
        <time>2021-02-06T10:09:39Z</time>
      </trkpt>
      <trkpt lat="44.95546" lon="-0.38947">
        <ele>2.06</ele>
        <time>2021-02-06T10:09:47Z</time>
      </trkpt>
      <trkpt lat="44.95528" lon="-0.38953">
        <ele>0.62</ele>
        <time>2021-02-06T10:10:02Z</time>
      </trkpt>
      <trkpt lat="44.95511" lon="-0.3896">
        <ele>0.14</ele>
        <time>2021-02-06T10:10:16Z</time>
      </trkpt>
      <trkpt lat="44.95494" lon="-0.38967">
        <ele>1.1</ele>
        <time>2021-02-06T10:10:30Z</time>
      </trkpt>
      <trkpt lat="44.95484" lon="-0.38971">
        <ele>-0.34</ele>
        <time>2021-02-06T10:10:38Z</time>
      </trkpt>
      <trkpt lat="44.9548" lon="-0.38971">
        <ele>1.1</ele>
        <time>2021-02-06T10:10:41Z</time>
      </trkpt>
      <trkpt lat="44.95478" lon="-0.38971">
        <ele>-0.34</ele>
        <time>2021-02-06T10:10:43Z</time>
      </trkpt>
      <trkpt lat="44.95475" lon="-0.38971">
        <ele>1.1</ele>
        <time>2021-02-06T10:10:45Z</time>
      </trkpt>
      <trkpt lat="44.95469" lon="-0.38949">
        <ele>1.58</ele>
        <time>2021-02-06T10:10:58Z</time>
      </trkpt>
      <trkpt lat="44.95469" lon="-0.38946">
        <ele>0.14</ele>
        <time>2021-02-06T10:11:00Z</time>
      </trkpt>
      <trkpt lat="44.95468" lon="-0.38919">
        <ele>1.1</ele>
        <time>2021-02-06T10:11:16Z</time>
      </trkpt>
      <trkpt lat="44.95467" lon="-0.38908">
        <ele>-0.34</ele>
        <time>2021-02-06T10:11:23Z</time>
      </trkpt>
      <trkpt lat="44.95466" lon="-0.38891">
        <ele>-0.82</ele>
        <time>2021-02-06T10:11:34Z</time>
      </trkpt>
      <trkpt lat="44.95459" lon="-0.38886">
        <ele>0.62</ele>
        <time>2021-02-06T10:11:40Z</time>
      </trkpt>
      <trkpt lat="44.95457" lon="-0.38885">
        <ele>-0.82</ele>
        <time>2021-02-06T10:11:42Z</time>
      </trkpt>
      <trkpt lat="44.95442" lon="-0.38886">
        <ele>0.62</ele>
        <time>2021-02-06T10:11:54Z</time>
      </trkpt>
      <trkpt lat="44.95431" lon="-0.38879">
        <ele>0.62</ele>
        <time>2021-02-06T10:12:05Z</time>
      </trkpt>
      <trkpt lat="44.95423" lon="-0.38862">
        <ele>-0.82</ele>
        <time>2021-02-06T10:12:19Z</time>
      </trkpt>
      <trkpt lat="44.9542" lon="-0.38859">
        <ele>0.62</ele>
        <time>2021-02-06T10:12:21Z</time>
      </trkpt>
      <trkpt lat="44.95414" lon="-0.38856">
        <ele>-0.82</ele>
        <time>2021-02-06T10:12:28Z</time>
      </trkpt>
      <trkpt lat="44.95391" lon="-0.38852">
        <ele>0.62</ele>
        <time>2021-02-06T10:12:45Z</time>
      </trkpt>
      <trkpt lat="44.95382" lon="-0.3885">
        <ele>-0.82</ele>
        <time>2021-02-06T10:12:53Z</time>
      </trkpt>
      <trkpt lat="44.9538" lon="-0.3885">
        <ele>0.62</ele>
        <time>2021-02-06T10:12:55Z</time>
      </trkpt>
      <trkpt lat="44.95373" lon="-0.38848">
        <ele>-0.34</ele>
        <time>2021-02-06T10:13:01Z</time>
      </trkpt>
      <trkpt lat="44.9537" lon="-0.38846">
        <ele>1.1</ele>
        <time>2021-02-06T10:13:03Z</time>
      </trkpt>
      <trkpt lat="44.95359" lon="-0.38835">
        <ele>-0.34</ele>
        <time>2021-02-06T10:13:14Z</time>
      </trkpt>
      <trkpt lat="44.95348" lon="-0.38818">
        <ele>0.62</ele>
        <time>2021-02-06T10:13:29Z</time>
      </trkpt>
      <trkpt lat="44.95338" lon="-0.38802">
        <ele>-0.34</ele>
        <time>2021-02-06T10:13:44Z</time>
      </trkpt>
      <trkpt lat="44.95336" lon="-0.388">
        <ele>0.62</ele>
        <time>2021-02-06T10:13:46Z</time>
      </trkpt>
      <trkpt lat="44.95329" lon="-0.38791">
        <ele>-0.34</ele>
        <time>2021-02-06T10:13:55Z</time>
      </trkpt>
      <trkpt lat="44.95324" lon="-0.38786">
        <ele>0.14</ele>
        <time>2021-02-06T10:14:01Z</time>
      </trkpt>
      <trkpt lat="44.95324" lon="-0.38785">
        <ele>-0.34</ele>
        <time>2021-02-06T10:14:02Z</time>
      </trkpt>
      <trkpt lat="44.95318" lon="-0.38782">
        <ele>-0.34</ele>
        <time>2021-02-06T10:14:06Z</time>
      </trkpt>
      <trkpt lat="44.95316" lon="-0.38779">
        <ele>1.1</ele>
        <time>2021-02-06T10:14:08Z</time>
      </trkpt>
      <trkpt lat="44.95314" lon="-0.38774">
        <ele>-0.34</ele>
        <time>2021-02-06T10:14:11Z</time>
      </trkpt>
      <trkpt lat="44.95309" lon="-0.38756">
        <ele>1.1</ele>
        <time>2021-02-06T10:14:23Z</time>
      </trkpt>
      <trkpt lat="44.95306" lon="-0.38735">
        <ele>-0.34</ele>
        <time>2021-02-06T10:14:35Z</time>
      </trkpt>
      <trkpt lat="44.95301" lon="-0.38711">
        <ele>0.14</ele>
        <time>2021-02-06T10:14:51Z</time>
      </trkpt>
      <trkpt lat="44.95301" lon="-0.38709">
        <ele>0.14</ele>
        <time>2021-02-06T10:14:52Z</time>
      </trkpt>
      <trkpt lat="44.95299" lon="-0.38686">
        <ele>1.1</ele>
        <time>2021-02-06T10:15:07Z</time>
      </trkpt>
      <trkpt lat="44.95299" lon="-0.38684">
        <ele>1.1</ele>
        <time>2021-02-06T10:15:08Z</time>
      </trkpt>
      <trkpt lat="44.95298" lon="-0.38669">
        <ele>0.62</ele>
        <time>2021-02-06T10:15:18Z</time>
      </trkpt>
      <trkpt lat="44.95298" lon="-0.38665">
        <ele>0.62</ele>
        <time>2021-02-06T10:15:21Z</time>
      </trkpt>
      <trkpt lat="44.95297" lon="-0.38659">
        <ele>0.14</ele>
        <time>2021-02-06T10:15:25Z</time>
      </trkpt>
      <trkpt lat="44.95297" lon="-0.38654">
        <ele>0.62</ele>
        <time>2021-02-06T10:15:29Z</time>
      </trkpt>
      <trkpt lat="44.95298" lon="-0.3865">
        <ele>1.58</ele>
        <time>2021-02-06T10:15:32Z</time>
      </trkpt>
      <trkpt lat="44.95297" lon="-0.38643">
        <ele>0.14</ele>
        <time>2021-02-06T10:15:36Z</time>
      </trkpt>
      <trkpt lat="44.95296" lon="-0.38642">
        <ele>0.14</ele>
        <time>2021-02-06T10:15:37Z</time>
      </trkpt>
      <trkpt lat="44.95296" lon="-0.3862">
        <ele>1.1</ele>
        <time>2021-02-06T10:15:51Z</time>
      </trkpt>
      <trkpt lat="44.95295" lon="-0.38609">
        <ele>-0.34</ele>
        <time>2021-02-06T10:15:58Z</time>
      </trkpt>
      <trkpt lat="44.95294" lon="-0.38606">
        <ele>0.14</ele>
        <time>2021-02-06T10:16:00Z</time>
      </trkpt>
      <trkpt lat="44.95294" lon="-0.38602">
        <ele>1.58</ele>
        <time>2021-02-06T10:16:02Z</time>
      </trkpt>
      <trkpt lat="44.95295" lon="-0.38593">
        <ele>0.14</ele>
        <time>2021-02-06T10:16:07Z</time>
      </trkpt>
      <trkpt lat="44.95296" lon="-0.38576">
        <ele>0.62</ele>
        <time>2021-02-06T10:16:18Z</time>
      </trkpt>
      <trkpt lat="44.95297" lon="-0.38562">
        <ele>1.58</ele>
        <time>2021-02-06T10:16:27Z</time>
      </trkpt>
      <trkpt lat="44.95298" lon="-0.3856">
        <ele>0.14</ele>
        <time>2021-02-06T10:16:29Z</time>
      </trkpt>
      <trkpt lat="44.953" lon="-0.38536">
        <ele>-0.34</ele>
        <time>2021-02-06T10:16:44Z</time>
      </trkpt>
      <trkpt lat="44.95301" lon="-0.38534">
        <ele>1.1</ele>
        <time>2021-02-06T10:16:45Z</time>
      </trkpt>
      <trkpt lat="44.95304" lon="-0.38508">
        <ele>1.58</ele>
        <time>2021-02-06T10:17:01Z</time>
      </trkpt>
      <trkpt lat="44.95306" lon="-0.38477">
        <ele>1.58</ele>
        <time>2021-02-06T10:17:18Z</time>
      </trkpt>
      <trkpt lat="44.95306" lon="-0.38472">
        <ele>0.14</ele>
        <time>2021-02-06T10:17:21Z</time>
      </trkpt>
      <trkpt lat="44.95307" lon="-0.38468">
        <ele>2.06</ele>
        <time>2021-02-06T10:17:23Z</time>
      </trkpt>
      <trkpt lat="44.95307" lon="-0.38463">
        <ele>0.62</ele>
        <time>2021-02-06T10:17:26Z</time>
      </trkpt>
      <trkpt lat="44.95309" lon="-0.38454">
        <ele>0.62</ele>
        <time>2021-02-06T10:17:35Z</time>
      </trkpt>
      <trkpt lat="44.95313" lon="-0.38452">
        <ele>1.1</ele>
        <time>2021-02-06T10:17:50Z</time>
      </trkpt>
      <trkpt lat="44.95314" lon="-0.3844">
        <ele>2.06</ele>
        <time>2021-02-06T10:18:09Z</time>
      </trkpt>
      <trkpt lat="44.95314" lon="-0.38433">
        <ele>1.1</ele>
        <time>2021-02-06T10:18:16Z</time>
      </trkpt>
      <trkpt lat="44.95315" lon="-0.38431">
        <ele>2.06</ele>
        <time>2021-02-06T10:18:24Z</time>
      </trkpt>
      <trkpt lat="44.95319" lon="-0.38426">
        <ele>0.62</ele>
        <time>2021-02-06T10:18:38Z</time>
      </trkpt>
      <trkpt lat="44.95323" lon="-0.38425">
        <ele>2.06</ele>
        <time>2021-02-06T10:18:41Z</time>
      </trkpt>
      <trkpt lat="44.9533" lon="-0.38422">
        <ele>1.1</ele>
        <time>2021-02-06T10:18:49Z</time>
      </trkpt>
      <trkpt lat="44.95343" lon="-0.38416">
        <ele>1.1</ele>
        <time>2021-02-06T10:19:01Z</time>
      </trkpt>
      <trkpt lat="44.9536" lon="-0.38409">
        <ele>2.06</ele>
        <time>2021-02-06T10:19:16Z</time>
      </trkpt>
      <trkpt lat="44.9537" lon="-0.38403">
        <ele>1.1</ele>
        <time>2021-02-06T10:19:24Z</time>
      </trkpt>
      <trkpt lat="44.95373" lon="-0.38401">
        <ele>3.02</ele>
        <time>2021-02-06T10:19:26Z</time>
      </trkpt>
      <trkpt lat="44.95377" lon="-0.38398">
        <ele>1.58</ele>
        <time>2021-02-06T10:19:30Z</time>
      </trkpt>
      <trkpt lat="44.95392" lon="-0.38403">
        <ele>3.02</ele>
        <time>2021-02-06T10:19:42Z</time>
      </trkpt>
      <trkpt lat="44.95394" lon="-0.38405">
        <ele>1.58</ele>
        <time>2021-02-06T10:19:44Z</time>
      </trkpt>
      <trkpt lat="44.95416" lon="-0.38419">
        <ele>3.02</ele>
        <time>2021-02-06T10:20:02Z</time>
      </trkpt>
      <trkpt lat="44.95421" lon="-0.3842">
        <ele>1.58</ele>
        <time>2021-02-06T10:20:06Z</time>
      </trkpt>
      <trkpt lat="44.95423" lon="-0.38421">
        <ele>3.02</ele>
        <time>2021-02-06T10:20:08Z</time>
      </trkpt>
      <trkpt lat="44.95441" lon="-0.3843">
        <ele>1.58</ele>
        <time>2021-02-06T10:20:20Z</time>
      </trkpt>
      <trkpt lat="44.95445" lon="-0.38432">
        <ele>3.02</ele>
        <time>2021-02-06T10:20:22Z</time>
      </trkpt>
      <trkpt lat="44.95451" lon="-0.38437">
        <ele>1.58</ele>
        <time>2021-02-06T10:20:26Z</time>
      </trkpt>
      <trkpt lat="44.95454" lon="-0.38439">
        <ele>3.02</ele>
        <time>2021-02-06T10:20:28Z</time>
      </trkpt>
      <trkpt lat="44.95476" lon="-0.38452">
        <ele>3.02</ele>
        <time>2021-02-06T10:20:43Z</time>
      </trkpt>
      <trkpt lat="44.95477" lon="-0.38453">
        <ele>3.02</ele>
        <time>2021-02-06T10:20:44Z</time>
      </trkpt>
      <trkpt lat="44.9549" lon="-0.38456">
        <ele>1.58</ele>
        <time>2021-02-06T10:20:56Z</time>
      </trkpt>
      <trkpt lat="44.95495" lon="-0.3846">
        <ele>2.06</ele>
        <time>2021-02-06T10:21:00Z</time>
      </trkpt>
      <trkpt lat="44.95505" lon="-0.38462">
        <ele>0.14</ele>
        <time>2021-02-06T10:21:09Z</time>
      </trkpt>
      <trkpt lat="44.95506" lon="-0.38462">
        <ele>3.5</ele>
        <time>2021-02-06T10:21:11Z</time>
      </trkpt>
      <trkpt lat="44.9551" lon="-0.38464">
        <ele>2.06</ele>
        <time>2021-02-06T10:21:14Z</time>
      </trkpt>
      <trkpt lat="44.95524" lon="-0.38471">
        <ele>2.06</ele>
        <time>2021-02-06T10:21:24Z</time>
      </trkpt>
      <trkpt lat="44.95537" lon="-0.38476">
        <ele>2.06</ele>
        <time>2021-02-06T10:21:34Z</time>
      </trkpt>
      <trkpt lat="44.95547" lon="-0.38478">
        <ele>3.5</ele>
        <time>2021-02-06T10:21:41Z</time>
      </trkpt>
      <trkpt lat="44.95557" lon="-0.38483">
        <ele>1.58</ele>
        <time>2021-02-06T10:21:48Z</time>
      </trkpt>
      <trkpt lat="44.95559" lon="-0.38484">
        <ele>3.5</ele>
        <time>2021-02-06T10:21:50Z</time>
      </trkpt>
      <trkpt lat="44.95563" lon="-0.38486">
        <ele>2.06</ele>
        <time>2021-02-06T10:21:53Z</time>
      </trkpt>
      <trkpt lat="44.95569" lon="-0.38489">
        <ele>3.5</ele>
        <time>2021-02-06T10:21:58Z</time>
      </trkpt>
      <trkpt lat="44.9559" lon="-0.38499">
        <ele>3.5</ele>
        <time>2021-02-06T10:22:15Z</time>
      </trkpt>
      <trkpt lat="44.95595" lon="-0.38501">
        <ele>2.54</ele>
        <time>2021-02-06T10:22:19Z</time>
      </trkpt>
      <trkpt lat="44.95613" lon="-0.38507">
        <ele>3.02</ele>
        <time>2021-02-06T10:22:33Z</time>
      </trkpt>
      <trkpt lat="44.9562" lon="-0.3851">
        <ele>4.46</ele>
        <time>2021-02-06T10:22:39Z</time>
      </trkpt>
      <trkpt lat="44.95643" lon="-0.38517">
        <ele>5.91</ele>
        <time>2021-02-06T10:22:59Z</time>
      </trkpt>
      <trkpt lat="44.9566" lon="-0.38525">
        <ele>6.87</ele>
        <time>2021-02-06T10:23:17Z</time>
      </trkpt>
      <trkpt lat="44.95667" lon="-0.38527">
        <ele>9.27</ele>
        <time>2021-02-06T10:23:24Z</time>
      </trkpt>
      <trkpt lat="44.95676" lon="-0.38527">
        <ele>11.19</ele>
        <time>2021-02-06T10:23:32Z</time>
      </trkpt>
      <trkpt lat="44.95678" lon="-0.38526">
        <ele>10.23</ele>
        <time>2021-02-06T10:23:34Z</time>
      </trkpt>
      <trkpt lat="44.95682" lon="-0.38522">
        <ele>11.67</ele>
        <time>2021-02-06T10:23:38Z</time>
      </trkpt>
      <trkpt lat="44.95691" lon="-0.38507">
        <ele>14.08</ele>
        <time>2021-02-06T10:23:52Z</time>
      </trkpt>
      <trkpt lat="44.95692" lon="-0.38504">
        <ele>10.71</ele>
        <time>2021-02-06T10:23:54Z</time>
      </trkpt>
      <trkpt lat="44.95692" lon="-0.38503">
        <ele>13.6</ele>
        <time>2021-02-06T10:23:55Z</time>
      </trkpt>
      <trkpt lat="44.95695" lon="-0.38498">
        <ele>13.6</ele>
        <time>2021-02-06T10:23:59Z</time>
      </trkpt>
      <trkpt lat="44.95698" lon="-0.38485">
        <ele>15.04</ele>
        <time>2021-02-06T10:24:06Z</time>
      </trkpt>
      <trkpt lat="44.95705" lon="-0.38464">
        <ele>14.08</ele>
        <time>2021-02-06T10:24:20Z</time>
      </trkpt>
      <trkpt lat="44.95708" lon="-0.38458">
        <ele>17.44</ele>
        <time>2021-02-06T10:24:24Z</time>
      </trkpt>
      <trkpt lat="44.95709" lon="-0.38457">
        <ele>17.44</ele>
        <time>2021-02-06T10:24:25Z</time>
      </trkpt>
      <trkpt lat="44.9571" lon="-0.38454">
        <ele>16.48</ele>
        <time>2021-02-06T10:24:27Z</time>
      </trkpt>
      <trkpt lat="44.95711" lon="-0.38451">
        <ele>17.44</ele>
        <time>2021-02-06T10:24:29Z</time>
      </trkpt>
      <trkpt lat="44.95717" lon="-0.38437">
        <ele>19.36</ele>
        <time>2021-02-06T10:24:40Z</time>
      </trkpt>
      <trkpt lat="44.95721" lon="-0.38425">
        <ele>20.81</ele>
        <time>2021-02-06T10:24:51Z</time>
      </trkpt>
      <trkpt lat="44.95723" lon="-0.38421">
        <ele>19.84</ele>
        <time>2021-02-06T10:24:54Z</time>
      </trkpt>
      <trkpt lat="44.95724" lon="-0.38418">
        <ele>21.77</ele>
        <time>2021-02-06T10:24:56Z</time>
      </trkpt>
      <trkpt lat="44.95725" lon="-0.38411">
        <ele>22.73</ele>
        <time>2021-02-06T10:25:01Z</time>
      </trkpt>
      <trkpt lat="44.95727" lon="-0.38407">
        <ele>22.73</ele>
        <time>2021-02-06T10:25:04Z</time>
      </trkpt>
      <trkpt lat="44.95728" lon="-0.38403">
        <ele>22.25</ele>
        <time>2021-02-06T10:25:07Z</time>
      </trkpt>
      <trkpt lat="44.95729" lon="-0.38397">
        <ele>23.69</ele>
        <time>2021-02-06T10:25:11Z</time>
      </trkpt>
      <trkpt lat="44.95738" lon="-0.38376">
        <ele>26.57</ele>
        <time>2021-02-06T10:25:29Z</time>
      </trkpt>
      <trkpt lat="44.95744" lon="-0.38354">
        <ele>27.05</ele>
        <time>2021-02-06T10:25:49Z</time>
      </trkpt>
      <trkpt lat="44.95748" lon="-0.38342">
        <ele>28.02</ele>
        <time>2021-02-06T10:26:00Z</time>
      </trkpt>
      <trkpt lat="44.95752" lon="-0.38328">
        <ele>29.46</ele>
        <time>2021-02-06T10:26:16Z</time>
      </trkpt>
      <trkpt lat="44.9576" lon="-0.38308">
        <ele>30.9</ele>
        <time>2021-02-06T10:26:34Z</time>
      </trkpt>
      <trkpt lat="44.95776" lon="-0.3831">
        <ele>32.34</ele>
        <time>2021-02-06T10:26:51Z</time>
      </trkpt>
      <trkpt lat="44.95777" lon="-0.38311">
        <ele>32.34</ele>
        <time>2021-02-06T10:26:52Z</time>
      </trkpt>
      <trkpt lat="44.95789" lon="-0.38304">
        <ele>34.74</ele>
        <time>2021-02-06T10:27:11Z</time>
      </trkpt>
      <trkpt lat="44.958" lon="-0.38302">
        <ele>36.19</ele>
        <time>2021-02-06T10:27:28Z</time>
      </trkpt>
      <trkpt lat="44.95818" lon="-0.38303">
        <ele>38.59</ele>
        <time>2021-02-06T10:27:49Z</time>
      </trkpt>
      <trkpt lat="44.95826" lon="-0.38296">
        <ele>40.51</ele>
        <time>2021-02-06T10:28:05Z</time>
      </trkpt>
      <trkpt lat="44.95839" lon="-0.38294">
        <ele>43.88</ele>
        <time>2021-02-06T10:28:23Z</time>
      </trkpt>
      <trkpt lat="44.9585" lon="-0.38295">
        <ele>45.8</ele>
        <time>2021-02-06T10:28:48Z</time>
      </trkpt>
      <trkpt lat="44.95855" lon="-0.3829">
        <ele>47.24</ele>
        <time>2021-02-06T10:29:05Z</time>
      </trkpt>
      <trkpt lat="44.95867" lon="-0.38289">
        <ele>48.2</ele>
        <time>2021-02-06T10:29:18Z</time>
      </trkpt>
      <trkpt lat="44.95877" lon="-0.38283">
        <ele>47.72</ele>
        <time>2021-02-06T10:29:38Z</time>
      </trkpt>
      <trkpt lat="44.95878" lon="-0.38284">
        <ele>49.16</ele>
        <time>2021-02-06T10:29:49Z</time>
      </trkpt>
      <trkpt lat="44.95892" lon="-0.38283">
        <ele>48.68</ele>
        <time>2021-02-06T10:30:08Z</time>
      </trkpt>
      <trkpt lat="44.95894" lon="-0.38283">
        <ele>49.16</ele>
        <time>2021-02-06T10:30:12Z</time>
      </trkpt>
      <trkpt lat="44.959" lon="-0.38286">
        <ele>49.65</ele>
        <time>2021-02-06T10:30:18Z</time>
      </trkpt>
      <trkpt lat="44.9591" lon="-0.38281">
        <ele>49.65</ele>
        <time>2021-02-06T10:30:27Z</time>
      </trkpt>
      <trkpt lat="44.9593" lon="-0.38277">
        <ele>50.61</ele>
        <time>2021-02-06T10:30:44Z</time>
      </trkpt>
      <trkpt lat="44.95934" lon="-0.38276">
        <ele>49.16</ele>
        <time>2021-02-06T10:30:48Z</time>
      </trkpt>
      <trkpt lat="44.95941" lon="-0.38273">
        <ele>50.13</ele>
        <time>2021-02-06T10:30:55Z</time>
      </trkpt>
      <trkpt lat="44.95946" lon="-0.3827">
        <ele>50.13</ele>
        <time>2021-02-06T10:31:02Z</time>
      </trkpt>
      <trkpt lat="44.95943" lon="-0.38253">
        <ele>49.16</ele>
        <time>2021-02-06T10:31:14Z</time>
      </trkpt>
      <trkpt lat="44.95941" lon="-0.38246">
        <ele>50.61</ele>
        <time>2021-02-06T10:31:19Z</time>
      </trkpt>
      <trkpt lat="44.9594" lon="-0.38242">
        <ele>49.16</ele>
        <time>2021-02-06T10:31:21Z</time>
      </trkpt>
      <trkpt lat="44.95934" lon="-0.38222">
        <ele>51.09</ele>
        <time>2021-02-06T10:31:36Z</time>
      </trkpt>
      <trkpt lat="44.95929" lon="-0.38204">
        <ele>51.57</ele>
        <time>2021-02-06T10:31:50Z</time>
      </trkpt>
      <trkpt lat="44.95921" lon="-0.38181">
        <ele>51.57</ele>
        <time>2021-02-06T10:32:06Z</time>
      </trkpt>
      <trkpt lat="44.95919" lon="-0.38175">
        <ele>50.13</ele>
        <time>2021-02-06T10:32:10Z</time>
      </trkpt>
      <trkpt lat="44.95912" lon="-0.3815">
        <ele>49.16</ele>
        <time>2021-02-06T10:32:25Z</time>
      </trkpt>
      <trkpt lat="44.95904" lon="-0.38126">
        <ele>48.68</ele>
        <time>2021-02-06T10:32:41Z</time>
      </trkpt>
      <trkpt lat="44.959" lon="-0.38099">
        <ele>48.68</ele>
        <time>2021-02-06T10:32:58Z</time>
      </trkpt>
      <trkpt lat="44.95894" lon="-0.38075">
        <ele>46.76</ele>
        <time>2021-02-06T10:33:14Z</time>
      </trkpt>
      <trkpt lat="44.9589" lon="-0.38043">
        <ele>43.88</ele>
        <time>2021-02-06T10:33:32Z</time>
      </trkpt>
      <trkpt lat="44.95887" lon="-0.38026">
        <ele>41.47</ele>
        <time>2021-02-06T10:33:43Z</time>
      </trkpt>
      <trkpt lat="44.95888" lon="-0.38021">
        <ele>41.47</ele>
        <time>2021-02-06T10:33:46Z</time>
      </trkpt>
      <trkpt lat="44.95889" lon="-0.3799">
        <ele>39.07</ele>
        <time>2021-02-06T10:34:04Z</time>
      </trkpt>
      <trkpt lat="44.95886" lon="-0.37964">
        <ele>36.19</ele>
        <time>2021-02-06T10:34:20Z</time>
      </trkpt>
      <trkpt lat="44.95885" lon="-0.37937">
        <ele>36.19</ele>
        <time>2021-02-06T10:34:36Z</time>
      </trkpt>
      <trkpt lat="44.95881" lon="-0.37911">
        <ele>33.3</ele>
        <time>2021-02-06T10:34:53Z</time>
      </trkpt>
      <trkpt lat="44.95881" lon="-0.37907">
        <ele>34.26</ele>
        <time>2021-02-06T10:34:56Z</time>
      </trkpt>
      <trkpt lat="44.95888" lon="-0.37878">
        <ele>31.86</ele>
        <time>2021-02-06T10:35:17Z</time>
      </trkpt>
      <trkpt lat="44.95894" lon="-0.37871">
        <ele>30.9</ele>
        <time>2021-02-06T10:35:23Z</time>
      </trkpt>
      <trkpt lat="44.95898" lon="-0.37862">
        <ele>32.34</ele>
        <time>2021-02-06T10:35:29Z</time>
      </trkpt>
      <trkpt lat="44.95904" lon="-0.37856">
        <ele>30.42</ele>
        <time>2021-02-06T10:35:35Z</time>
      </trkpt>
      <trkpt lat="44.9591" lon="-0.37851">
        <ele>30.42</ele>
        <time>2021-02-06T10:35:42Z</time>
      </trkpt>
      <trkpt lat="44.95938" lon="-0.37842">
        <ele>29.94</ele>
        <time>2021-02-06T10:36:04Z</time>
      </trkpt>
      <trkpt lat="44.95958" lon="-0.37841">
        <ele>29.46</ele>
        <time>2021-02-06T10:36:21Z</time>
      </trkpt>
      <trkpt lat="44.9598" lon="-0.37836">
        <ele>28.02</ele>
        <time>2021-02-06T10:36:39Z</time>
      </trkpt>
      <trkpt lat="44.95987" lon="-0.37835">
        <ele>28.5</ele>
        <time>2021-02-06T10:36:44Z</time>
      </trkpt>
      <trkpt lat="44.96001" lon="-0.3783">
        <ele>27.05</ele>
        <time>2021-02-06T10:36:57Z</time>
      </trkpt>
      <trkpt lat="44.96013" lon="-0.37821">
        <ele>26.57</ele>
        <time>2021-02-06T10:37:08Z</time>
      </trkpt>
      <trkpt lat="44.96022" lon="-0.37812">
        <ele>26.09</ele>
        <time>2021-02-06T10:37:17Z</time>
      </trkpt>
      <trkpt lat="44.96037" lon="-0.37799">
        <ele>24.65</ele>
        <time>2021-02-06T10:37:32Z</time>
      </trkpt>
      <trkpt lat="44.96043" lon="-0.37794">
        <ele>24.17</ele>
        <time>2021-02-06T10:37:39Z</time>
      </trkpt>
      <trkpt lat="44.96049" lon="-0.3779">
        <ele>22.25</ele>
        <time>2021-02-06T10:37:46Z</time>
      </trkpt>
      <trkpt lat="44.96051" lon="-0.37788">
        <ele>23.69</ele>
        <time>2021-02-06T10:37:48Z</time>
      </trkpt>
      <trkpt lat="44.96053" lon="-0.37787">
        <ele>22.73</ele>
        <time>2021-02-06T10:37:50Z</time>
      </trkpt>
      <trkpt lat="44.96055" lon="-0.37784">
        <ele>22.73</ele>
        <time>2021-02-06T10:37:53Z</time>
      </trkpt>
      <trkpt lat="44.96057" lon="-0.37783">
        <ele>22.25</ele>
        <time>2021-02-06T10:37:55Z</time>
      </trkpt>
      <trkpt lat="44.96064" lon="-0.37777">
        <ele>21.29</ele>
        <time>2021-02-06T10:38:03Z</time>
      </trkpt>
      <trkpt lat="44.96068" lon="-0.37773">
        <ele>20.81</ele>
        <time>2021-02-06T10:38:08Z</time>
      </trkpt>
      <trkpt lat="44.96074" lon="-0.37766">
        <ele>19.36</ele>
        <time>2021-02-06T10:38:17Z</time>
      </trkpt>
      <trkpt lat="44.96086" lon="-0.37748">
        <ele>18.88</ele>
        <time>2021-02-06T10:38:33Z</time>
      </trkpt>
      <trkpt lat="44.961" lon="-0.37736">
        <ele>16.48</ele>
        <time>2021-02-06T10:38:47Z</time>
      </trkpt>
      <trkpt lat="44.96117" lon="-0.37721">
        <ele>14.08</ele>
        <time>2021-02-06T10:39:05Z</time>
      </trkpt>
      <trkpt lat="44.96128" lon="-0.37718">
        <ele>13.12</ele>
        <time>2021-02-06T10:39:19Z</time>
      </trkpt>
      <trkpt lat="44.96132" lon="-0.37735">
        <ele>13.6</ele>
        <time>2021-02-06T10:39:35Z</time>
      </trkpt>
      <trkpt lat="44.96132" lon="-0.3774">
        <ele>15.52</ele>
        <time>2021-02-06T10:39:38Z</time>
      </trkpt>
      <trkpt lat="44.96136" lon="-0.37749">
        <ele>14.08</ele>
        <time>2021-02-06T10:39:44Z</time>
      </trkpt>
      <trkpt lat="44.96139" lon="-0.37762">
        <ele>14.56</ele>
        <time>2021-02-06T10:39:52Z</time>
      </trkpt>
      <trkpt lat="44.96141" lon="-0.37766">
        <ele>16.48</ele>
        <time>2021-02-06T10:39:55Z</time>
      </trkpt>
      <trkpt lat="44.96142" lon="-0.37769">
        <ele>16.96</ele>
        <time>2021-02-06T10:39:57Z</time>
      </trkpt>
      <trkpt lat="44.96147" lon="-0.37794">
        <ele>17.92</ele>
        <time>2021-02-06T10:40:14Z</time>
      </trkpt>
      <trkpt lat="44.96149" lon="-0.3782">
        <ele>19.84</ele>
        <time>2021-02-06T10:40:32Z</time>
      </trkpt>
      <trkpt lat="44.96151" lon="-0.37839">
        <ele>18.88</ele>
        <time>2021-02-06T10:40:45Z</time>
      </trkpt>
      <trkpt lat="44.96155" lon="-0.37848">
        <ele>18.88</ele>
        <time>2021-02-06T10:40:50Z</time>
      </trkpt>
      <trkpt lat="44.9616" lon="-0.37863">
        <ele>19.84</ele>
        <time>2021-02-06T10:40:59Z</time>
      </trkpt>
      <trkpt lat="44.96167" lon="-0.37882">
        <ele>19.84</ele>
        <time>2021-02-06T10:41:12Z</time>
      </trkpt>
      <trkpt lat="44.96177" lon="-0.37905">
        <ele>18.88</ele>
        <time>2021-02-06T10:41:27Z</time>
      </trkpt>
      <trkpt lat="44.96183" lon="-0.37928">
        <ele>18.88</ele>
        <time>2021-02-06T10:41:42Z</time>
      </trkpt>
      <trkpt lat="44.96191" lon="-0.3795">
        <ele>20.81</ele>
        <time>2021-02-06T10:41:56Z</time>
      </trkpt>
      <trkpt lat="44.96194" lon="-0.3796">
        <ele>19.84</ele>
        <time>2021-02-06T10:42:02Z</time>
      </trkpt>
      <trkpt lat="44.96197" lon="-0.37969">
        <ele>21.29</ele>
        <time>2021-02-06T10:42:08Z</time>
      </trkpt>
      <trkpt lat="44.96201" lon="-0.37984">
        <ele>21.29</ele>
        <time>2021-02-06T10:42:17Z</time>
      </trkpt>
      <trkpt lat="44.96201" lon="-0.37987">
        <ele>20.32</ele>
        <time>2021-02-06T10:42:19Z</time>
      </trkpt>
      <trkpt lat="44.96201" lon="-0.3799">
        <ele>21.77</ele>
        <time>2021-02-06T10:42:21Z</time>
      </trkpt>
      <trkpt lat="44.962" lon="-0.38001">
        <ele>20.32</ele>
        <time>2021-02-06T10:42:27Z</time>
      </trkpt>
      <trkpt lat="44.96199" lon="-0.38005">
        <ele>21.77</ele>
        <time>2021-02-06T10:42:29Z</time>
      </trkpt>
      <trkpt lat="44.96199" lon="-0.38018">
        <ele>20.81</ele>
        <time>2021-02-06T10:42:36Z</time>
      </trkpt>
      <trkpt lat="44.96199" lon="-0.38021">
        <ele>23.21</ele>
        <time>2021-02-06T10:42:38Z</time>
      </trkpt>
      <trkpt lat="44.962" lon="-0.38044">
        <ele>22.73</ele>
        <time>2021-02-06T10:42:51Z</time>
      </trkpt>
      <trkpt lat="44.962" lon="-0.38059">
        <ele>22.25</ele>
        <time>2021-02-06T10:43:00Z</time>
      </trkpt>
      <trkpt lat="44.962" lon="-0.38065">
        <ele>24.17</ele>
        <time>2021-02-06T10:43:03Z</time>
      </trkpt>
      <trkpt lat="44.962" lon="-0.38068">
        <ele>22.73</ele>
        <time>2021-02-06T10:43:05Z</time>
      </trkpt>
      <trkpt lat="44.96202" lon="-0.38079">
        <ele>24.17</ele>
        <time>2021-02-06T10:43:11Z</time>
      </trkpt>
      <trkpt lat="44.96202" lon="-0.38089">
        <ele>22.73</ele>
        <time>2021-02-06T10:43:18Z</time>
      </trkpt>
      <trkpt lat="44.96203" lon="-0.38093">
        <ele>24.17</ele>
        <time>2021-02-06T10:43:20Z</time>
      </trkpt>
      <trkpt lat="44.96203" lon="-0.38116">
        <ele>23.21</ele>
        <time>2021-02-06T10:43:33Z</time>
      </trkpt>
      <trkpt lat="44.96203" lon="-0.38122">
        <ele>24.65</ele>
        <time>2021-02-06T10:43:36Z</time>
      </trkpt>
      <trkpt lat="44.96199" lon="-0.38151">
        <ele>24.65</ele>
        <time>2021-02-06T10:43:52Z</time>
      </trkpt>
      <trkpt lat="44.96198" lon="-0.38184">
        <ele>25.13</ele>
        <time>2021-02-06T10:44:10Z</time>
      </trkpt>
      <trkpt lat="44.96197" lon="-0.38196">
        <ele>26.09</ele>
        <time>2021-02-06T10:44:16Z</time>
      </trkpt>
      <trkpt lat="44.96198" lon="-0.38211">
        <ele>26.57</ele>
        <time>2021-02-06T10:44:26Z</time>
      </trkpt>
      <trkpt lat="44.96196" lon="-0.38235">
        <ele>27.53</ele>
        <time>2021-02-06T10:44:40Z</time>
      </trkpt>
      <trkpt lat="44.96192" lon="-0.38258">
        <ele>28.02</ele>
        <time>2021-02-06T10:44:53Z</time>
      </trkpt>
      <trkpt lat="44.96195" lon="-0.3828">
        <ele>29.94</ele>
        <time>2021-02-06T10:45:07Z</time>
      </trkpt>
      <trkpt lat="44.96202" lon="-0.38293">
        <ele>31.38</ele>
        <time>2021-02-06T10:45:20Z</time>
      </trkpt>
      <trkpt lat="44.96206" lon="-0.38292">
        <ele>31.38</ele>
        <time>2021-02-06T10:45:25Z</time>
      </trkpt>
      <trkpt lat="44.9621" lon="-0.38287">
        <ele>30.42</ele>
        <time>2021-02-06T10:45:29Z</time>
      </trkpt>
      <trkpt lat="44.96226" lon="-0.38272">
        <ele>29.94</ele>
        <time>2021-02-06T10:45:45Z</time>
      </trkpt>
      <trkpt lat="44.9624" lon="-0.38262">
        <ele>29.46</ele>
        <time>2021-02-06T10:45:57Z</time>
      </trkpt>
      <trkpt lat="44.96257" lon="-0.3825">
        <ele>29.94</ele>
        <time>2021-02-06T10:46:12Z</time>
      </trkpt>
      <trkpt lat="44.96264" lon="-0.38249">
        <ele>29.46</ele>
        <time>2021-02-06T10:46:17Z</time>
      </trkpt>
      <trkpt lat="44.96267" lon="-0.38248">
        <ele>30.9</ele>
        <time>2021-02-06T10:46:20Z</time>
      </trkpt>
      <trkpt lat="44.96271" lon="-0.38247">
        <ele>29.46</ele>
        <time>2021-02-06T10:46:23Z</time>
      </trkpt>
      <trkpt lat="44.96273" lon="-0.38245">
        <ele>30.42</ele>
        <time>2021-02-06T10:46:25Z</time>
      </trkpt>
      <trkpt lat="44.9629" lon="-0.38236">
        <ele>30.9</ele>
        <time>2021-02-06T10:46:38Z</time>
      </trkpt>
      <trkpt lat="44.96303" lon="-0.38227">
        <ele>30.9</ele>
        <time>2021-02-06T10:46:49Z</time>
      </trkpt>
      <trkpt lat="44.96316" lon="-0.3822">
        <ele>30.42</ele>
        <time>2021-02-06T10:46:59Z</time>
      </trkpt>
      <trkpt lat="44.9632" lon="-0.38219">
        <ele>31.86</ele>
        <time>2021-02-06T10:47:02Z</time>
      </trkpt>
      <trkpt lat="44.96324" lon="-0.38216">
        <ele>32.34</ele>
        <time>2021-02-06T10:47:06Z</time>
      </trkpt>
      <trkpt lat="44.96343" lon="-0.38208">
        <ele>31.38</ele>
        <time>2021-02-06T10:47:23Z</time>
      </trkpt>
      <trkpt lat="44.96348" lon="-0.38208">
        <ele>32.82</ele>
        <time>2021-02-06T10:47:28Z</time>
      </trkpt>
      <trkpt lat="44.96353" lon="-0.38198">
        <ele>32.82</ele>
        <time>2021-02-06T10:47:33Z</time>
      </trkpt>
      <trkpt lat="44.96353" lon="-0.38193">
        <ele>31.38</ele>
        <time>2021-02-06T10:47:35Z</time>
      </trkpt>
      <trkpt lat="44.96351" lon="-0.38178">
        <ele>30.42</ele>
        <time>2021-02-06T10:47:44Z</time>
      </trkpt>
      <trkpt lat="44.96349" lon="-0.38171">
        <ele>30.9</ele>
        <time>2021-02-06T10:47:48Z</time>
      </trkpt>
      <trkpt lat="44.96346" lon="-0.38158">
        <ele>31.86</ele>
        <time>2021-02-06T10:47:55Z</time>
      </trkpt>
      <trkpt lat="44.96346" lon="-0.38153">
        <ele>29.94</ele>
        <time>2021-02-06T10:47:58Z</time>
      </trkpt>
      <trkpt lat="44.96339" lon="-0.38128">
        <ele>29.46</ele>
        <time>2021-02-06T10:48:12Z</time>
      </trkpt>
      <trkpt lat="44.96337" lon="-0.38114">
        <ele>29.94</ele>
        <time>2021-02-06T10:48:20Z</time>
      </trkpt>
      <trkpt lat="44.9633" lon="-0.38083">
        <ele>28.98</ele>
        <time>2021-02-06T10:48:38Z</time>
      </trkpt>
      <trkpt lat="44.9632" lon="-0.38054">
        <ele>27.53</ele>
        <time>2021-02-06T10:48:55Z</time>
      </trkpt>
      <trkpt lat="44.96315" lon="-0.38032">
        <ele>26.57</ele>
        <time>2021-02-06T10:49:08Z</time>
      </trkpt>
      <trkpt lat="44.96309" lon="-0.38006">
        <ele>26.57</ele>
        <time>2021-02-06T10:49:23Z</time>
      </trkpt>
      <trkpt lat="44.96309" lon="-0.37998">
        <ele>26.09</ele>
        <time>2021-02-06T10:49:27Z</time>
      </trkpt>
      <trkpt lat="44.96301" lon="-0.37967">
        <ele>25.61</ele>
        <time>2021-02-06T10:49:45Z</time>
      </trkpt>
      <trkpt lat="44.96301" lon="-0.37942">
        <ele>25.61</ele>
        <time>2021-02-06T10:49:59Z</time>
      </trkpt>
      <trkpt lat="44.96306" lon="-0.37935">
        <ele>25.61</ele>
        <time>2021-02-06T10:50:04Z</time>
      </trkpt>
      <trkpt lat="44.96308" lon="-0.37933">
        <ele>26.57</ele>
        <time>2021-02-06T10:50:06Z</time>
      </trkpt>
      <trkpt lat="44.96323" lon="-0.37929">
        <ele>25.61</ele>
        <time>2021-02-06T10:50:18Z</time>
      </trkpt>
      <trkpt lat="44.96325" lon="-0.37928">
        <ele>26.57</ele>
        <time>2021-02-06T10:50:20Z</time>
      </trkpt>
      <trkpt lat="44.96336" lon="-0.37926">
        <ele>25.13</ele>
        <time>2021-02-06T10:50:29Z</time>
      </trkpt>
      <trkpt lat="44.96354" lon="-0.37914">
        <ele>25.13</ele>
        <time>2021-02-06T10:50:41Z</time>
      </trkpt>
      <trkpt lat="44.96362" lon="-0.37902">
        <ele>24.65</ele>
        <time>2021-02-06T10:50:50Z</time>
      </trkpt>
      <trkpt lat="44.96365" lon="-0.37894">
        <ele>24.65</ele>
        <time>2021-02-06T10:50:55Z</time>
      </trkpt>
      <trkpt lat="44.96367" lon="-0.37867">
        <ele>23.69</ele>
        <time>2021-02-06T10:51:10Z</time>
      </trkpt>
      <trkpt lat="44.96366" lon="-0.37859">
        <ele>24.65</ele>
        <time>2021-02-06T10:51:14Z</time>
      </trkpt>
      <trkpt lat="44.96366" lon="-0.37852">
        <ele>24.65</ele>
        <time>2021-02-06T10:51:18Z</time>
      </trkpt>
      <trkpt lat="44.96379" lon="-0.37826">
        <ele>24.65</ele>
        <time>2021-02-06T10:51:34Z</time>
      </trkpt>
      <trkpt lat="44.964" lon="-0.3782">
        <ele>24.65</ele>
        <time>2021-02-06T10:51:49Z</time>
      </trkpt>
      <trkpt lat="44.96408" lon="-0.37813">
        <ele>24.65</ele>
        <time>2021-02-06T10:51:59Z</time>
      </trkpt>
      <trkpt lat="44.96405" lon="-0.37796">
        <ele>24.17</ele>
        <time>2021-02-06T10:52:10Z</time>
      </trkpt>
      <trkpt lat="44.96404" lon="-0.37779">
        <ele>25.13</ele>
        <time>2021-02-06T10:52:21Z</time>
      </trkpt>
      <trkpt lat="44.96407" lon="-0.37767">
        <ele>24.65</ele>
        <time>2021-02-06T10:52:27Z</time>
      </trkpt>
      <trkpt lat="44.96408" lon="-0.37759">
        <ele>24.17</ele>
        <time>2021-02-06T10:52:31Z</time>
      </trkpt>
      <trkpt lat="44.96408" lon="-0.37755">
        <ele>25.61</ele>
        <time>2021-02-06T10:52:33Z</time>
      </trkpt>
      <trkpt lat="44.96412" lon="-0.37729">
        <ele>26.09</ele>
        <time>2021-02-06T10:52:51Z</time>
      </trkpt>
      <trkpt lat="44.96415" lon="-0.37706">
        <ele>25.13</ele>
        <time>2021-02-06T10:53:06Z</time>
      </trkpt>
      <trkpt lat="44.96421" lon="-0.37677">
        <ele>25.13</ele>
        <time>2021-02-06T10:53:23Z</time>
      </trkpt>
      <trkpt lat="44.96428" lon="-0.37648">
        <ele>24.65</ele>
        <time>2021-02-06T10:53:40Z</time>
      </trkpt>
      <trkpt lat="44.9643" lon="-0.37639">
        <ele>26.09</ele>
        <time>2021-02-06T10:53:45Z</time>
      </trkpt>
      <trkpt lat="44.96432" lon="-0.37634">
        <ele>24.65</ele>
        <time>2021-02-06T10:53:48Z</time>
      </trkpt>
      <trkpt lat="44.96439" lon="-0.37611">
        <ele>24.17</ele>
        <time>2021-02-06T10:54:03Z</time>
      </trkpt>
      <trkpt lat="44.9644" lon="-0.37593">
        <ele>25.13</ele>
        <time>2021-02-06T10:54:14Z</time>
      </trkpt>
      <trkpt lat="44.96441" lon="-0.37588">
        <ele>25.13</ele>
        <time>2021-02-06T10:54:19Z</time>
      </trkpt>
      <trkpt lat="44.96443" lon="-0.37581">
        <ele>25.13</ele>
        <time>2021-02-06T10:54:25Z</time>
      </trkpt>
      <trkpt lat="44.96448" lon="-0.37556">
        <ele>25.13</ele>
        <time>2021-02-06T10:54:40Z</time>
      </trkpt>
      <trkpt lat="44.96451" lon="-0.37532">
        <ele>24.65</ele>
        <time>2021-02-06T10:54:55Z</time>
      </trkpt>
      <trkpt lat="44.96454" lon="-0.3752">
        <ele>24.65</ele>
        <time>2021-02-06T10:55:02Z</time>
      </trkpt>
      <trkpt lat="44.96467" lon="-0.37505">
        <ele>24.65</ele>
        <time>2021-02-06T10:55:17Z</time>
      </trkpt>
      <trkpt lat="44.96469" lon="-0.37501">
        <ele>23.21</ele>
        <time>2021-02-06T10:55:25Z</time>
      </trkpt>
      <trkpt lat="44.96472" lon="-0.37492">
        <ele>23.21</ele>
        <time>2021-02-06T10:55:34Z</time>
      </trkpt>
      <trkpt lat="44.96467" lon="-0.37478">
        <ele>23.21</ele>
        <time>2021-02-06T10:55:44Z</time>
      </trkpt>
      <trkpt lat="44.96463" lon="-0.37473">
        <ele>23.21</ele>
        <time>2021-02-06T10:55:49Z</time>
      </trkpt>
      <trkpt lat="44.96452" lon="-0.37458">
        <ele>22.73</ele>
        <time>2021-02-06T10:56:01Z</time>
      </trkpt>
      <trkpt lat="44.96452" lon="-0.37456">
        <ele>22.73</ele>
        <time>2021-02-06T10:56:02Z</time>
      </trkpt>
      <trkpt lat="44.96439" lon="-0.37446">
        <ele>22.73</ele>
        <time>2021-02-06T10:56:14Z</time>
      </trkpt>
      <trkpt lat="44.96425" lon="-0.37442">
        <ele>22.73</ele>
        <time>2021-02-06T10:56:26Z</time>
      </trkpt>
      <trkpt lat="44.96416" lon="-0.37439">
        <ele>22.73</ele>
        <time>2021-02-06T10:56:34Z</time>
      </trkpt>
      <trkpt lat="44.9641" lon="-0.37437">
        <ele>23.21</ele>
        <time>2021-02-06T10:56:39Z</time>
      </trkpt>
      <trkpt lat="44.96408" lon="-0.37437">
        <ele>21.77</ele>
        <time>2021-02-06T10:56:41Z</time>
      </trkpt>
      <trkpt lat="44.96392" lon="-0.37433">
        <ele>21.29</ele>
        <time>2021-02-06T10:56:54Z</time>
      </trkpt>
      <trkpt lat="44.96375" lon="-0.37429">
        <ele>20.81</ele>
        <time>2021-02-06T10:57:08Z</time>
      </trkpt>
      <trkpt lat="44.96363" lon="-0.37425">
        <ele>19.84</ele>
        <time>2021-02-06T10:57:21Z</time>
      </trkpt>
      <trkpt lat="44.96354" lon="-0.37424">
        <ele>19.36</ele>
        <time>2021-02-06T10:57:30Z</time>
      </trkpt>
      <trkpt lat="44.96349" lon="-0.37422">
        <ele>18.88</ele>
        <time>2021-02-06T10:57:35Z</time>
      </trkpt>
      <trkpt lat="44.96343" lon="-0.37421">
        <ele>20.32</ele>
        <time>2021-02-06T10:57:40Z</time>
      </trkpt>
      <trkpt lat="44.96342" lon="-0.3742">
        <ele>18.88</ele>
        <time>2021-02-06T10:57:42Z</time>
      </trkpt>
      <trkpt lat="44.9633" lon="-0.37418">
        <ele>18.88</ele>
        <time>2021-02-06T10:57:53Z</time>
      </trkpt>
      <trkpt lat="44.96324" lon="-0.37395">
        <ele>18.88</ele>
        <time>2021-02-06T10:58:07Z</time>
      </trkpt>
      <trkpt lat="44.96325" lon="-0.37365">
        <ele>19.84</ele>
        <time>2021-02-06T10:58:23Z</time>
      </trkpt>
      <trkpt lat="44.9633" lon="-0.3734">
        <ele>21.77</ele>
        <time>2021-02-06T10:58:38Z</time>
      </trkpt>
      <trkpt lat="44.96331" lon="-0.37336">
        <ele>21.77</ele>
        <time>2021-02-06T10:58:40Z</time>
      </trkpt>
      <trkpt lat="44.96334" lon="-0.37318">
        <ele>20.81</ele>
        <time>2021-02-06T10:58:50Z</time>
      </trkpt>
      <trkpt lat="44.96335" lon="-0.37312">
        <ele>22.25</ele>
        <time>2021-02-06T10:58:54Z</time>
      </trkpt>
      <trkpt lat="44.96337" lon="-0.37305">
        <ele>22.73</ele>
        <time>2021-02-06T10:58:58Z</time>
      </trkpt>
      <trkpt lat="44.96346" lon="-0.37279">
        <ele>23.21</ele>
        <time>2021-02-06T10:59:13Z</time>
      </trkpt>
      <trkpt lat="44.96351" lon="-0.37267">
        <ele>23.21</ele>
        <time>2021-02-06T10:59:21Z</time>
      </trkpt>
      <trkpt lat="44.96352" lon="-0.3726">
        <ele>21.77</ele>
        <time>2021-02-06T10:59:24Z</time>
      </trkpt>
      <trkpt lat="44.96358" lon="-0.37237">
        <ele>21.77</ele>
        <time>2021-02-06T10:59:39Z</time>
      </trkpt>
      <trkpt lat="44.96359" lon="-0.37234">
        <ele>23.21</ele>
        <time>2021-02-06T10:59:41Z</time>
      </trkpt>
      <trkpt lat="44.9636" lon="-0.37229">
        <ele>21.29</ele>
        <time>2021-02-06T10:59:44Z</time>
      </trkpt>
      <trkpt lat="44.96361" lon="-0.37226">
        <ele>22.73</ele>
        <time>2021-02-06T10:59:46Z</time>
      </trkpt>
      <trkpt lat="44.96367" lon="-0.37207">
        <ele>22.73</ele>
        <time>2021-02-06T10:59:58Z</time>
      </trkpt>
      <trkpt lat="44.96373" lon="-0.37189">
        <ele>22.73</ele>
        <time>2021-02-06T11:00:12Z</time>
      </trkpt>
      <trkpt lat="44.96379" lon="-0.3717">
        <ele>22.73</ele>
        <time>2021-02-06T11:00:26Z</time>
      </trkpt>
      <trkpt lat="44.96385" lon="-0.37146">
        <ele>22.73</ele>
        <time>2021-02-06T11:00:40Z</time>
      </trkpt>
      <trkpt lat="44.96388" lon="-0.37136">
        <ele>22.73</ele>
        <time>2021-02-06T11:00:47Z</time>
      </trkpt>
      <trkpt lat="44.96395" lon="-0.37112">
        <ele>22.73</ele>
        <time>2021-02-06T11:01:02Z</time>
      </trkpt>
      <trkpt lat="44.96403" lon="-0.37093">
        <ele>21.77</ele>
        <time>2021-02-06T11:01:16Z</time>
      </trkpt>
      <trkpt lat="44.96404" lon="-0.37093">
        <ele>23.69</ele>
        <time>2021-02-06T11:01:17Z</time>
      </trkpt>
      <trkpt lat="44.96411" lon="-0.37095">
        <ele>24.17</ele>
        <time>2021-02-06T11:01:23Z</time>
      </trkpt>
      <trkpt lat="44.96415" lon="-0.37096">
        <ele>22.73</ele>
        <time>2021-02-06T11:01:26Z</time>
      </trkpt>
      <trkpt lat="44.96427" lon="-0.37101">
        <ele>24.17</ele>
        <time>2021-02-06T11:01:38Z</time>
      </trkpt>
      <trkpt lat="44.96433" lon="-0.37101">
        <ele>24.17</ele>
        <time>2021-02-06T11:01:43Z</time>
      </trkpt>
      <trkpt lat="44.96437" lon="-0.371">
        <ele>22.73</ele>
        <time>2021-02-06T11:01:48Z</time>
      </trkpt>
      <trkpt lat="44.9645" lon="-0.37099">
        <ele>24.17</ele>
        <time>2021-02-06T11:02:01Z</time>
      </trkpt>
      <trkpt lat="44.96453" lon="-0.37094">
        <ele>24.65</ele>
        <time>2021-02-06T11:02:16Z</time>
      </trkpt>
      <trkpt lat="44.96458" lon="-0.37081">
        <ele>24.65</ele>
        <time>2021-02-06T11:02:36Z</time>
      </trkpt>
      <trkpt lat="44.9646" lon="-0.37087">
        <ele>25.13</ele>
        <time>2021-02-06T11:02:55Z</time>
      </trkpt>
      <trkpt lat="44.96458" lon="-0.37088">
        <ele>23.69</ele>
        <time>2021-02-06T11:03:02Z</time>
      </trkpt>
      <trkpt lat="44.96456" lon="-0.37086">
        <ele>19.36</ele>
        <time>2021-02-06T11:03:06Z</time>
      </trkpt>
      <trkpt lat="44.96455" lon="-0.37085">
        <ele>24.65</ele>
        <time>2021-02-06T11:03:07Z</time>
      </trkpt>
      <trkpt lat="44.96459" lon="-0.37088">
        <ele>23.69</ele>
        <time>2021-02-06T11:03:15Z</time>
      </trkpt>
      <trkpt lat="44.96467" lon="-0.37101">
        <ele>23.69</ele>
        <time>2021-02-06T11:03:40Z</time>
      </trkpt>
      <trkpt lat="44.9647" lon="-0.37088">
        <ele>24.65</ele>
        <time>2021-02-06T11:04:10Z</time>
      </trkpt>
      <trkpt lat="44.96459" lon="-0.37071">
        <ele>23.69</ele>
        <time>2021-02-06T11:04:30Z</time>
      </trkpt>
      <trkpt lat="44.96467" lon="-0.37088">
        <ele>26.09</ele>
        <time>2021-02-06T11:21:22Z</time>
      </trkpt>
      <trkpt lat="44.96462" lon="-0.37091">
        <ele>26.09</ele>
        <time>2021-02-06T11:21:49Z</time>
      </trkpt>
      <trkpt lat="44.96467" lon="-0.37089">
        <ele>26.09</ele>
        <time>2021-02-06T11:22:19Z</time>
      </trkpt>
      <trkpt lat="44.9647" lon="-0.37085">
        <ele>26.09</ele>
        <time>2021-02-06T11:22:45Z</time>
      </trkpt>
      <trkpt lat="44.96466" lon="-0.37091">
        <ele>26.09</ele>
        <time>2021-02-06T11:23:11Z</time>
      </trkpt>
      <trkpt lat="44.96473" lon="-0.37095">
        <ele>26.09</ele>
        <time>2021-02-06T11:23:36Z</time>
      </trkpt>
      <trkpt lat="44.96468" lon="-0.37092">
        <ele>26.09</ele>
        <time>2021-02-06T11:24:03Z</time>
      </trkpt>
      <trkpt lat="44.96456" lon="-0.37093">
        <ele>26.09</ele>
        <time>2021-02-06T11:24:27Z</time>
      </trkpt>
      <trkpt lat="44.96466" lon="-0.37095">
        <ele>28.02</ele>
        <time>2021-02-06T11:24:45Z</time>
      </trkpt>
      <trkpt lat="44.96461" lon="-0.37093">
        <ele>28.02</ele>
        <time>2021-02-06T11:25:02Z</time>
      </trkpt>
      <trkpt lat="44.96461" lon="-0.37093">
        <ele>28.02</ele>
        <time>2021-02-06T11:25:22Z</time>
      </trkpt>
      <trkpt lat="44.96462" lon="-0.37094">
        <ele>27.05</ele>
        <time>2021-02-06T11:25:48Z</time>
      </trkpt>
      <trkpt lat="44.96458" lon="-0.3709">
        <ele>26.57</ele>
        <time>2021-02-06T11:26:16Z</time>
      </trkpt>
      <trkpt lat="44.96461" lon="-0.37091">
        <ele>26.09</ele>
        <time>2021-02-06T11:26:46Z</time>
      </trkpt>
      <trkpt lat="44.96459" lon="-0.3709">
        <ele>27.05</ele>
        <time>2021-02-06T11:27:15Z</time>
      </trkpt>
      <trkpt lat="44.9646" lon="-0.37088">
        <ele>27.05</ele>
        <time>2021-02-06T11:27:46Z</time>
      </trkpt>
      <trkpt lat="44.96453" lon="-0.37094">
        <ele>27.05</ele>
        <time>2021-02-06T11:28:16Z</time>
      </trkpt>
      <trkpt lat="44.96459" lon="-0.37092">
        <ele>27.05</ele>
        <time>2021-02-06T11:28:40Z</time>
      </trkpt>
      <trkpt lat="44.96464" lon="-0.37091">
        <ele>27.05</ele>
        <time>2021-02-06T11:29:07Z</time>
      </trkpt>
      <trkpt lat="44.96462" lon="-0.37092">
        <ele>27.53</ele>
        <time>2021-02-06T11:29:30Z</time>
      </trkpt>
      <trkpt lat="44.96463" lon="-0.37094">
        <ele>26.09</ele>
        <time>2021-02-06T11:29:40Z</time>
      </trkpt>
      <trkpt lat="44.96462" lon="-0.37094">
        <ele>26.09</ele>
        <time>2021-02-06T11:29:46Z</time>
      </trkpt>
      <trkpt lat="44.96464" lon="-0.37098">
        <ele>25.61</ele>
        <time>2021-02-06T11:29:50Z</time>
      </trkpt>
      <trkpt lat="44.96465" lon="-0.37104">
        <ele>27.05</ele>
        <time>2021-02-06T11:29:55Z</time>
      </trkpt>
      <trkpt lat="44.96468" lon="-0.37109">
        <ele>26.09</ele>
        <time>2021-02-06T11:30:00Z</time>
      </trkpt>
      <trkpt lat="44.9647" lon="-0.37112">
        <ele>26.09</ele>
        <time>2021-02-06T11:30:03Z</time>
      </trkpt>
      <trkpt lat="44.96472" lon="-0.37118">
        <ele>26.09</ele>
        <time>2021-02-06T11:30:07Z</time>
      </trkpt>
      <trkpt lat="44.96469" lon="-0.37139">
        <ele>26.09</ele>
        <time>2021-02-06T11:30:21Z</time>
      </trkpt>
      <trkpt lat="44.96466" lon="-0.37159">
        <ele>27.05</ele>
        <time>2021-02-06T11:30:34Z</time>
      </trkpt>
      <trkpt lat="44.96462" lon="-0.37177">
        <ele>27.05</ele>
        <time>2021-02-06T11:30:46Z</time>
      </trkpt>
      <trkpt lat="44.96466" lon="-0.37198">
        <ele>27.05</ele>
        <time>2021-02-06T11:30:59Z</time>
      </trkpt>
      <trkpt lat="44.96477" lon="-0.37214">
        <ele>27.05</ele>
        <time>2021-02-06T11:31:13Z</time>
      </trkpt>
      <trkpt lat="44.96492" lon="-0.37224">
        <ele>28.02</ele>
        <time>2021-02-06T11:31:27Z</time>
      </trkpt>
      <trkpt lat="44.96511" lon="-0.37235">
        <ele>28.02</ele>
        <time>2021-02-06T11:31:43Z</time>
      </trkpt>
      <trkpt lat="44.96529" lon="-0.37245">
        <ele>28.02</ele>
        <time>2021-02-06T11:31:59Z</time>
      </trkpt>
      <trkpt lat="44.96548" lon="-0.37255">
        <ele>28.5</ele>
        <time>2021-02-06T11:32:16Z</time>
      </trkpt>
      <trkpt lat="44.96557" lon="-0.37265">
        <ele>28.98</ele>
        <time>2021-02-06T11:32:27Z</time>
      </trkpt>
      <trkpt lat="44.9657" lon="-0.37251">
        <ele>28.5</ele>
        <time>2021-02-06T11:32:41Z</time>
      </trkpt>
      <trkpt lat="44.96576" lon="-0.37243">
        <ele>28.02</ele>
        <time>2021-02-06T11:32:47Z</time>
      </trkpt>
      <trkpt lat="44.9659" lon="-0.37226">
        <ele>27.53</ele>
        <time>2021-02-06T11:33:01Z</time>
      </trkpt>
      <trkpt lat="44.96607" lon="-0.37205">
        <ele>28.98</ele>
        <time>2021-02-06T11:33:19Z</time>
      </trkpt>
      <trkpt lat="44.9661" lon="-0.37202">
        <ele>27.05</ele>
        <time>2021-02-06T11:33:22Z</time>
      </trkpt>
      <trkpt lat="44.96628" lon="-0.37188">
        <ele>27.05</ele>
        <time>2021-02-06T11:33:37Z</time>
      </trkpt>
      <trkpt lat="44.96637" lon="-0.37179">
        <ele>28.02</ele>
        <time>2021-02-06T11:33:51Z</time>
      </trkpt>
      <trkpt lat="44.9664" lon="-0.37176">
        <ele>28.02</ele>
        <time>2021-02-06T11:34:00Z</time>
      </trkpt>
      <trkpt lat="44.96644" lon="-0.37176">
        <ele>28.5</ele>
        <time>2021-02-06T11:34:03Z</time>
      </trkpt>
      <trkpt lat="44.96656" lon="-0.37193">
        <ele>28.5</ele>
        <time>2021-02-06T11:34:19Z</time>
      </trkpt>
      <trkpt lat="44.9666" lon="-0.37197">
        <ele>27.05</ele>
        <time>2021-02-06T11:34:26Z</time>
      </trkpt>
      <trkpt lat="44.96663" lon="-0.37197">
        <ele>27.05</ele>
        <time>2021-02-06T11:34:30Z</time>
      </trkpt>
      <trkpt lat="44.96686" lon="-0.37201">
        <ele>28.02</ele>
        <time>2021-02-06T11:34:47Z</time>
      </trkpt>
      <trkpt lat="44.96687" lon="-0.372">
        <ele>28.02</ele>
        <time>2021-02-06T11:34:48Z</time>
      </trkpt>
      <trkpt lat="44.96688" lon="-0.372">
        <ele>28.02</ele>
        <time>2021-02-06T11:34:49Z</time>
      </trkpt>
      <trkpt lat="44.96712" lon="-0.37208">
        <ele>26.09</ele>
        <time>2021-02-06T11:35:06Z</time>
      </trkpt>
      <trkpt lat="44.96719" lon="-0.37211">
        <ele>27.53</ele>
        <time>2021-02-06T11:35:13Z</time>
      </trkpt>
      <trkpt lat="44.96721" lon="-0.37211">
        <ele>26.09</ele>
        <time>2021-02-06T11:35:15Z</time>
      </trkpt>
      <trkpt lat="44.96724" lon="-0.37212">
        <ele>27.53</ele>
        <time>2021-02-06T11:35:17Z</time>
      </trkpt>
      <trkpt lat="44.96727" lon="-0.37213">
        <ele>26.09</ele>
        <time>2021-02-06T11:35:20Z</time>
      </trkpt>
      <trkpt lat="44.9674" lon="-0.37218">
        <ele>25.61</ele>
        <time>2021-02-06T11:35:30Z</time>
      </trkpt>
      <trkpt lat="44.96755" lon="-0.37228">
        <ele>27.05</ele>
        <time>2021-02-06T11:35:43Z</time>
      </trkpt>
      <trkpt lat="44.96774" lon="-0.37236">
        <ele>27.53</ele>
        <time>2021-02-06T11:35:57Z</time>
      </trkpt>
      <trkpt lat="44.96794" lon="-0.37237">
        <ele>28.02</ele>
        <time>2021-02-06T11:36:14Z</time>
      </trkpt>
      <trkpt lat="44.96814" lon="-0.37239">
        <ele>28.5</ele>
        <time>2021-02-06T11:36:30Z</time>
      </trkpt>
      <trkpt lat="44.9682" lon="-0.37239">
        <ele>28.98</ele>
        <time>2021-02-06T11:36:35Z</time>
      </trkpt>
      <trkpt lat="44.96834" lon="-0.37237">
        <ele>28.98</ele>
        <time>2021-02-06T11:36:47Z</time>
      </trkpt>
      <trkpt lat="44.96846" lon="-0.37241">
        <ele>28.02</ele>
        <time>2021-02-06T11:36:56Z</time>
      </trkpt>
      <trkpt lat="44.96856" lon="-0.37242">
        <ele>29.46</ele>
        <time>2021-02-06T11:37:03Z</time>
      </trkpt>
      <trkpt lat="44.96872" lon="-0.37238">
        <ele>29.46</ele>
        <time>2021-02-06T11:37:15Z</time>
      </trkpt>
      <trkpt lat="44.96889" lon="-0.37227">
        <ele>28.98</ele>
        <time>2021-02-06T11:37:29Z</time>
      </trkpt>
      <trkpt lat="44.96896" lon="-0.37222">
        <ele>27.53</ele>
        <time>2021-02-06T11:37:36Z</time>
      </trkpt>
      <trkpt lat="44.96913" lon="-0.37212">
        <ele>27.05</ele>
        <time>2021-02-06T11:37:50Z</time>
      </trkpt>
      <trkpt lat="44.9692" lon="-0.37208">
        <ele>27.53</ele>
        <time>2021-02-06T11:37:56Z</time>
      </trkpt>
      <trkpt lat="44.96927" lon="-0.37204">
        <ele>28.98</ele>
        <time>2021-02-06T11:38:02Z</time>
      </trkpt>
      <trkpt lat="44.9693" lon="-0.37203">
        <ele>27.53</ele>
        <time>2021-02-06T11:38:04Z</time>
      </trkpt>
      <trkpt lat="44.96933" lon="-0.372">
        <ele>28.98</ele>
        <time>2021-02-06T11:38:07Z</time>
      </trkpt>
      <trkpt lat="44.96948" lon="-0.37193">
        <ele>28.02</ele>
        <time>2021-02-06T11:38:20Z</time>
      </trkpt>
      <trkpt lat="44.96957" lon="-0.37185">
        <ele>27.53</ele>
        <time>2021-02-06T11:38:29Z</time>
      </trkpt>
      <trkpt lat="44.96959" lon="-0.37184">
        <ele>28.5</ele>
        <time>2021-02-06T11:38:31Z</time>
      </trkpt>
      <trkpt lat="44.96977" lon="-0.37174">
        <ele>28.02</ele>
        <time>2021-02-06T11:38:46Z</time>
      </trkpt>
      <trkpt lat="44.96992" lon="-0.37163">
        <ele>29.94</ele>
        <time>2021-02-06T11:39:00Z</time>
      </trkpt>
      <trkpt lat="44.97007" lon="-0.37153">
        <ele>29.94</ele>
        <time>2021-02-06T11:39:14Z</time>
      </trkpt>
      <trkpt lat="44.97021" lon="-0.37143">
        <ele>29.46</ele>
        <time>2021-02-06T11:39:26Z</time>
      </trkpt>
      <trkpt lat="44.97033" lon="-0.37136">
        <ele>29.94</ele>
        <time>2021-02-06T11:39:37Z</time>
      </trkpt>
      <trkpt lat="44.97037" lon="-0.37133">
        <ele>28.5</ele>
        <time>2021-02-06T11:39:40Z</time>
      </trkpt>
      <trkpt lat="44.97044" lon="-0.37127">
        <ele>29.94</ele>
        <time>2021-02-06T11:39:47Z</time>
      </trkpt>
      <trkpt lat="44.9706" lon="-0.37116">
        <ele>28.5</ele>
        <time>2021-02-06T11:40:00Z</time>
      </trkpt>
      <trkpt lat="44.97074" lon="-0.37106">
        <ele>29.46</ele>
        <time>2021-02-06T11:40:13Z</time>
      </trkpt>
      <trkpt lat="44.97076" lon="-0.37104">
        <ele>29.46</ele>
        <time>2021-02-06T11:40:16Z</time>
      </trkpt>
      <trkpt lat="44.97079" lon="-0.37102">
        <ele>28.5</ele>
        <time>2021-02-06T11:40:18Z</time>
      </trkpt>
      <trkpt lat="44.97084" lon="-0.37099">
        <ele>29.94</ele>
        <time>2021-02-06T11:40:23Z</time>
      </trkpt>
      <trkpt lat="44.97087" lon="-0.37097">
        <ele>28.98</ele>
        <time>2021-02-06T11:40:25Z</time>
      </trkpt>
      <trkpt lat="44.97093" lon="-0.37092">
        <ele>28.5</ele>
        <time>2021-02-06T11:40:31Z</time>
      </trkpt>
      <trkpt lat="44.97095" lon="-0.3709">
        <ele>29.94</ele>
        <time>2021-02-06T11:40:33Z</time>
      </trkpt>
      <trkpt lat="44.97112" lon="-0.37079">
        <ele>29.46</ele>
        <time>2021-02-06T11:40:48Z</time>
      </trkpt>
      <trkpt lat="44.97123" lon="-0.3707">
        <ele>28.98</ele>
        <time>2021-02-06T11:40:58Z</time>
      </trkpt>
      <trkpt lat="44.97125" lon="-0.37068">
        <ele>30.42</ele>
        <time>2021-02-06T11:41:00Z</time>
      </trkpt>
      <trkpt lat="44.97128" lon="-0.37066">
        <ele>28.98</ele>
        <time>2021-02-06T11:41:02Z</time>
      </trkpt>
      <trkpt lat="44.97135" lon="-0.37062">
        <ele>30.42</ele>
        <time>2021-02-06T11:41:08Z</time>
      </trkpt>
      <trkpt lat="44.97138" lon="-0.3706">
        <ele>28.98</ele>
        <time>2021-02-06T11:41:11Z</time>
      </trkpt>
      <trkpt lat="44.97153" lon="-0.37045">
        <ele>28.98</ele>
        <time>2021-02-06T11:41:27Z</time>
      </trkpt>
      <trkpt lat="44.97166" lon="-0.37033">
        <ele>29.94</ele>
        <time>2021-02-06T11:41:40Z</time>
      </trkpt>
      <trkpt lat="44.9718" lon="-0.37024">
        <ele>30.42</ele>
        <time>2021-02-06T11:41:51Z</time>
      </trkpt>
      <trkpt lat="44.97183" lon="-0.37023">
        <ele>28.5</ele>
        <time>2021-02-06T11:41:53Z</time>
      </trkpt>
      <trkpt lat="44.97195" lon="-0.37014">
        <ele>29.46</ele>
        <time>2021-02-06T11:42:04Z</time>
      </trkpt>
      <trkpt lat="44.97198" lon="-0.37012">
        <ele>28.02</ele>
        <time>2021-02-06T11:42:07Z</time>
      </trkpt>
      <trkpt lat="44.97216" lon="-0.36999">
        <ele>27.53</ele>
        <time>2021-02-06T11:42:23Z</time>
      </trkpt>
      <trkpt lat="44.97217" lon="-0.36998">
        <ele>27.53</ele>
        <time>2021-02-06T11:42:24Z</time>
      </trkpt>
      <trkpt lat="44.9722" lon="-0.36995">
        <ele>28.5</ele>
        <time>2021-02-06T11:42:26Z</time>
      </trkpt>
      <trkpt lat="44.9723" lon="-0.36985">
        <ele>27.53</ele>
        <time>2021-02-06T11:42:37Z</time>
      </trkpt>
      <trkpt lat="44.97241" lon="-0.36979">
        <ele>27.53</ele>
        <time>2021-02-06T11:42:51Z</time>
      </trkpt>
      <trkpt lat="44.97243" lon="-0.36986">
        <ele>28.98</ele>
        <time>2021-02-06T11:42:56Z</time>
      </trkpt>
      <trkpt lat="44.97247" lon="-0.36994">
        <ele>28.02</ele>
        <time>2021-02-06T11:43:07Z</time>
      </trkpt>
      <trkpt lat="44.9725" lon="-0.36996">
        <ele>28.98</ele>
        <time>2021-02-06T11:43:11Z</time>
      </trkpt>
      <trkpt lat="44.97255" lon="-0.37">
        <ele>28.02</ele>
        <time>2021-02-06T11:43:16Z</time>
      </trkpt>
      <trkpt lat="44.97256" lon="-0.37002">
        <ele>29.46</ele>
        <time>2021-02-06T11:43:18Z</time>
      </trkpt>
      <trkpt lat="44.97267" lon="-0.37014">
        <ele>28.5</ele>
        <time>2021-02-06T11:43:29Z</time>
      </trkpt>
      <trkpt lat="44.97268" lon="-0.37017">
        <ele>29.46</ele>
        <time>2021-02-06T11:43:31Z</time>
      </trkpt>
      <trkpt lat="44.97275" lon="-0.37031">
        <ele>29.94</ele>
        <time>2021-02-06T11:43:50Z</time>
      </trkpt>
      <trkpt lat="44.97286" lon="-0.37049">
        <ele>28.98</ele>
        <time>2021-02-06T11:44:09Z</time>
      </trkpt>
      <trkpt lat="44.97291" lon="-0.37074">
        <ele>30.42</ele>
        <time>2021-02-06T11:44:24Z</time>
      </trkpt>
      <trkpt lat="44.97295" lon="-0.37104">
        <ele>30.42</ele>
        <time>2021-02-06T11:44:42Z</time>
      </trkpt>
      <trkpt lat="44.97298" lon="-0.37113">
        <ele>29.46</ele>
        <time>2021-02-06T11:44:51Z</time>
      </trkpt>
      <trkpt lat="44.97312" lon="-0.37132">
        <ele>30.9</ele>
        <time>2021-02-06T11:45:09Z</time>
      </trkpt>
      <trkpt lat="44.97321" lon="-0.37158">
        <ele>31.86</ele>
        <time>2021-02-06T11:45:27Z</time>
      </trkpt>
      <trkpt lat="44.97331" lon="-0.37162">
        <ele>31.86</ele>
        <time>2021-02-06T11:45:42Z</time>
      </trkpt>
      <trkpt lat="44.97332" lon="-0.37162">
        <ele>30.42</ele>
        <time>2021-02-06T11:45:44Z</time>
      </trkpt>
      <trkpt lat="44.97337" lon="-0.37166">
        <ele>31.86</ele>
        <time>2021-02-06T11:45:48Z</time>
      </trkpt>
      <trkpt lat="44.97351" lon="-0.37185">
        <ele>30.9</ele>
        <time>2021-02-06T11:46:07Z</time>
      </trkpt>
      <trkpt lat="44.97352" lon="-0.37185">
        <ele>30.9</ele>
        <time>2021-02-06T11:46:08Z</time>
      </trkpt>
      <trkpt lat="44.97353" lon="-0.37191">
        <ele>34.74</ele>
        <time>2021-02-06T11:46:13Z</time>
      </trkpt>
      <trkpt lat="44.97353" lon="-0.37193">
        <ele>31.38</ele>
        <time>2021-02-06T11:46:14Z</time>
      </trkpt>
      <trkpt lat="44.97357" lon="-0.37207">
        <ele>31.86</ele>
        <time>2021-02-06T11:46:24Z</time>
      </trkpt>
      <trkpt lat="44.97358" lon="-0.37219">
        <ele>31.86</ele>
        <time>2021-02-06T11:46:32Z</time>
      </trkpt>
      <trkpt lat="44.97361" lon="-0.37223">
        <ele>31.86</ele>
        <time>2021-02-06T11:46:36Z</time>
      </trkpt>
      <trkpt lat="44.97371" lon="-0.37213">
        <ele>31.86</ele>
        <time>2021-02-06T11:46:50Z</time>
      </trkpt>
      <trkpt lat="44.97381" lon="-0.37201">
        <ele>32.34</ele>
        <time>2021-02-06T11:47:07Z</time>
      </trkpt>
      <trkpt lat="44.97393" lon="-0.37187">
        <ele>30.9</ele>
        <time>2021-02-06T11:47:21Z</time>
      </trkpt>
      <trkpt lat="44.97395" lon="-0.37185">
        <ele>32.34</ele>
        <time>2021-02-06T11:47:23Z</time>
      </trkpt>
      <trkpt lat="44.97409" lon="-0.37168">
        <ele>31.38</ele>
        <time>2021-02-06T11:47:40Z</time>
      </trkpt>
      <trkpt lat="44.97417" lon="-0.37158">
        <ele>32.82</ele>
        <time>2021-02-06T11:47:49Z</time>
      </trkpt>
      <trkpt lat="44.97428" lon="-0.37145">
        <ele>30.9</ele>
        <time>2021-02-06T11:48:00Z</time>
      </trkpt>
      <trkpt lat="44.97439" lon="-0.37133">
        <ele>32.82</ele>
        <time>2021-02-06T11:48:13Z</time>
      </trkpt>
      <trkpt lat="44.9744" lon="-0.37133">
        <ele>32.82</ele>
        <time>2021-02-06T11:48:14Z</time>
      </trkpt>
      <trkpt lat="44.97456" lon="-0.37141">
        <ele>32.82</ele>
        <time>2021-02-06T11:48:28Z</time>
      </trkpt>
      <trkpt lat="44.97473" lon="-0.37148">
        <ele>33.3</ele>
        <time>2021-02-06T11:48:42Z</time>
      </trkpt>
      <trkpt lat="44.97488" lon="-0.37143">
        <ele>31.86</ele>
        <time>2021-02-06T11:48:54Z</time>
      </trkpt>
      <trkpt lat="44.9749" lon="-0.37142">
        <ele>33.3</ele>
        <time>2021-02-06T11:48:56Z</time>
      </trkpt>
      <trkpt lat="44.97505" lon="-0.37125">
        <ele>33.3</ele>
        <time>2021-02-06T11:49:10Z</time>
      </trkpt>
      <trkpt lat="44.97517" lon="-0.37112">
        <ele>32.34</ele>
        <time>2021-02-06T11:49:23Z</time>
      </trkpt>
      <trkpt lat="44.9753" lon="-0.37097">
        <ele>32.34</ele>
        <time>2021-02-06T11:49:36Z</time>
      </trkpt>
      <trkpt lat="44.97542" lon="-0.37083">
        <ele>32.34</ele>
        <time>2021-02-06T11:49:49Z</time>
      </trkpt>
      <trkpt lat="44.97546" lon="-0.37079">
        <ele>31.38</ele>
        <time>2021-02-06T11:49:53Z</time>
      </trkpt>
      <trkpt lat="44.97548" lon="-0.37076">
        <ele>33.3</ele>
        <time>2021-02-06T11:49:55Z</time>
      </trkpt>
      <trkpt lat="44.9755" lon="-0.37074">
        <ele>31.86</ele>
        <time>2021-02-06T11:49:57Z</time>
      </trkpt>
      <trkpt lat="44.97561" lon="-0.37059">
        <ele>32.34</ele>
        <time>2021-02-06T11:50:09Z</time>
      </trkpt>
      <trkpt lat="44.97564" lon="-0.37056">
        <ele>33.3</ele>
        <time>2021-02-06T11:50:12Z</time>
      </trkpt>
      <trkpt lat="44.97569" lon="-0.3705">
        <ele>31.86</ele>
        <time>2021-02-06T11:50:18Z</time>
      </trkpt>
      <trkpt lat="44.97572" lon="-0.37046">
        <ele>33.3</ele>
        <time>2021-02-06T11:50:21Z</time>
      </trkpt>
      <trkpt lat="44.97581" lon="-0.37037">
        <ele>33.78</ele>
        <time>2021-02-06T11:50:31Z</time>
      </trkpt>
      <trkpt lat="44.97585" lon="-0.37038">
        <ele>32.34</ele>
        <time>2021-02-06T11:50:35Z</time>
      </trkpt>
      <trkpt lat="44.97591" lon="-0.37048">
        <ele>33.3</ele>
        <time>2021-02-06T11:50:42Z</time>
      </trkpt>
      <trkpt lat="44.97595" lon="-0.37054">
        <ele>32.34</ele>
        <time>2021-02-06T11:50:47Z</time>
      </trkpt>
      <trkpt lat="44.97604" lon="-0.37068">
        <ele>31.86</ele>
        <time>2021-02-06T11:50:58Z</time>
      </trkpt>
      <trkpt lat="44.97606" lon="-0.37071">
        <ele>32.82</ele>
        <time>2021-02-06T11:51:00Z</time>
      </trkpt>
      <trkpt lat="44.97609" lon="-0.37077">
        <ele>32.34</ele>
        <time>2021-02-06T11:51:04Z</time>
      </trkpt>
      <trkpt lat="44.9761" lon="-0.3708">
        <ele>33.78</ele>
        <time>2021-02-06T11:51:06Z</time>
      </trkpt>
      <trkpt lat="44.97622" lon="-0.37096">
        <ele>33.78</ele>
        <time>2021-02-06T11:51:20Z</time>
      </trkpt>
      <trkpt lat="44.97625" lon="-0.37102">
        <ele>32.34</ele>
        <time>2021-02-06T11:51:24Z</time>
      </trkpt>
      <trkpt lat="44.97635" lon="-0.37118">
        <ele>34.26</ele>
        <time>2021-02-06T11:51:37Z</time>
      </trkpt>
      <trkpt lat="44.97636" lon="-0.37119">
        <ele>32.34</ele>
        <time>2021-02-06T11:51:39Z</time>
      </trkpt>
      <trkpt lat="44.9764" lon="-0.37117">
        <ele>32.34</ele>
        <time>2021-02-06T11:51:43Z</time>
      </trkpt>
      <trkpt lat="44.97643" lon="-0.37112">
        <ele>32.34</ele>
        <time>2021-02-06T11:51:47Z</time>
      </trkpt>
      <trkpt lat="44.97647" lon="-0.37106">
        <ele>34.26</ele>
        <time>2021-02-06T11:51:52Z</time>
      </trkpt>
      <trkpt lat="44.9765" lon="-0.371">
        <ele>33.3</ele>
        <time>2021-02-06T11:51:57Z</time>
      </trkpt>
      <trkpt lat="44.97658" lon="-0.37086">
        <ele>32.82</ele>
        <time>2021-02-06T11:52:09Z</time>
      </trkpt>
      <trkpt lat="44.97659" lon="-0.37084">
        <ele>32.82</ele>
        <time>2021-02-06T11:52:10Z</time>
      </trkpt>
      <trkpt lat="44.9766" lon="-0.37082">
        <ele>34.26</ele>
        <time>2021-02-06T11:52:12Z</time>
      </trkpt>
      <trkpt lat="44.97669" lon="-0.37068">
        <ele>34.74</ele>
        <time>2021-02-06T11:52:24Z</time>
      </trkpt>
      <trkpt lat="44.9767" lon="-0.37066">
        <ele>33.3</ele>
        <time>2021-02-06T11:52:26Z</time>
      </trkpt>
      <trkpt lat="44.97675" lon="-0.37056">
        <ele>34.26</ele>
        <time>2021-02-06T11:52:34Z</time>
      </trkpt>
      <trkpt lat="44.97683" lon="-0.3704">
        <ele>34.74</ele>
        <time>2021-02-06T11:52:46Z</time>
      </trkpt>
      <trkpt lat="44.97686" lon="-0.37035">
        <ele>33.78</ele>
        <time>2021-02-06T11:52:50Z</time>
      </trkpt>
      <trkpt lat="44.97693" lon="-0.37024">
        <ele>34.74</ele>
        <time>2021-02-06T11:52:59Z</time>
      </trkpt>
      <trkpt lat="44.97701" lon="-0.37016">
        <ele>33.3</ele>
        <time>2021-02-06T11:53:08Z</time>
      </trkpt>
      <trkpt lat="44.97713" lon="-0.37034">
        <ele>35.23</ele>
        <time>2021-02-06T11:53:21Z</time>
      </trkpt>
      <trkpt lat="44.97716" lon="-0.37041">
        <ele>33.3</ele>
        <time>2021-02-06T11:53:25Z</time>
      </trkpt>
      <trkpt lat="44.97718" lon="-0.37044">
        <ele>35.23</ele>
        <time>2021-02-06T11:53:27Z</time>
      </trkpt>
      <trkpt lat="44.97723" lon="-0.37054">
        <ele>33.78</ele>
        <time>2021-02-06T11:53:34Z</time>
      </trkpt>
      <trkpt lat="44.97725" lon="-0.37058">
        <ele>35.23</ele>
        <time>2021-02-06T11:53:36Z</time>
      </trkpt>
      <trkpt lat="44.97727" lon="-0.3706">
        <ele>35.23</ele>
        <time>2021-02-06T11:53:38Z</time>
      </trkpt>
      <trkpt lat="44.9774" lon="-0.37082">
        <ele>35.23</ele>
        <time>2021-02-06T11:53:53Z</time>
      </trkpt>
      <trkpt lat="44.9775" lon="-0.37099">
        <ele>35.71</ele>
        <time>2021-02-06T11:54:05Z</time>
      </trkpt>
      <trkpt lat="44.9776" lon="-0.37116">
        <ele>35.71</ele>
        <time>2021-02-06T11:54:17Z</time>
      </trkpt>
      <trkpt lat="44.97768" lon="-0.37128">
        <ele>34.74</ele>
        <time>2021-02-06T11:54:26Z</time>
      </trkpt>
      <trkpt lat="44.9777" lon="-0.3713">
        <ele>36.19</ele>
        <time>2021-02-06T11:54:28Z</time>
      </trkpt>
      <trkpt lat="44.97781" lon="-0.37149">
        <ele>36.19</ele>
        <time>2021-02-06T11:54:41Z</time>
      </trkpt>
      <trkpt lat="44.97782" lon="-0.37151">
        <ele>36.19</ele>
        <time>2021-02-06T11:54:43Z</time>
      </trkpt>
      <trkpt lat="44.97786" lon="-0.37156">
        <ele>36.19</ele>
        <time>2021-02-06T11:54:47Z</time>
      </trkpt>
      <trkpt lat="44.97795" lon="-0.37158">
        <ele>36.67</ele>
        <time>2021-02-06T11:54:53Z</time>
      </trkpt>
      <trkpt lat="44.97804" lon="-0.37154">
        <ele>35.23</ele>
        <time>2021-02-06T11:55:00Z</time>
      </trkpt>
      <trkpt lat="44.97809" lon="-0.37149">
        <ele>35.23</ele>
        <time>2021-02-06T11:55:05Z</time>
      </trkpt>
      <trkpt lat="44.97813" lon="-0.37147">
        <ele>36.19</ele>
        <time>2021-02-06T11:55:08Z</time>
      </trkpt>
      <trkpt lat="44.97822" lon="-0.37142">
        <ele>35.23</ele>
        <time>2021-02-06T11:55:16Z</time>
      </trkpt>
      <trkpt lat="44.97825" lon="-0.3714">
        <ele>36.67</ele>
        <time>2021-02-06T11:55:18Z</time>
      </trkpt>
      <trkpt lat="44.97836" lon="-0.37135">
        <ele>34.74</ele>
        <time>2021-02-06T11:55:27Z</time>
      </trkpt>
      <trkpt lat="44.97839" lon="-0.37133">
        <ele>36.67</ele>
        <time>2021-02-06T11:55:29Z</time>
      </trkpt>
      <trkpt lat="44.97851" lon="-0.37129">
        <ele>36.19</ele>
        <time>2021-02-06T11:55:38Z</time>
      </trkpt>
      <trkpt lat="44.97857" lon="-0.37126">
        <ele>36.19</ele>
        <time>2021-02-06T11:55:42Z</time>
      </trkpt>
      <trkpt lat="44.97859" lon="-0.37125">
        <ele>36.19</ele>
        <time>2021-02-06T11:55:44Z</time>
      </trkpt>
      <trkpt lat="44.97877" lon="-0.37117">
        <ele>36.67</ele>
        <time>2021-02-06T11:55:58Z</time>
      </trkpt>
      <trkpt lat="44.97893" lon="-0.37108">
        <ele>36.67</ele>
        <time>2021-02-06T11:56:10Z</time>
      </trkpt>
      <trkpt lat="44.97907" lon="-0.371">
        <ele>37.15</ele>
        <time>2021-02-06T11:56:22Z</time>
      </trkpt>
      <trkpt lat="44.97911" lon="-0.37098">
        <ele>36.19</ele>
        <time>2021-02-06T11:56:25Z</time>
      </trkpt>
      <trkpt lat="44.97913" lon="-0.37097">
        <ele>37.15</ele>
        <time>2021-02-06T11:56:27Z</time>
      </trkpt>
      <trkpt lat="44.97932" lon="-0.37088">
        <ele>37.63</ele>
        <time>2021-02-06T11:56:43Z</time>
      </trkpt>
      <trkpt lat="44.97938" lon="-0.37085">
        <ele>37.63</ele>
        <time>2021-02-06T11:56:48Z</time>
      </trkpt>
      <trkpt lat="44.97942" lon="-0.37083">
        <ele>36.19</ele>
        <time>2021-02-06T11:56:52Z</time>
      </trkpt>
      <trkpt lat="44.97945" lon="-0.37085">
        <ele>37.63</ele>
        <time>2021-02-06T11:56:56Z</time>
      </trkpt>
      <trkpt lat="44.97955" lon="-0.37078">
        <ele>37.63</ele>
        <time>2021-02-06T11:57:09Z</time>
      </trkpt>
      <trkpt lat="44.97974" lon="-0.37074">
        <ele>36.67</ele>
        <time>2021-02-06T11:57:24Z</time>
      </trkpt>
      <trkpt lat="44.97982" lon="-0.37073">
        <ele>38.11</ele>
        <time>2021-02-06T11:57:30Z</time>
      </trkpt>
      <trkpt lat="44.97998" lon="-0.37072">
        <ele>38.59</ele>
        <time>2021-02-06T11:57:44Z</time>
      </trkpt>
      <trkpt lat="44.98006" lon="-0.3707">
        <ele>36.67</ele>
        <time>2021-02-06T11:57:51Z</time>
      </trkpt>
      <trkpt lat="44.98011" lon="-0.37073">
        <ele>37.63</ele>
        <time>2021-02-06T11:57:58Z</time>
      </trkpt>
      <trkpt lat="44.98016" lon="-0.37075">
        <ele>38.59</ele>
        <time>2021-02-06T11:58:03Z</time>
      </trkpt>
      <trkpt lat="44.98017" lon="-0.37075">
        <ele>38.59</ele>
        <time>2021-02-06T11:58:04Z</time>
      </trkpt>
      <trkpt lat="44.98021" lon="-0.37072">
        <ele>37.63</ele>
        <time>2021-02-06T11:58:08Z</time>
      </trkpt>
      <trkpt lat="44.98023" lon="-0.37072">
        <ele>37.63</ele>
        <time>2021-02-06T11:58:10Z</time>
      </trkpt>
      <trkpt lat="44.98026" lon="-0.37071">
        <ele>39.07</ele>
        <time>2021-02-06T11:58:13Z</time>
      </trkpt>
      <trkpt lat="44.98029" lon="-0.37071">
        <ele>37.63</ele>
        <time>2021-02-06T11:58:15Z</time>
      </trkpt>
      <trkpt lat="44.98031" lon="-0.37071">
        <ele>37.63</ele>
        <time>2021-02-06T11:58:17Z</time>
      </trkpt>
      <trkpt lat="44.98034" lon="-0.37069">
        <ele>38.59</ele>
        <time>2021-02-06T11:58:20Z</time>
      </trkpt>
      <trkpt lat="44.98038" lon="-0.37067">
        <ele>38.59</ele>
        <time>2021-02-06T11:58:24Z</time>
      </trkpt>
      <trkpt lat="44.98043" lon="-0.37067">
        <ele>38.59</ele>
        <time>2021-02-06T11:58:28Z</time>
      </trkpt>
      <trkpt lat="44.98053" lon="-0.3707">
        <ele>37.63</ele>
        <time>2021-02-06T11:58:38Z</time>
      </trkpt>
      <trkpt lat="44.98055" lon="-0.3707">
        <ele>39.07</ele>
        <time>2021-02-06T11:58:40Z</time>
      </trkpt>
      <trkpt lat="44.98056" lon="-0.3707">
        <ele>39.07</ele>
        <time>2021-02-06T11:58:41Z</time>
      </trkpt>
      <trkpt lat="44.98063" lon="-0.37069">
        <ele>39.07</ele>
        <time>2021-02-06T11:58:48Z</time>
      </trkpt>
      <trkpt lat="44.98071" lon="-0.37068">
        <ele>38.11</ele>
        <time>2021-02-06T11:58:55Z</time>
      </trkpt>
      <trkpt lat="44.98073" lon="-0.37068">
        <ele>39.55</ele>
        <time>2021-02-06T11:58:57Z</time>
      </trkpt>
      <trkpt lat="44.98075" lon="-0.37068">
        <ele>38.11</ele>
        <time>2021-02-06T11:58:59Z</time>
      </trkpt>
      <trkpt lat="44.98084" lon="-0.37067">
        <ele>40.03</ele>
        <time>2021-02-06T11:59:07Z</time>
      </trkpt>
      <trkpt lat="44.98093" lon="-0.37065">
        <ele>38.59</ele>
        <time>2021-02-06T11:59:16Z</time>
      </trkpt>
      <trkpt lat="44.98097" lon="-0.37064">
        <ele>38.59</ele>
        <time>2021-02-06T11:59:20Z</time>
      </trkpt>
      <trkpt lat="44.98099" lon="-0.37064">
        <ele>39.55</ele>
        <time>2021-02-06T11:59:22Z</time>
      </trkpt>
      <trkpt lat="44.981" lon="-0.37063">
        <ele>38.59</ele>
        <time>2021-02-06T11:59:24Z</time>
      </trkpt>
      <trkpt lat="44.98098" lon="-0.37052">
        <ele>40.03</ele>
        <time>2021-02-06T11:59:32Z</time>
      </trkpt>
      <trkpt lat="44.98095" lon="-0.37036">
        <ele>38.59</ele>
        <time>2021-02-06T11:59:43Z</time>
      </trkpt>
      <trkpt lat="44.98094" lon="-0.37028">
        <ele>39.55</ele>
        <time>2021-02-06T11:59:48Z</time>
      </trkpt>
      <trkpt lat="44.98092" lon="-0.37008">
        <ele>39.55</ele>
        <time>2021-02-06T11:59:59Z</time>
      </trkpt>
      <trkpt lat="44.98089" lon="-0.36991">
        <ele>38.11</ele>
        <time>2021-02-06T12:00:10Z</time>
      </trkpt>
      <trkpt lat="44.98086" lon="-0.3697">
        <ele>39.07</ele>
        <time>2021-02-06T12:00:24Z</time>
      </trkpt>
      <trkpt lat="44.98085" lon="-0.36968">
        <ele>37.63</ele>
        <time>2021-02-06T12:00:26Z</time>
      </trkpt>
      <trkpt lat="44.98085" lon="-0.36967">
        <ele>37.63</ele>
        <time>2021-02-06T12:00:27Z</time>
      </trkpt>
      <trkpt lat="44.9809" lon="-0.36965">
        <ele>39.07</ele>
        <time>2021-02-06T12:00:33Z</time>
      </trkpt>
      <trkpt lat="44.98104" lon="-0.36964">
        <ele>38.11</ele>
        <time>2021-02-06T12:00:47Z</time>
      </trkpt>
      <trkpt lat="44.98118" lon="-0.36966">
        <ele>39.07</ele>
        <time>2021-02-06T12:00:59Z</time>
      </trkpt>
      <trkpt lat="44.98133" lon="-0.36964">
        <ele>39.07</ele>
        <time>2021-02-06T12:01:11Z</time>
      </trkpt>
      <trkpt lat="44.98152" lon="-0.36965">
        <ele>39.55</ele>
        <time>2021-02-06T12:01:25Z</time>
      </trkpt>
      <trkpt lat="44.98168" lon="-0.36965">
        <ele>38.59</ele>
        <time>2021-02-06T12:01:38Z</time>
      </trkpt>
      <trkpt lat="44.98186" lon="-0.36963">
        <ele>38.59</ele>
        <time>2021-02-06T12:01:50Z</time>
      </trkpt>
      <trkpt lat="44.9819" lon="-0.36963">
        <ele>39.07</ele>
        <time>2021-02-06T12:01:54Z</time>
      </trkpt>
      <trkpt lat="44.98205" lon="-0.36962">
        <ele>39.55</ele>
        <time>2021-02-06T12:02:06Z</time>
      </trkpt>
      <trkpt lat="44.98208" lon="-0.36962">
        <ele>38.11</ele>
        <time>2021-02-06T12:02:08Z</time>
      </trkpt>
      <trkpt lat="44.98212" lon="-0.36962">
        <ele>38.11</ele>
        <time>2021-02-06T12:02:11Z</time>
      </trkpt>
      <trkpt lat="44.98214" lon="-0.36961">
        <ele>38.11</ele>
        <time>2021-02-06T12:02:13Z</time>
      </trkpt>
      <trkpt lat="44.98217" lon="-0.36953">
        <ele>38.11</ele>
        <time>2021-02-06T12:02:20Z</time>
      </trkpt>
      <trkpt lat="44.98222" lon="-0.36945">
        <ele>37.15</ele>
        <time>2021-02-06T12:02:28Z</time>
      </trkpt>
      <trkpt lat="44.98239" lon="-0.36937">
        <ele>39.07</ele>
        <time>2021-02-06T12:02:42Z</time>
      </trkpt>
      <trkpt lat="44.98249" lon="-0.36933">
        <ele>39.55</ele>
        <time>2021-02-06T12:02:50Z</time>
      </trkpt>
      <trkpt lat="44.9825" lon="-0.36932">
        <ele>38.11</ele>
        <time>2021-02-06T12:02:52Z</time>
      </trkpt>
      <trkpt lat="44.98265" lon="-0.36922">
        <ele>39.55</ele>
        <time>2021-02-06T12:03:05Z</time>
      </trkpt>
      <trkpt lat="44.98278" lon="-0.36914">
        <ele>38.11</ele>
        <time>2021-02-06T12:03:17Z</time>
      </trkpt>
      <trkpt lat="44.9829" lon="-0.36907">
        <ele>38.11</ele>
        <time>2021-02-06T12:03:30Z</time>
      </trkpt>
      <trkpt lat="44.9829" lon="-0.36908">
        <ele>38.11</ele>
        <time>2021-02-06T12:03:31Z</time>
      </trkpt>
      <trkpt lat="44.98292" lon="-0.36911">
        <ele>39.07</ele>
        <time>2021-02-06T12:03:34Z</time>
      </trkpt>
      <trkpt lat="44.98296" lon="-0.36937">
        <ele>38.59</ele>
        <time>2021-02-06T12:03:49Z</time>
      </trkpt>
      <trkpt lat="44.983" lon="-0.36957">
        <ele>39.07</ele>
        <time>2021-02-06T12:04:02Z</time>
      </trkpt>
      <trkpt lat="44.98305" lon="-0.36976">
        <ele>38.11</ele>
        <time>2021-02-06T12:04:14Z</time>
      </trkpt>
      <trkpt lat="44.98314" lon="-0.36996">
        <ele>39.55</ele>
        <time>2021-02-06T12:04:29Z</time>
      </trkpt>
      <trkpt lat="44.98323" lon="-0.37014">
        <ele>39.07</ele>
        <time>2021-02-06T12:04:43Z</time>
      </trkpt>
      <trkpt lat="44.98324" lon="-0.37015">
        <ele>38.59</ele>
        <time>2021-02-06T12:04:44Z</time>
      </trkpt>
      <trkpt lat="44.98325" lon="-0.37019">
        <ele>40.03</ele>
        <time>2021-02-06T12:04:47Z</time>
      </trkpt>
      <trkpt lat="44.98334" lon="-0.37042">
        <ele>40.03</ele>
        <time>2021-02-06T12:05:03Z</time>
      </trkpt>
      <trkpt lat="44.98338" lon="-0.37051">
        <ele>39.07</ele>
        <time>2021-02-06T12:05:09Z</time>
      </trkpt>
      <trkpt lat="44.98339" lon="-0.37053">
        <ele>40.51</ele>
        <time>2021-02-06T12:05:11Z</time>
      </trkpt>
      <trkpt lat="44.98339" lon="-0.37058">
        <ele>40.51</ele>
        <time>2021-02-06T12:05:15Z</time>
      </trkpt>
      <trkpt lat="44.98322" lon="-0.37075">
        <ele>40.99</ele>
        <time>2021-02-06T12:05:31Z</time>
      </trkpt>
      <trkpt lat="44.98309" lon="-0.3709">
        <ele>41.47</ele>
        <time>2021-02-06T12:05:44Z</time>
      </trkpt>
      <trkpt lat="44.98297" lon="-0.37105">
        <ele>41.47</ele>
        <time>2021-02-06T12:05:56Z</time>
      </trkpt>
      <trkpt lat="44.98288" lon="-0.37118">
        <ele>41.47</ele>
        <time>2021-02-06T12:06:07Z</time>
      </trkpt>
      <trkpt lat="44.9828" lon="-0.37129">
        <ele>40.03</ele>
        <time>2021-02-06T12:06:16Z</time>
      </trkpt>
      <trkpt lat="44.98278" lon="-0.37132">
        <ele>41.47</ele>
        <time>2021-02-06T12:06:18Z</time>
      </trkpt>
      <trkpt lat="44.98269" lon="-0.37145">
        <ele>40.03</ele>
        <time>2021-02-06T12:06:27Z</time>
      </trkpt>
      <trkpt lat="44.98267" lon="-0.37148">
        <ele>41.47</ele>
        <time>2021-02-06T12:06:29Z</time>
      </trkpt>
      <trkpt lat="44.98256" lon="-0.37169">
        <ele>40.51</ele>
        <time>2021-02-06T12:06:43Z</time>
      </trkpt>
      <trkpt lat="44.98244" lon="-0.3719">
        <ele>40.03</ele>
        <time>2021-02-06T12:06:57Z</time>
      </trkpt>
      <trkpt lat="44.98236" lon="-0.37207">
        <ele>40.99</ele>
        <time>2021-02-06T12:07:08Z</time>
      </trkpt>
      <trkpt lat="44.9823" lon="-0.37216">
        <ele>39.55</ele>
        <time>2021-02-06T12:07:14Z</time>
      </trkpt>
      <trkpt lat="44.98229" lon="-0.37219">
        <ele>41.47</ele>
        <time>2021-02-06T12:07:16Z</time>
      </trkpt>
      <trkpt lat="44.98222" lon="-0.37232">
        <ele>40.51</ele>
        <time>2021-02-06T12:07:24Z</time>
      </trkpt>
      <trkpt lat="44.9821" lon="-0.3725">
        <ele>40.99</ele>
        <time>2021-02-06T12:07:37Z</time>
      </trkpt>
      <trkpt lat="44.98199" lon="-0.37271">
        <ele>40.99</ele>
        <time>2021-02-06T12:07:51Z</time>
      </trkpt>
      <trkpt lat="44.98189" lon="-0.3729">
        <ele>40.99</ele>
        <time>2021-02-06T12:08:03Z</time>
      </trkpt>
      <trkpt lat="44.98177" lon="-0.37311">
        <ele>40.03</ele>
        <time>2021-02-06T12:08:17Z</time>
      </trkpt>
      <trkpt lat="44.9817" lon="-0.37322">
        <ele>40.99</ele>
        <time>2021-02-06T12:08:25Z</time>
      </trkpt>
      <trkpt lat="44.9816" lon="-0.3734">
        <ele>40.99</ele>
        <time>2021-02-06T12:08:37Z</time>
      </trkpt>
      <trkpt lat="44.98158" lon="-0.37343">
        <ele>39.55</ele>
        <time>2021-02-06T12:08:39Z</time>
      </trkpt>
      <trkpt lat="44.98156" lon="-0.37346">
        <ele>40.99</ele>
        <time>2021-02-06T12:08:41Z</time>
      </trkpt>
      <trkpt lat="44.98153" lon="-0.37352">
        <ele>39.55</ele>
        <time>2021-02-06T12:08:45Z</time>
      </trkpt>
      <trkpt lat="44.98152" lon="-0.37355">
        <ele>40.99</ele>
        <time>2021-02-06T12:08:47Z</time>
      </trkpt>
      <trkpt lat="44.98148" lon="-0.37361">
        <ele>40.99</ele>
        <time>2021-02-06T12:08:51Z</time>
      </trkpt>
      <trkpt lat="44.98141" lon="-0.37378">
        <ele>39.07</ele>
        <time>2021-02-06T12:09:01Z</time>
      </trkpt>
      <trkpt lat="44.9814" lon="-0.37381">
        <ele>40.51</ele>
        <time>2021-02-06T12:09:03Z</time>
      </trkpt>
      <trkpt lat="44.98137" lon="-0.37386">
        <ele>39.07</ele>
        <time>2021-02-06T12:09:07Z</time>
      </trkpt>
      <trkpt lat="44.98135" lon="-0.3739">
        <ele>40.51</ele>
        <time>2021-02-06T12:09:09Z</time>
      </trkpt>
      <trkpt lat="44.98132" lon="-0.37396">
        <ele>39.07</ele>
        <time>2021-02-06T12:09:13Z</time>
      </trkpt>
      <trkpt lat="44.98131" lon="-0.37399">
        <ele>40.51</ele>
        <time>2021-02-06T12:09:15Z</time>
      </trkpt>
      <trkpt lat="44.98124" lon="-0.37425">
        <ele>39.07</ele>
        <time>2021-02-06T12:09:29Z</time>
      </trkpt>
      <trkpt lat="44.98114" lon="-0.37451">
        <ele>39.07</ele>
        <time>2021-02-06T12:09:44Z</time>
      </trkpt>
      <trkpt lat="44.98111" lon="-0.37461">
        <ele>39.07</ele>
        <time>2021-02-06T12:09:50Z</time>
      </trkpt>
      <trkpt lat="44.98102" lon="-0.37493">
        <ele>38.59</ele>
        <time>2021-02-06T12:10:07Z</time>
      </trkpt>
      <trkpt lat="44.98097" lon="-0.37509">
        <ele>38.59</ele>
        <time>2021-02-06T12:10:16Z</time>
      </trkpt>
      <trkpt lat="44.98088" lon="-0.37533">
        <ele>38.59</ele>
        <time>2021-02-06T12:10:30Z</time>
      </trkpt>
      <trkpt lat="44.98079" lon="-0.37561">
        <ele>38.59</ele>
        <time>2021-02-06T12:10:46Z</time>
      </trkpt>
      <trkpt lat="44.9807" lon="-0.37591">
        <ele>38.59</ele>
        <time>2021-02-06T12:11:03Z</time>
      </trkpt>
      <trkpt lat="44.98063" lon="-0.37602">
        <ele>38.59</ele>
        <time>2021-02-06T12:11:16Z</time>
      </trkpt>
      <trkpt lat="44.9806" lon="-0.37603">
        <ele>38.59</ele>
        <time>2021-02-06T12:11:34Z</time>
      </trkpt>
      <trkpt lat="44.98058" lon="-0.37605">
        <ele>39.07</ele>
        <time>2021-02-06T12:11:39Z</time>
      </trkpt>
      <trkpt lat="44.98039" lon="-0.37608">
        <ele>39.07</ele>
        <time>2021-02-06T12:11:54Z</time>
      </trkpt>
      <trkpt lat="44.98035" lon="-0.37609">
        <ele>37.63</ele>
        <time>2021-02-06T12:11:57Z</time>
      </trkpt>
      <trkpt lat="44.98017" lon="-0.37611">
        <ele>37.63</ele>
        <time>2021-02-06T12:12:11Z</time>
      </trkpt>
      <trkpt lat="44.98002" lon="-0.37615">
        <ele>37.15</ele>
        <time>2021-02-06T12:12:25Z</time>
      </trkpt>
      <trkpt lat="44.97978" lon="-0.3762">
        <ele>37.15</ele>
        <time>2021-02-06T12:12:41Z</time>
      </trkpt>
      <trkpt lat="44.9796" lon="-0.37625">
        <ele>37.63</ele>
        <time>2021-02-06T12:12:55Z</time>
      </trkpt>
      <trkpt lat="44.97942" lon="-0.3763">
        <ele>36.19</ele>
        <time>2021-02-06T12:13:08Z</time>
      </trkpt>
      <trkpt lat="44.9794" lon="-0.37631">
        <ele>37.63</ele>
        <time>2021-02-06T12:13:10Z</time>
      </trkpt>
      <trkpt lat="44.97923" lon="-0.3764">
        <ele>36.19</ele>
        <time>2021-02-06T12:13:25Z</time>
      </trkpt>
      <trkpt lat="44.97911" lon="-0.37648">
        <ele>36.19</ele>
        <time>2021-02-06T12:13:37Z</time>
      </trkpt>
      <trkpt lat="44.97912" lon="-0.37652">
        <ele>35.71</ele>
        <time>2021-02-06T12:13:42Z</time>
      </trkpt>
      <trkpt lat="44.97917" lon="-0.37661">
        <ele>37.15</ele>
        <time>2021-02-06T12:13:50Z</time>
      </trkpt>
      <trkpt lat="44.97917" lon="-0.37662">
        <ele>37.15</ele>
        <time>2021-02-06T12:13:51Z</time>
      </trkpt>
      <trkpt lat="44.97923" lon="-0.37685">
        <ele>36.67</ele>
        <time>2021-02-06T12:14:08Z</time>
      </trkpt>
      <trkpt lat="44.97924" lon="-0.37689">
        <ele>37.63</ele>
        <time>2021-02-06T12:14:11Z</time>
      </trkpt>
      <trkpt lat="44.97929" lon="-0.37709">
        <ele>36.67</ele>
        <time>2021-02-06T12:14:25Z</time>
      </trkpt>
      <trkpt lat="44.97933" lon="-0.37724">
        <ele>36.19</ele>
        <time>2021-02-06T12:14:36Z</time>
      </trkpt>
      <trkpt lat="44.97934" lon="-0.37728">
        <ele>36.19</ele>
        <time>2021-02-06T12:14:39Z</time>
      </trkpt>
      <trkpt lat="44.97935" lon="-0.37733">
        <ele>36.19</ele>
        <time>2021-02-06T12:14:42Z</time>
      </trkpt>
      <trkpt lat="44.97939" lon="-0.37744">
        <ele>38.11</ele>
        <time>2021-02-06T12:14:50Z</time>
      </trkpt>
      <trkpt lat="44.97945" lon="-0.37767">
        <ele>39.07</ele>
        <time>2021-02-06T12:15:05Z</time>
      </trkpt>
      <trkpt lat="44.97949" lon="-0.37784">
        <ele>38.59</ele>
        <time>2021-02-06T12:15:16Z</time>
      </trkpt>
      <trkpt lat="44.9795" lon="-0.37788">
        <ele>38.59</ele>
        <time>2021-02-06T12:15:19Z</time>
      </trkpt>
      <trkpt lat="44.97952" lon="-0.37799">
        <ele>36.67</ele>
        <time>2021-02-06T12:15:26Z</time>
      </trkpt>
      <trkpt lat="44.97951" lon="-0.37807">
        <ele>39.07</ele>
        <time>2021-02-06T12:15:31Z</time>
      </trkpt>
      <trkpt lat="44.97952" lon="-0.37811">
        <ele>37.63</ele>
        <time>2021-02-06T12:15:34Z</time>
      </trkpt>
      <trkpt lat="44.97959" lon="-0.37833">
        <ele>40.03</ele>
        <time>2021-02-06T12:15:48Z</time>
      </trkpt>
      <trkpt lat="44.97962" lon="-0.37846">
        <ele>38.11</ele>
        <time>2021-02-06T12:15:55Z</time>
      </trkpt>
      <trkpt lat="44.97967" lon="-0.37867">
        <ele>38.59</ele>
        <time>2021-02-06T12:16:09Z</time>
      </trkpt>
      <trkpt lat="44.97968" lon="-0.3787">
        <ele>39.55</ele>
        <time>2021-02-06T12:16:11Z</time>
      </trkpt>
      <trkpt lat="44.97969" lon="-0.37873">
        <ele>38.59</ele>
        <time>2021-02-06T12:16:13Z</time>
      </trkpt>
      <trkpt lat="44.97972" lon="-0.37884">
        <ele>38.11</ele>
        <time>2021-02-06T12:16:21Z</time>
      </trkpt>
      <trkpt lat="44.97977" lon="-0.37904">
        <ele>39.55</ele>
        <time>2021-02-06T12:16:35Z</time>
      </trkpt>
      <trkpt lat="44.97982" lon="-0.37922">
        <ele>40.03</ele>
        <time>2021-02-06T12:16:48Z</time>
      </trkpt>
      <trkpt lat="44.97984" lon="-0.37928">
        <ele>39.07</ele>
        <time>2021-02-06T12:16:52Z</time>
      </trkpt>
      <trkpt lat="44.97986" lon="-0.37935">
        <ele>40.99</ele>
        <time>2021-02-06T12:16:56Z</time>
      </trkpt>
      <trkpt lat="44.97988" lon="-0.37941">
        <ele>40.51</ele>
        <time>2021-02-06T12:17:00Z</time>
      </trkpt>
      <trkpt lat="44.97994" lon="-0.37961">
        <ele>40.51</ele>
        <time>2021-02-06T12:17:15Z</time>
      </trkpt>
      <trkpt lat="44.97999" lon="-0.37978">
        <ele>40.51</ele>
        <time>2021-02-06T12:17:28Z</time>
      </trkpt>
      <trkpt lat="44.97992" lon="-0.37988">
        <ele>39.55</ele>
        <time>2021-02-06T12:17:44Z</time>
      </trkpt>
      <trkpt lat="44.97986" lon="-0.37994">
        <ele>39.55</ele>
        <time>2021-02-06T12:17:58Z</time>
      </trkpt>
      <trkpt lat="44.97981" lon="-0.37999">
        <ele>40.03</ele>
        <time>2021-02-06T12:18:04Z</time>
      </trkpt>
      <trkpt lat="44.97977" lon="-0.38002">
        <ele>41.47</ele>
        <time>2021-02-06T12:18:09Z</time>
      </trkpt>
      <trkpt lat="44.97971" lon="-0.38002">
        <ele>40.03</ele>
        <time>2021-02-06T12:18:13Z</time>
      </trkpt>
      <trkpt lat="44.97961" lon="-0.38004">
        <ele>41.47</ele>
        <time>2021-02-06T12:18:23Z</time>
      </trkpt>
      <trkpt lat="44.97958" lon="-0.38005">
        <ele>40.03</ele>
        <time>2021-02-06T12:18:26Z</time>
      </trkpt>
      <trkpt lat="44.97957" lon="-0.38006">
        <ele>39.55</ele>
        <time>2021-02-06T12:18:27Z</time>
      </trkpt>
      <trkpt lat="44.97948" lon="-0.38011">
        <ele>39.55</ele>
        <time>2021-02-06T12:18:37Z</time>
      </trkpt>
      <trkpt lat="44.97946" lon="-0.38013">
        <ele>40.03</ele>
        <time>2021-02-06T12:18:40Z</time>
      </trkpt>
      <trkpt lat="44.97945" lon="-0.38015">
        <ele>40.03</ele>
        <time>2021-02-06T12:18:42Z</time>
      </trkpt>
      <trkpt lat="44.97949" lon="-0.38036">
        <ele>40.99</ele>
        <time>2021-02-06T12:18:56Z</time>
      </trkpt>
      <trkpt lat="44.97956" lon="-0.38061">
        <ele>40.99</ele>
        <time>2021-02-06T12:19:11Z</time>
      </trkpt>
      <trkpt lat="44.97958" lon="-0.3807">
        <ele>40.03</ele>
        <time>2021-02-06T12:19:17Z</time>
      </trkpt>
      <trkpt lat="44.9796" lon="-0.38079">
        <ele>41.47</ele>
        <time>2021-02-06T12:19:22Z</time>
      </trkpt>
      <trkpt lat="44.97962" lon="-0.38099">
        <ele>40.99</ele>
        <time>2021-02-06T12:19:35Z</time>
      </trkpt>
      <trkpt lat="44.97953" lon="-0.38103">
        <ele>39.55</ele>
        <time>2021-02-06T12:19:42Z</time>
      </trkpt>
      <trkpt lat="44.97949" lon="-0.38109">
        <ele>40.03</ele>
        <time>2021-02-06T12:19:56Z</time>
      </trkpt>
      <trkpt lat="44.97948" lon="-0.38115">
        <ele>40.03</ele>
        <time>2021-02-06T12:20:00Z</time>
      </trkpt>
      <trkpt lat="44.97936" lon="-0.38128">
        <ele>40.51</ele>
        <time>2021-02-06T12:20:13Z</time>
      </trkpt>
      <trkpt lat="44.97933" lon="-0.38138">
        <ele>40.03</ele>
        <time>2021-02-06T12:20:20Z</time>
      </trkpt>
      <trkpt lat="44.97935" lon="-0.38148">
        <ele>39.07</ele>
        <time>2021-02-06T12:20:26Z</time>
      </trkpt>
      <trkpt lat="44.97936" lon="-0.38167">
        <ele>39.07</ele>
        <time>2021-02-06T12:20:36Z</time>
      </trkpt>
      <trkpt lat="44.97936" lon="-0.3817">
        <ele>40.99</ele>
        <time>2021-02-06T12:20:38Z</time>
      </trkpt>
      <trkpt lat="44.97936" lon="-0.38174">
        <ele>39.55</ele>
        <time>2021-02-06T12:20:40Z</time>
      </trkpt>
      <trkpt lat="44.97937" lon="-0.38197">
        <ele>40.51</ele>
        <time>2021-02-06T12:20:52Z</time>
      </trkpt>
      <trkpt lat="44.97938" lon="-0.38202">
        <ele>39.55</ele>
        <time>2021-02-06T12:20:54Z</time>
      </trkpt>
      <trkpt lat="44.97938" lon="-0.38211">
        <ele>39.55</ele>
        <time>2021-02-06T12:20:59Z</time>
      </trkpt>
      <trkpt lat="44.97939" lon="-0.38215">
        <ele>39.07</ele>
        <time>2021-02-06T12:21:02Z</time>
      </trkpt>
      <trkpt lat="44.97938" lon="-0.38242">
        <ele>39.07</ele>
        <time>2021-02-06T12:21:17Z</time>
      </trkpt>
      <trkpt lat="44.97939" lon="-0.38265">
        <ele>38.59</ele>
        <time>2021-02-06T12:21:29Z</time>
      </trkpt>
      <trkpt lat="44.9794" lon="-0.38292">
        <ele>38.59</ele>
        <time>2021-02-06T12:21:44Z</time>
      </trkpt>
      <trkpt lat="44.97941" lon="-0.38295">
        <ele>38.59</ele>
        <time>2021-02-06T12:21:46Z</time>
      </trkpt>
      <trkpt lat="44.97942" lon="-0.38306">
        <ele>36.67</ele>
        <time>2021-02-06T12:21:53Z</time>
      </trkpt>
      <trkpt lat="44.9794" lon="-0.38335">
        <ele>37.63</ele>
        <time>2021-02-06T12:22:08Z</time>
      </trkpt>
      <trkpt lat="44.9794" lon="-0.38342">
        <ele>37.63</ele>
        <time>2021-02-06T12:22:12Z</time>
      </trkpt>
      <trkpt lat="44.97941" lon="-0.38376">
        <ele>37.15</ele>
        <time>2021-02-06T12:22:28Z</time>
      </trkpt>
      <trkpt lat="44.97943" lon="-0.38404">
        <ele>36.19</ele>
        <time>2021-02-06T12:22:42Z</time>
      </trkpt>
      <trkpt lat="44.97945" lon="-0.38432">
        <ele>35.71</ele>
        <time>2021-02-06T12:22:57Z</time>
      </trkpt>
      <trkpt lat="44.97947" lon="-0.38463">
        <ele>35.23</ele>
        <time>2021-02-06T12:23:13Z</time>
      </trkpt>
      <trkpt lat="44.97947" lon="-0.38491">
        <ele>34.26</ele>
        <time>2021-02-06T12:23:28Z</time>
      </trkpt>
      <trkpt lat="44.97949" lon="-0.3852">
        <ele>33.3</ele>
        <time>2021-02-06T12:23:42Z</time>
      </trkpt>
      <trkpt lat="44.97949" lon="-0.3853">
        <ele>33.3</ele>
        <time>2021-02-06T12:23:47Z</time>
      </trkpt>
      <trkpt lat="44.9795" lon="-0.38559">
        <ele>32.82</ele>
        <time>2021-02-06T12:24:02Z</time>
      </trkpt>
      <trkpt lat="44.9795" lon="-0.38563">
        <ele>32.82</ele>
        <time>2021-02-06T12:24:04Z</time>
      </trkpt>
      <trkpt lat="44.9795" lon="-0.3859">
        <ele>32.82</ele>
        <time>2021-02-06T12:24:18Z</time>
      </trkpt>
      <trkpt lat="44.97951" lon="-0.38618">
        <ele>31.86</ele>
        <time>2021-02-06T12:24:32Z</time>
      </trkpt>
      <trkpt lat="44.97953" lon="-0.3864">
        <ele>30.9</ele>
        <time>2021-02-06T12:24:43Z</time>
      </trkpt>
      <trkpt lat="44.97954" lon="-0.38669">
        <ele>30.9</ele>
        <time>2021-02-06T12:24:57Z</time>
      </trkpt>
      <trkpt lat="44.97954" lon="-0.38699">
        <ele>29.94</ele>
        <time>2021-02-06T12:25:13Z</time>
      </trkpt>
      <trkpt lat="44.97955" lon="-0.38727">
        <ele>30.42</ele>
        <time>2021-02-06T12:25:27Z</time>
      </trkpt>
      <trkpt lat="44.97955" lon="-0.38729">
        <ele>30.42</ele>
        <time>2021-02-06T12:25:28Z</time>
      </trkpt>
      <trkpt lat="44.97955" lon="-0.38736">
        <ele>29.46</ele>
        <time>2021-02-06T12:25:32Z</time>
      </trkpt>
      <trkpt lat="44.97948" lon="-0.38758">
        <ele>28.98</ele>
        <time>2021-02-06T12:25:46Z</time>
      </trkpt>
      <trkpt lat="44.97932" lon="-0.38768">
        <ele>28.5</ele>
        <time>2021-02-06T12:26:00Z</time>
      </trkpt>
      <trkpt lat="44.97912" lon="-0.38775">
        <ele>28.5</ele>
        <time>2021-02-06T12:26:15Z</time>
      </trkpt>
      <trkpt lat="44.97895" lon="-0.38782">
        <ele>28.02</ele>
        <time>2021-02-06T12:26:28Z</time>
      </trkpt>
      <trkpt lat="44.97877" lon="-0.38795">
        <ele>27.53</ele>
        <time>2021-02-06T12:26:43Z</time>
      </trkpt>
      <trkpt lat="44.9786" lon="-0.38815">
        <ele>27.53</ele>
        <time>2021-02-06T12:26:58Z</time>
      </trkpt>
      <trkpt lat="44.97843" lon="-0.38836">
        <ele>26.57</ele>
        <time>2021-02-06T12:27:14Z</time>
      </trkpt>
      <trkpt lat="44.97827" lon="-0.38856">
        <ele>26.09</ele>
        <time>2021-02-06T12:27:30Z</time>
      </trkpt>
      <trkpt lat="44.97813" lon="-0.38877">
        <ele>25.13</ele>
        <time>2021-02-06T12:27:45Z</time>
      </trkpt>
      <trkpt lat="44.97797" lon="-0.38897">
        <ele>24.65</ele>
        <time>2021-02-06T12:28:00Z</time>
      </trkpt>
      <trkpt lat="44.97782" lon="-0.38918">
        <ele>24.17</ele>
        <time>2021-02-06T12:28:15Z</time>
      </trkpt>
      <trkpt lat="44.97769" lon="-0.38941">
        <ele>23.21</ele>
        <time>2021-02-06T12:28:30Z</time>
      </trkpt>
      <trkpt lat="44.97757" lon="-0.38965">
        <ele>21.77</ele>
        <time>2021-02-06T12:28:45Z</time>
      </trkpt>
      <trkpt lat="44.97749" lon="-0.38979">
        <ele>21.29</ele>
        <time>2021-02-06T12:28:54Z</time>
      </trkpt>
      <trkpt lat="44.97744" lon="-0.38986">
        <ele>21.29</ele>
        <time>2021-02-06T12:28:59Z</time>
      </trkpt>
      <trkpt lat="44.97725" lon="-0.39009">
        <ele>20.32</ele>
        <time>2021-02-06T12:29:16Z</time>
      </trkpt>
      <trkpt lat="44.97711" lon="-0.3902">
        <ele>20.32</ele>
        <time>2021-02-06T12:29:28Z</time>
      </trkpt>
      <trkpt lat="44.9769" lon="-0.39034">
        <ele>18.88</ele>
        <time>2021-02-06T12:29:45Z</time>
      </trkpt>
      <trkpt lat="44.97688" lon="-0.39036">
        <ele>18.88</ele>
        <time>2021-02-06T12:29:47Z</time>
      </trkpt>
      <trkpt lat="44.97683" lon="-0.39041">
        <ele>19.84</ele>
        <time>2021-02-06T12:29:51Z</time>
      </trkpt>
      <trkpt lat="44.97681" lon="-0.39042">
        <ele>19.84</ele>
        <time>2021-02-06T12:29:52Z</time>
      </trkpt>
      <trkpt lat="44.97668" lon="-0.39051">
        <ele>18.4</ele>
        <time>2021-02-06T12:30:01Z</time>
      </trkpt>
      <trkpt lat="44.97651" lon="-0.39065">
        <ele>17.92</ele>
        <time>2021-02-06T12:30:17Z</time>
      </trkpt>
      <trkpt lat="44.9764" lon="-0.39049">
        <ele>17.44</ele>
        <time>2021-02-06T12:30:29Z</time>
      </trkpt>
      <trkpt lat="44.9763" lon="-0.39029">
        <ele>17.44</ele>
        <time>2021-02-06T12:30:43Z</time>
      </trkpt>
      <trkpt lat="44.9762" lon="-0.39007">
        <ele>16.48</ele>
        <time>2021-02-06T12:30:57Z</time>
      </trkpt>
      <trkpt lat="44.97618" lon="-0.39003">
        <ele>18.4</ele>
        <time>2021-02-06T12:31:00Z</time>
      </trkpt>
      <trkpt lat="44.9761" lon="-0.38988">
        <ele>17.92</ele>
        <time>2021-02-06T12:31:12Z</time>
      </trkpt>
      <trkpt lat="44.9761" lon="-0.38987">
        <ele>17.92</ele>
        <time>2021-02-06T12:31:13Z</time>
      </trkpt>
      <trkpt lat="44.97606" lon="-0.38984">
        <ele>17.92</ele>
        <time>2021-02-06T12:31:27Z</time>
      </trkpt>
      <trkpt lat="44.97606" lon="-0.38984">
        <ele>16.48</ele>
        <time>2021-02-06T12:31:34Z</time>
      </trkpt>
      <trkpt lat="44.97605" lon="-0.38971">
        <ele>19.36</ele>
        <time>2021-02-06T12:31:45Z</time>
      </trkpt>
      <trkpt lat="44.97608" lon="-0.38966">
        <ele>17.92</ele>
        <time>2021-02-06T12:32:02Z</time>
      </trkpt>
      <trkpt lat="44.97607" lon="-0.38967">
        <ele>17.92</ele>
        <time>2021-02-06T12:32:37Z</time>
      </trkpt>
      <trkpt lat="44.97603" lon="-0.38965">
        <ele>17.44</ele>
        <time>2021-02-06T12:33:02Z</time>
      </trkpt>
      <trkpt lat="44.97598" lon="-0.38967">
        <ele>18.4</ele>
        <time>2021-02-06T12:33:24Z</time>
      </trkpt>
      <trkpt lat="44.97596" lon="-0.38964">
        <ele>17.44</ele>
        <time>2021-02-06T12:33:30Z</time>
      </trkpt>
      <trkpt lat="44.97596" lon="-0.38959">
        <ele>18.88</ele>
        <time>2021-02-06T12:33:33Z</time>
      </trkpt>
      <trkpt lat="44.9759" lon="-0.38945">
        <ele>17.92</ele>
        <time>2021-02-06T12:33:44Z</time>
      </trkpt>
      <trkpt lat="44.97586" lon="-0.38934">
        <ele>18.4</ele>
        <time>2021-02-06T12:33:52Z</time>
      </trkpt>
      <trkpt lat="44.97585" lon="-0.38931">
        <ele>19.84</ele>
        <time>2021-02-06T12:33:54Z</time>
      </trkpt>
      <trkpt lat="44.97583" lon="-0.38929">
        <ele>19.84</ele>
        <time>2021-02-06T12:33:56Z</time>
      </trkpt>
      <trkpt lat="44.97577" lon="-0.3892">
        <ele>20.32</ele>
        <time>2021-02-06T12:34:03Z</time>
      </trkpt>
      <trkpt lat="44.97575" lon="-0.38914">
        <ele>18.88</ele>
        <time>2021-02-06T12:34:08Z</time>
      </trkpt>
      <trkpt lat="44.97572" lon="-0.38908">
        <ele>20.32</ele>
        <time>2021-02-06T12:34:13Z</time>
      </trkpt>
      <trkpt lat="44.97564" lon="-0.38893">
        <ele>20.81</ele>
        <time>2021-02-06T12:34:25Z</time>
      </trkpt>
      <trkpt lat="44.97558" lon="-0.38878">
        <ele>20.81</ele>
        <time>2021-02-06T12:34:36Z</time>
      </trkpt>
      <trkpt lat="44.97556" lon="-0.38873">
        <ele>21.29</ele>
        <time>2021-02-06T12:34:40Z</time>
      </trkpt>
      <trkpt lat="44.97552" lon="-0.3887">
        <ele>22.25</ele>
        <time>2021-02-06T12:34:44Z</time>
      </trkpt>
      <trkpt lat="44.97549" lon="-0.38868">
        <ele>21.77</ele>
        <time>2021-02-06T12:34:49Z</time>
      </trkpt>
      <trkpt lat="44.97542" lon="-0.38872">
        <ele>20.81</ele>
        <time>2021-02-06T12:34:56Z</time>
      </trkpt>
      <trkpt lat="44.97539" lon="-0.38874">
        <ele>22.25</ele>
        <time>2021-02-06T12:34:58Z</time>
      </trkpt>
      <trkpt lat="44.97521" lon="-0.38882">
        <ele>21.29</ele>
        <time>2021-02-06T12:35:13Z</time>
      </trkpt>
      <trkpt lat="44.97516" lon="-0.38885">
        <ele>20.32</ele>
        <time>2021-02-06T12:35:17Z</time>
      </trkpt>
      <trkpt lat="44.97514" lon="-0.38886">
        <ele>21.77</ele>
        <time>2021-02-06T12:35:19Z</time>
      </trkpt>
      <trkpt lat="44.97497" lon="-0.38896">
        <ele>21.29</ele>
        <time>2021-02-06T12:35:33Z</time>
      </trkpt>
      <trkpt lat="44.9748" lon="-0.38906">
        <ele>20.32</ele>
        <time>2021-02-06T12:35:48Z</time>
      </trkpt>
      <trkpt lat="44.97471" lon="-0.38911">
        <ele>21.77</ele>
        <time>2021-02-06T12:35:55Z</time>
      </trkpt>
      <trkpt lat="44.97455" lon="-0.3892">
        <ele>20.32</ele>
        <time>2021-02-06T12:36:08Z</time>
      </trkpt>
      <trkpt lat="44.9745" lon="-0.38922">
        <ele>21.77</ele>
        <time>2021-02-06T12:36:12Z</time>
      </trkpt>
      <trkpt lat="44.97435" lon="-0.3893">
        <ele>21.77</ele>
        <time>2021-02-06T12:36:27Z</time>
      </trkpt>
      <trkpt lat="44.97433" lon="-0.38931">
        <ele>21.29</ele>
        <time>2021-02-06T12:36:32Z</time>
      </trkpt>
      <trkpt lat="44.97431" lon="-0.3893">
        <ele>21.29</ele>
        <time>2021-02-06T12:36:45Z</time>
      </trkpt>
      <trkpt lat="44.9743" lon="-0.38929">
        <ele>23.21</ele>
        <time>2021-02-06T12:36:51Z</time>
      </trkpt>
      <trkpt lat="44.97428" lon="-0.38926">
        <ele>23.21</ele>
        <time>2021-02-06T12:36:54Z</time>
      </trkpt>
      <trkpt lat="44.97419" lon="-0.38907">
        <ele>21.29</ele>
        <time>2021-02-06T12:37:08Z</time>
      </trkpt>
      <trkpt lat="44.97415" lon="-0.389">
        <ele>21.77</ele>
        <time>2021-02-06T12:37:13Z</time>
      </trkpt>
      <trkpt lat="44.97413" lon="-0.38897">
        <ele>23.21</ele>
        <time>2021-02-06T12:37:15Z</time>
      </trkpt>
      <trkpt lat="44.974" lon="-0.38873">
        <ele>21.77</ele>
        <time>2021-02-06T12:37:33Z</time>
      </trkpt>
      <trkpt lat="44.97397" lon="-0.38865">
        <ele>23.21</ele>
        <time>2021-02-06T12:37:49Z</time>
      </trkpt>
      <trkpt lat="44.97392" lon="-0.38869">
        <ele>22.73</ele>
        <time>2021-02-06T12:38:01Z</time>
      </trkpt>
      <trkpt lat="44.9739" lon="-0.3887">
        <ele>23.69</ele>
        <time>2021-02-06T12:38:03Z</time>
      </trkpt>
      <trkpt lat="44.97379" lon="-0.38876">
        <ele>23.69</ele>
        <time>2021-02-06T12:38:14Z</time>
      </trkpt>
      <trkpt lat="44.97364" lon="-0.38898">
        <ele>23.69</ele>
        <time>2021-02-06T12:38:30Z</time>
      </trkpt>
      <trkpt lat="44.97356" lon="-0.38914">
        <ele>23.69</ele>
        <time>2021-02-06T12:38:42Z</time>
      </trkpt>
      <trkpt lat="44.97354" lon="-0.38917">
        <ele>25.13</ele>
        <time>2021-02-06T12:38:44Z</time>
      </trkpt>
      <trkpt lat="44.97347" lon="-0.38924">
        <ele>24.17</ele>
        <time>2021-02-06T12:38:51Z</time>
      </trkpt>
      <trkpt lat="44.97341" lon="-0.38928">
        <ele>25.61</ele>
        <time>2021-02-06T12:38:55Z</time>
      </trkpt>
      <trkpt lat="44.97332" lon="-0.38937">
        <ele>24.17</ele>
        <time>2021-02-06T12:39:05Z</time>
      </trkpt>
      <trkpt lat="44.9733" lon="-0.38939">
        <ele>26.09</ele>
        <time>2021-02-06T12:39:07Z</time>
      </trkpt>
      <trkpt lat="44.97327" lon="-0.38942">
        <ele>24.65</ele>
        <time>2021-02-06T12:39:10Z</time>
      </trkpt>
      <trkpt lat="44.97325" lon="-0.38945">
        <ele>26.09</ele>
        <time>2021-02-06T12:39:12Z</time>
      </trkpt>
      <trkpt lat="44.97321" lon="-0.38947">
        <ele>24.65</ele>
        <time>2021-02-06T12:39:15Z</time>
      </trkpt>
      <trkpt lat="44.97301" lon="-0.3896">
        <ele>26.09</ele>
        <time>2021-02-06T12:39:30Z</time>
      </trkpt>
      <trkpt lat="44.97284" lon="-0.38973">
        <ele>26.57</ele>
        <time>2021-02-06T12:39:46Z</time>
      </trkpt>
      <trkpt lat="44.97269" lon="-0.38986">
        <ele>26.09</ele>
        <time>2021-02-06T12:39:58Z</time>
      </trkpt>
      <trkpt lat="44.97266" lon="-0.38989">
        <ele>27.53</ele>
        <time>2021-02-06T12:40:00Z</time>
      </trkpt>
      <trkpt lat="44.97249" lon="-0.39006">
        <ele>27.53</ele>
        <time>2021-02-06T12:40:16Z</time>
      </trkpt>
      <trkpt lat="44.97239" lon="-0.39014">
        <ele>27.05</ele>
        <time>2021-02-06T12:40:25Z</time>
      </trkpt>
      <trkpt lat="44.97237" lon="-0.39016">
        <ele>28.5</ele>
        <time>2021-02-06T12:40:27Z</time>
      </trkpt>
      <trkpt lat="44.97231" lon="-0.39028">
        <ele>28.5</ele>
        <time>2021-02-06T12:40:36Z</time>
      </trkpt>
      <trkpt lat="44.97235" lon="-0.39036">
        <ele>27.05</ele>
        <time>2021-02-06T12:40:42Z</time>
      </trkpt>
      <trkpt lat="44.97237" lon="-0.39038">
        <ele>28.5</ele>
        <time>2021-02-06T12:40:44Z</time>
      </trkpt>
      <trkpt lat="44.97233" lon="-0.3906">
        <ele>28.02</ele>
        <time>2021-02-06T12:41:00Z</time>
      </trkpt>
      <trkpt lat="44.97226" lon="-0.39074">
        <ele>26.57</ele>
        <time>2021-02-06T12:41:08Z</time>
      </trkpt>
      <trkpt lat="44.9722" lon="-0.39083">
        <ele>26.09</ele>
        <time>2021-02-06T12:41:16Z</time>
      </trkpt>
      <trkpt lat="44.97199" lon="-0.39103">
        <ele>27.53</ele>
        <time>2021-02-06T12:41:34Z</time>
      </trkpt>
      <trkpt lat="44.97198" lon="-0.39105">
        <ele>26.09</ele>
        <time>2021-02-06T12:41:36Z</time>
      </trkpt>
      <trkpt lat="44.97185" lon="-0.39122">
        <ele>27.05</ele>
        <time>2021-02-06T12:41:51Z</time>
      </trkpt>
      <trkpt lat="44.97181" lon="-0.39128">
        <ele>26.57</ele>
        <time>2021-02-06T12:41:56Z</time>
      </trkpt>
      <trkpt lat="44.97179" lon="-0.39132">
        <ele>28.02</ele>
        <time>2021-02-06T12:41:58Z</time>
      </trkpt>
      <trkpt lat="44.97166" lon="-0.39144">
        <ele>26.57</ele>
        <time>2021-02-06T12:42:10Z</time>
      </trkpt>
      <trkpt lat="44.97163" lon="-0.39149">
        <ele>28.02</ele>
        <time>2021-02-06T12:42:13Z</time>
      </trkpt>
      <trkpt lat="44.97153" lon="-0.39163">
        <ele>28.02</ele>
        <time>2021-02-06T12:42:24Z</time>
      </trkpt>
      <trkpt lat="44.97139" lon="-0.39181">
        <ele>28.02</ele>
        <time>2021-02-06T12:42:39Z</time>
      </trkpt>
      <trkpt lat="44.97133" lon="-0.39194">
        <ele>26.57</ele>
        <time>2021-02-06T12:42:47Z</time>
      </trkpt>
      <trkpt lat="44.97132" lon="-0.39197">
        <ele>28.5</ele>
        <time>2021-02-06T12:42:49Z</time>
      </trkpt>
      <trkpt lat="44.97129" lon="-0.39201">
        <ele>27.05</ele>
        <time>2021-02-06T12:42:52Z</time>
      </trkpt>
      <trkpt lat="44.97122" lon="-0.39216">
        <ele>28.5</ele>
        <time>2021-02-06T12:43:02Z</time>
      </trkpt>
      <trkpt lat="44.97117" lon="-0.39225">
        <ele>28.5</ele>
        <time>2021-02-06T12:43:08Z</time>
      </trkpt>
      <trkpt lat="44.97107" lon="-0.39243">
        <ele>28.5</ele>
        <time>2021-02-06T12:43:20Z</time>
      </trkpt>
      <trkpt lat="44.97104" lon="-0.39248">
        <ele>27.05</ele>
        <time>2021-02-06T12:43:24Z</time>
      </trkpt>
      <trkpt lat="44.97102" lon="-0.39251">
        <ele>28.5</ele>
        <time>2021-02-06T12:43:26Z</time>
      </trkpt>
      <trkpt lat="44.97097" lon="-0.39263">
        <ele>27.05</ele>
        <time>2021-02-06T12:43:33Z</time>
      </trkpt>
      <trkpt lat="44.97094" lon="-0.39269">
        <ele>27.53</ele>
        <time>2021-02-06T12:43:37Z</time>
      </trkpt>
      <trkpt lat="44.97093" lon="-0.39272">
        <ele>28.5</ele>
        <time>2021-02-06T12:43:39Z</time>
      </trkpt>
      <trkpt lat="44.9709" lon="-0.39276">
        <ele>26.57</ele>
        <time>2021-02-06T12:43:42Z</time>
      </trkpt>
      <trkpt lat="44.97089" lon="-0.39279">
        <ele>28.5</ele>
        <time>2021-02-06T12:43:44Z</time>
      </trkpt>
      <trkpt lat="44.97079" lon="-0.39303">
        <ele>28.5</ele>
        <time>2021-02-06T12:43:59Z</time>
      </trkpt>
      <trkpt lat="44.97076" lon="-0.39308">
        <ele>27.05</ele>
        <time>2021-02-06T12:44:02Z</time>
      </trkpt>
      <trkpt lat="44.9707" lon="-0.39318">
        <ele>28.98</ele>
        <time>2021-02-06T12:44:09Z</time>
      </trkpt>
      <trkpt lat="44.97067" lon="-0.39321">
        <ele>27.53</ele>
        <time>2021-02-06T12:44:12Z</time>
      </trkpt>
      <trkpt lat="44.97055" lon="-0.3934">
        <ele>28.5</ele>
        <time>2021-02-06T12:44:27Z</time>
      </trkpt>
      <trkpt lat="44.9704" lon="-0.39358">
        <ele>28.02</ele>
        <time>2021-02-06T12:44:42Z</time>
      </trkpt>
      <trkpt lat="44.97039" lon="-0.39359">
        <ele>28.02</ele>
        <time>2021-02-06T12:44:43Z</time>
      </trkpt>
      <trkpt lat="44.97037" lon="-0.39361">
        <ele>29.46</ele>
        <time>2021-02-06T12:44:45Z</time>
      </trkpt>
      <trkpt lat="44.97022" lon="-0.39377">
        <ele>29.46</ele>
        <time>2021-02-06T12:44:59Z</time>
      </trkpt>
      <trkpt lat="44.97017" lon="-0.39383">
        <ele>29.46</ele>
        <time>2021-02-06T12:45:05Z</time>
      </trkpt>
      <trkpt lat="44.97014" lon="-0.39385">
        <ele>30.9</ele>
        <time>2021-02-06T12:45:07Z</time>
      </trkpt>
      <trkpt lat="44.97011" lon="-0.39388">
        <ele>31.86</ele>
        <time>2021-02-06T12:45:10Z</time>
      </trkpt>
      <trkpt lat="44.96998" lon="-0.39402">
        <ele>32.82</ele>
        <time>2021-02-06T12:45:25Z</time>
      </trkpt>
      <trkpt lat="44.96995" lon="-0.39404">
        <ele>31.38</ele>
        <time>2021-02-06T12:45:28Z</time>
      </trkpt>
      <trkpt lat="44.9698" lon="-0.39415">
        <ele>33.3</ele>
        <time>2021-02-06T12:45:42Z</time>
      </trkpt>
      <trkpt lat="44.96975" lon="-0.39418">
        <ele>35.23</ele>
        <time>2021-02-06T12:45:47Z</time>
      </trkpt>
      <trkpt lat="44.96973" lon="-0.3942">
        <ele>33.78</ele>
        <time>2021-02-06T12:45:49Z</time>
      </trkpt>
      <trkpt lat="44.96962" lon="-0.39426">
        <ele>37.15</ele>
        <time>2021-02-06T12:45:59Z</time>
      </trkpt>
      <trkpt lat="44.96946" lon="-0.39437">
        <ele>38.59</ele>
        <time>2021-02-06T12:46:14Z</time>
      </trkpt>
      <trkpt lat="44.9694" lon="-0.39441">
        <ele>37.63</ele>
        <time>2021-02-06T12:46:20Z</time>
      </trkpt>
      <trkpt lat="44.96928" lon="-0.39447">
        <ele>40.51</ele>
        <time>2021-02-06T12:46:32Z</time>
      </trkpt>
      <trkpt lat="44.96927" lon="-0.39449">
        <ele>39.07</ele>
        <time>2021-02-06T12:46:34Z</time>
      </trkpt>
      <trkpt lat="44.96917" lon="-0.39459">
        <ele>40.03</ele>
        <time>2021-02-06T12:46:45Z</time>
      </trkpt>
      <trkpt lat="44.96911" lon="-0.39465">
        <ele>40.99</ele>
        <time>2021-02-06T12:46:53Z</time>
      </trkpt>
      <trkpt lat="44.96901" lon="-0.39475">
        <ele>39.55</ele>
        <time>2021-02-06T12:47:05Z</time>
      </trkpt>
      <trkpt lat="44.96894" lon="-0.3948">
        <ele>39.55</ele>
        <time>2021-02-06T12:47:19Z</time>
      </trkpt>
      <trkpt lat="44.96883" lon="-0.39491">
        <ele>38.59</ele>
        <time>2021-02-06T12:47:35Z</time>
      </trkpt>
      <trkpt lat="44.96872" lon="-0.39504">
        <ele>37.63</ele>
        <time>2021-02-06T12:47:51Z</time>
      </trkpt>
      <trkpt lat="44.96868" lon="-0.39509">
        <ele>37.15</ele>
        <time>2021-02-06T12:47:56Z</time>
      </trkpt>
      <trkpt lat="44.96854" lon="-0.39526">
        <ele>35.71</ele>
        <time>2021-02-06T12:48:13Z</time>
      </trkpt>
      <trkpt lat="44.96842" lon="-0.39544">
        <ele>34.26</ele>
        <time>2021-02-06T12:48:30Z</time>
      </trkpt>
      <trkpt lat="44.96832" lon="-0.39554">
        <ele>33.78</ele>
        <time>2021-02-06T12:48:40Z</time>
      </trkpt>
      <trkpt lat="44.96817" lon="-0.39572">
        <ele>32.34</ele>
        <time>2021-02-06T12:48:56Z</time>
      </trkpt>
      <trkpt lat="44.96811" lon="-0.39581">
        <ele>31.38</ele>
        <time>2021-02-06T12:49:04Z</time>
      </trkpt>
      <trkpt lat="44.96801" lon="-0.39593">
        <ele>31.38</ele>
        <time>2021-02-06T12:49:15Z</time>
      </trkpt>
      <trkpt lat="44.96794" lon="-0.39605">
        <ele>31.38</ele>
        <time>2021-02-06T12:49:24Z</time>
      </trkpt>
      <trkpt lat="44.96778" lon="-0.39625">
        <ele>30.42</ele>
        <time>2021-02-06T12:49:40Z</time>
      </trkpt>
      <trkpt lat="44.96776" lon="-0.39629">
        <ele>29.94</ele>
        <time>2021-02-06T12:49:43Z</time>
      </trkpt>
      <trkpt lat="44.96764" lon="-0.3965">
        <ele>28.5</ele>
        <time>2021-02-06T12:49:58Z</time>
      </trkpt>
      <trkpt lat="44.96758" lon="-0.39661">
        <ele>28.02</ele>
        <time>2021-02-06T12:50:06Z</time>
      </trkpt>
      <trkpt lat="44.96752" lon="-0.39685">
        <ele>27.53</ele>
        <time>2021-02-06T12:50:20Z</time>
      </trkpt>
      <trkpt lat="44.96759" lon="-0.39704">
        <ele>26.57</ele>
        <time>2021-02-06T12:50:33Z</time>
      </trkpt>
      <trkpt lat="44.96769" lon="-0.39729">
        <ele>25.61</ele>
        <time>2021-02-06T12:50:49Z</time>
      </trkpt>
      <trkpt lat="44.96778" lon="-0.39754">
        <ele>25.13</ele>
        <time>2021-02-06T12:51:04Z</time>
      </trkpt>
      <trkpt lat="44.96776" lon="-0.3976">
        <ele>24.17</ele>
        <time>2021-02-06T12:51:15Z</time>
      </trkpt>
      <trkpt lat="44.96776" lon="-0.3976">
        <ele>25.61</ele>
        <time>2021-02-06T12:51:22Z</time>
      </trkpt>
      <trkpt lat="44.96776" lon="-0.39761">
        <ele>24.17</ele>
        <time>2021-02-06T12:51:24Z</time>
      </trkpt>
      <trkpt lat="44.9677" lon="-0.39771">
        <ele>25.61</ele>
        <time>2021-02-06T12:51:33Z</time>
      </trkpt>
      <trkpt lat="44.96755" lon="-0.39782">
        <ele>25.61</ele>
        <time>2021-02-06T12:51:46Z</time>
      </trkpt>
      <trkpt lat="44.96736" lon="-0.39795">
        <ele>27.05</ele>
        <time>2021-02-06T12:52:02Z</time>
      </trkpt>
      <trkpt lat="44.96718" lon="-0.39804">
        <ele>28.02</ele>
        <time>2021-02-06T12:52:16Z</time>
      </trkpt>
      <trkpt lat="44.96717" lon="-0.39804">
        <ele>28.02</ele>
        <time>2021-02-06T12:52:17Z</time>
      </trkpt>
      <trkpt lat="44.9671" lon="-0.39808">
        <ele>28.5</ele>
        <time>2021-02-06T12:52:22Z</time>
      </trkpt>
      <trkpt lat="44.96708" lon="-0.39809">
        <ele>27.53</ele>
        <time>2021-02-06T12:52:24Z</time>
      </trkpt>
      <trkpt lat="44.96705" lon="-0.39811">
        <ele>28.98</ele>
        <time>2021-02-06T12:52:26Z</time>
      </trkpt>
      <trkpt lat="44.967" lon="-0.39812">
        <ele>27.53</ele>
        <time>2021-02-06T12:52:30Z</time>
      </trkpt>
      <trkpt lat="44.96698" lon="-0.39814">
        <ele>29.46</ele>
        <time>2021-02-06T12:52:32Z</time>
      </trkpt>
      <trkpt lat="44.96694" lon="-0.39815">
        <ele>28.02</ele>
        <time>2021-02-06T12:52:35Z</time>
      </trkpt>
      <trkpt lat="44.96692" lon="-0.39817">
        <ele>29.46</ele>
        <time>2021-02-06T12:52:37Z</time>
      </trkpt>
      <trkpt lat="44.96677" lon="-0.39825">
        <ele>28.98</ele>
        <time>2021-02-06T12:52:49Z</time>
      </trkpt>
      <trkpt lat="44.96675" lon="-0.39827">
        <ele>30.9</ele>
        <time>2021-02-06T12:52:51Z</time>
      </trkpt>
      <trkpt lat="44.96672" lon="-0.39829">
        <ele>30.9</ele>
        <time>2021-02-06T12:52:54Z</time>
      </trkpt>
      <trkpt lat="44.96656" lon="-0.39842">
        <ele>32.82</ele>
        <time>2021-02-06T12:53:09Z</time>
      </trkpt>
      <trkpt lat="44.96647" lon="-0.39853">
        <ele>35.23</ele>
        <time>2021-02-06T12:53:19Z</time>
      </trkpt>
      <trkpt lat="44.96636" lon="-0.39871">
        <ele>37.15</ele>
        <time>2021-02-06T12:53:34Z</time>
      </trkpt>
      <trkpt lat="44.96623" lon="-0.39883">
        <ele>40.03</ele>
        <time>2021-02-06T12:53:49Z</time>
      </trkpt>
      <trkpt lat="44.96618" lon="-0.39885">
        <ele>41.47</ele>
        <time>2021-02-06T12:53:54Z</time>
      </trkpt>
      <trkpt lat="44.966" lon="-0.39886">
        <ele>42.44</ele>
        <time>2021-02-06T12:54:08Z</time>
      </trkpt>
      <trkpt lat="44.96597" lon="-0.39887">
        <ele>43.88</ele>
        <time>2021-02-06T12:54:10Z</time>
      </trkpt>
      <trkpt lat="44.96585" lon="-0.39884">
        <ele>45.32</ele>
        <time>2021-02-06T12:54:19Z</time>
      </trkpt>
      <trkpt lat="44.96578" lon="-0.39886">
        <ele>45.32</ele>
        <time>2021-02-06T12:54:26Z</time>
      </trkpt>
      <trkpt lat="44.96573" lon="-0.39893">
        <ele>45.8</ele>
        <time>2021-02-06T12:54:31Z</time>
      </trkpt>
      <trkpt lat="44.96571" lon="-0.39894">
        <ele>45.8</ele>
        <time>2021-02-06T12:54:33Z</time>
      </trkpt>
      <trkpt lat="44.96569" lon="-0.39917">
        <ele>45.8</ele>
        <time>2021-02-06T12:54:45Z</time>
      </trkpt>
      <trkpt lat="44.96569" lon="-0.39935">
        <ele>44.36</ele>
        <time>2021-02-06T12:54:55Z</time>
      </trkpt>
      <trkpt lat="44.9657" lon="-0.39948">
        <ele>44.36</ele>
        <time>2021-02-06T12:55:02Z</time>
      </trkpt>
      <trkpt lat="44.96572" lon="-0.39967">
        <ele>44.36</ele>
        <time>2021-02-06T12:55:15Z</time>
      </trkpt>
      <trkpt lat="44.96571" lon="-0.3999">
        <ele>43.4</ele>
        <time>2021-02-06T12:55:27Z</time>
      </trkpt>
      <trkpt lat="44.96571" lon="-0.40004">
        <ele>42.92</ele>
        <time>2021-02-06T12:55:37Z</time>
      </trkpt>
      <trkpt lat="44.96565" lon="-0.4001">
        <ele>42.92</ele>
        <time>2021-02-06T12:55:44Z</time>
      </trkpt>
      <trkpt lat="44.96554" lon="-0.40028">
        <ele>44.36</ele>
        <time>2021-02-06T12:55:58Z</time>
      </trkpt>
      <trkpt lat="44.96548" lon="-0.40032">
        <ele>44.36</ele>
        <time>2021-02-06T12:56:03Z</time>
      </trkpt>
      <trkpt lat="44.96547" lon="-0.40044">
        <ele>44.36</ele>
        <time>2021-02-06T12:56:09Z</time>
      </trkpt>
      <trkpt lat="44.96553" lon="-0.40071">
        <ele>42.92</ele>
        <time>2021-02-06T12:56:23Z</time>
      </trkpt>
      <trkpt lat="44.96553" lon="-0.40097">
        <ele>42.44</ele>
        <time>2021-02-06T12:56:37Z</time>
      </trkpt>
      <trkpt lat="44.96547" lon="-0.40117">
        <ele>42.44</ele>
        <time>2021-02-06T12:56:48Z</time>
      </trkpt>
      <trkpt lat="44.96538" lon="-0.40138">
        <ele>43.4</ele>
        <time>2021-02-06T12:57:00Z</time>
      </trkpt>
      <trkpt lat="44.96533" lon="-0.40158">
        <ele>41.95</ele>
        <time>2021-02-06T12:57:12Z</time>
      </trkpt>
      <trkpt lat="44.96526" lon="-0.40174">
        <ele>41.47</ele>
        <time>2021-02-06T12:57:23Z</time>
      </trkpt>
      <trkpt lat="44.9652" lon="-0.40177">
        <ele>40.99</ele>
        <time>2021-02-06T12:57:28Z</time>
      </trkpt>
      <trkpt lat="44.96519" lon="-0.40184">
        <ele>40.99</ele>
        <time>2021-02-06T12:57:32Z</time>
      </trkpt>
      <trkpt lat="44.96518" lon="-0.40205">
        <ele>39.55</ele>
        <time>2021-02-06T12:57:44Z</time>
      </trkpt>
      <trkpt lat="44.96519" lon="-0.40228">
        <ele>38.59</ele>
        <time>2021-02-06T12:58:00Z</time>
      </trkpt>
      <trkpt lat="44.96516" lon="-0.40242">
        <ele>36.19</ele>
        <time>2021-02-06T12:58:10Z</time>
      </trkpt>
    </trkseg>
  </trk>
</gpx>